<?xml version="1.0" encoding="UTF-8" standalone="no" ?>
<gpx xmlns="http://www.topografix.com/GPX/1/1" xmlns:xsi="http://www.w3.org/2001/XMLSchema-instance" xsi:schemaLocation="http://www.topografix.com/GPX/1/1 http://www.topografix.com/GPX/1/1/gpx.xsd" version="1.1" creator="VisuGPX - https://www.visugpx.com">
  <metadata>
    <name>le beal la plantade GR3</name>
    <desc><![CDATA[retour du col du Beal a cusset par le GR3]]></desc>
  </metadata>
  <trk>
    <name><![CDATA[2013-07-14 11:23]]></name>
    <desc><![CDATA[<h1>OruxMaps</h1><br /><hr align="center" width="480" style="height: 2px; width: 517px"/><h2>Nom: 2013-07-14 11:23</h2><br /><p>Temps de départ: 07/14/2013 11:24</p><p>Temps d'arrivée: 07/14/2013 19:49</p><p>Distance: 51 km (08:24)</p><p>Temps déplacement: 03:39</p><p>Vitesse moyenne: 6,1 km/h</p><p>Vitesse moyenne: 13,9 km/h</p><p>Vitess Max.: 59 km/h</p><p>Altitude minimale: 603 m</p><p>Altitude maximale: 1423 m</p><p>Vitesse d'élévation: 398,5 m/h</p><p>Vitesse de descente: -825,2 m/h</p><p>Gain Altitude: 1547 m</p><p>Perte Altitude: -2076 m</p><p>Temps d'élévation: 03:52</p><p>Temps de descente: 02:30</p><hr align="center" width="480" style="height: 2px; width: 517px"/>]]></desc>
    <trkseg>
      <trkpt lat="45.69096" lon="3.777">
        <ele>1420.94</ele>
        <time>2013-07-14T09:24:33Z</time>
      </trkpt>
      <trkpt lat="45.69078" lon="3.77707">
        <ele>1401.94</ele>
        <time>2013-07-14T09:31:39Z</time>
      </trkpt>
      <trkpt lat="45.6907" lon="3.77732">
        <ele>1401.94</ele>
        <time>2013-07-14T09:31:47Z</time>
      </trkpt>
      <trkpt lat="45.69062" lon="3.77758">
        <ele>1401.94</ele>
        <time>2013-07-14T09:31:55Z</time>
      </trkpt>
      <trkpt lat="45.69056" lon="3.77784">
        <ele>1402.19</ele>
        <time>2013-07-14T09:32:05Z</time>
      </trkpt>
      <trkpt lat="45.69077" lon="3.77784">
        <ele>1402.84</ele>
        <time>2013-07-14T09:32:12Z</time>
      </trkpt>
      <trkpt lat="45.69094" lon="3.77773">
        <ele>1402.36</ele>
        <time>2013-07-14T09:32:20Z</time>
      </trkpt>
      <trkpt lat="45.69113" lon="3.77775">
        <ele>1402.94</ele>
        <time>2013-07-14T09:34:32Z</time>
      </trkpt>
      <trkpt lat="45.69132" lon="3.77775">
        <ele>1402.94</ele>
        <time>2013-07-14T09:34:38Z</time>
      </trkpt>
      <trkpt lat="45.69152" lon="3.77773">
        <ele>1402.37</ele>
        <time>2013-07-14T09:34:45Z</time>
      </trkpt>
      <trkpt lat="45.69172" lon="3.77771">
        <ele>1401.99</ele>
        <time>2013-07-14T09:34:53Z</time>
      </trkpt>
      <trkpt lat="45.69191" lon="3.77767">
        <ele>1401.95</ele>
        <time>2013-07-14T09:35:01Z</time>
      </trkpt>
      <trkpt lat="45.6921" lon="3.77767">
        <ele>1401.94</ele>
        <time>2013-07-14T09:35:09Z</time>
      </trkpt>
      <trkpt lat="45.69229" lon="3.77764">
        <ele>1401.94</ele>
        <time>2013-07-14T09:35:18Z</time>
      </trkpt>
      <trkpt lat="45.69247" lon="3.77762">
        <ele>1401.94</ele>
        <time>2013-07-14T09:35:26Z</time>
      </trkpt>
      <trkpt lat="45.69266" lon="3.7776">
        <ele>1401.94</ele>
        <time>2013-07-14T09:35:34Z</time>
      </trkpt>
      <trkpt lat="45.69286" lon="3.77758">
        <ele>1401.94</ele>
        <time>2013-07-14T09:35:42Z</time>
      </trkpt>
      <trkpt lat="45.69305" lon="3.77756">
        <ele>1402.19</ele>
        <time>2013-07-14T09:35:50Z</time>
      </trkpt>
      <trkpt lat="45.69324" lon="3.77754">
        <ele>1402.87</ele>
        <time>2013-07-14T09:35:58Z</time>
      </trkpt>
      <trkpt lat="45.69345" lon="3.77749">
        <ele>1402.94</ele>
        <time>2013-07-14T09:36:06Z</time>
      </trkpt>
      <trkpt lat="45.69363" lon="3.77747">
        <ele>1402.94</ele>
        <time>2013-07-14T09:36:13Z</time>
      </trkpt>
      <trkpt lat="45.69383" lon="3.77745">
        <ele>1402.94</ele>
        <time>2013-07-14T09:36:21Z</time>
      </trkpt>
      <trkpt lat="45.69403" lon="3.77743">
        <ele>1403.81</ele>
        <time>2013-07-14T09:36:29Z</time>
      </trkpt>
      <trkpt lat="45.69421" lon="3.77741">
        <ele>1403.93</ele>
        <time>2013-07-14T09:36:36Z</time>
      </trkpt>
      <trkpt lat="45.6944" lon="3.77741">
        <ele>1403.94</ele>
        <time>2013-07-14T09:36:44Z</time>
      </trkpt>
      <trkpt lat="45.69458" lon="3.77739">
        <ele>1403.94</ele>
        <time>2013-07-14T09:36:51Z</time>
      </trkpt>
      <trkpt lat="45.69478" lon="3.77739">
        <ele>1404.81</ele>
        <time>2013-07-14T09:36:59Z</time>
      </trkpt>
      <trkpt lat="45.69497" lon="3.77739">
        <ele>1404.93</ele>
        <time>2013-07-14T09:37:07Z</time>
      </trkpt>
      <trkpt lat="45.69515" lon="3.77737">
        <ele>1405.52</ele>
        <time>2013-07-14T09:37:15Z</time>
      </trkpt>
      <trkpt lat="45.69535" lon="3.77734">
        <ele>1405.9</ele>
        <time>2013-07-14T09:37:23Z</time>
      </trkpt>
      <trkpt lat="45.69554" lon="3.7773">
        <ele>1406.38</ele>
        <time>2013-07-14T09:37:31Z</time>
      </trkpt>
      <trkpt lat="45.69574" lon="3.7773">
        <ele>1406.89</ele>
        <time>2013-07-14T09:37:39Z</time>
      </trkpt>
      <trkpt lat="45.69593" lon="3.7773">
        <ele>1408.09</ele>
        <time>2013-07-14T09:37:47Z</time>
      </trkpt>
      <trkpt lat="45.69612" lon="3.77728">
        <ele>1409.46</ele>
        <time>2013-07-14T09:37:56Z</time>
      </trkpt>
      <trkpt lat="45.69631" lon="3.77728">
        <ele>1410.67</ele>
        <time>2013-07-14T09:38:05Z</time>
      </trkpt>
      <trkpt lat="45.69651" lon="3.77726">
        <ele>1411.69</ele>
        <time>2013-07-14T09:38:14Z</time>
      </trkpt>
      <trkpt lat="45.6967" lon="3.77726">
        <ele>1412.6</ele>
        <time>2013-07-14T09:38:22Z</time>
      </trkpt>
      <trkpt lat="45.69689" lon="3.77722">
        <ele>1413.68</ele>
        <time>2013-07-14T09:38:31Z</time>
      </trkpt>
      <trkpt lat="45.69707" lon="3.77719">
        <ele>1414.6</ele>
        <time>2013-07-14T09:38:39Z</time>
      </trkpt>
      <trkpt lat="45.69727" lon="3.77717">
        <ele>1415.6</ele>
        <time>2013-07-14T09:38:48Z</time>
      </trkpt>
      <trkpt lat="45.69745" lon="3.77715">
        <ele>1415.91</ele>
        <time>2013-07-14T09:38:56Z</time>
      </trkpt>
      <trkpt lat="45.69764" lon="3.77715">
        <ele>1416.84</ele>
        <time>2013-07-14T09:39:04Z</time>
      </trkpt>
      <trkpt lat="45.69782" lon="3.77713">
        <ele>1417.62</ele>
        <time>2013-07-14T09:39:12Z</time>
      </trkpt>
      <trkpt lat="45.69801" lon="3.77711">
        <ele>1417.91</ele>
        <time>2013-07-14T09:39:20Z</time>
      </trkpt>
      <trkpt lat="45.6982" lon="3.77709">
        <ele>1418.81</ele>
        <time>2013-07-14T09:39:27Z</time>
      </trkpt>
      <trkpt lat="45.69838" lon="3.77707">
        <ele>1419.36</ele>
        <time>2013-07-14T09:39:33Z</time>
      </trkpt>
      <trkpt lat="45.69859" lon="3.77702">
        <ele>1420.09</ele>
        <time>2013-07-14T09:39:39Z</time>
      </trkpt>
      <trkpt lat="45.6988" lon="3.77696">
        <ele>1421.25</ele>
        <time>2013-07-14T09:39:43Z</time>
      </trkpt>
      <trkpt lat="45.69904" lon="3.77692">
        <ele>1422.41</ele>
        <time>2013-07-14T09:39:47Z</time>
      </trkpt>
      <trkpt lat="45.69922" lon="3.77687">
        <ele>1423.16</ele>
        <time>2013-07-14T09:39:50Z</time>
      </trkpt>
      <trkpt lat="45.69945" lon="3.77683">
        <ele>1423.26</ele>
        <time>2013-07-14T09:39:54Z</time>
      </trkpt>
      <trkpt lat="45.69964" lon="3.77679">
        <ele>1423.08</ele>
        <time>2013-07-14T09:39:57Z</time>
      </trkpt>
      <trkpt lat="45.69984" lon="3.77674">
        <ele>1422.3</ele>
        <time>2013-07-14T09:40:01Z</time>
      </trkpt>
      <trkpt lat="45.70002" lon="3.7767">
        <ele>1421.19</ele>
        <time>2013-07-14T09:40:07Z</time>
      </trkpt>
      <trkpt lat="45.70022" lon="3.77672">
        <ele>1419.18</ele>
        <time>2013-07-14T09:42:33Z</time>
      </trkpt>
      <trkpt lat="45.70041" lon="3.77674">
        <ele>1415.88</ele>
        <time>2013-07-14T09:42:38Z</time>
      </trkpt>
      <trkpt lat="45.7006" lon="3.77681">
        <ele>1414.29</ele>
        <time>2013-07-14T09:42:44Z</time>
      </trkpt>
      <trkpt lat="45.70082" lon="3.77692">
        <ele>1413.32</ele>
        <time>2013-07-14T09:42:50Z</time>
      </trkpt>
      <trkpt lat="45.70101" lon="3.77711">
        <ele>1411.55</ele>
        <time>2013-07-14T09:42:54Z</time>
      </trkpt>
      <trkpt lat="45.70118" lon="3.77734">
        <ele>1409.62</ele>
        <time>2013-07-14T09:42:58Z</time>
      </trkpt>
      <trkpt lat="45.70134" lon="3.77752">
        <ele>1407.1</ele>
        <time>2013-07-14T09:43:02Z</time>
      </trkpt>
      <trkpt lat="45.70153" lon="3.77769">
        <ele>1405.19</ele>
        <time>2013-07-14T09:43:06Z</time>
      </trkpt>
      <trkpt lat="45.70171" lon="3.77782">
        <ele>1403.22</ele>
        <time>2013-07-14T09:43:10Z</time>
      </trkpt>
      <trkpt lat="45.70189" lon="3.77795">
        <ele>1401.9</ele>
        <time>2013-07-14T09:43:13Z</time>
      </trkpt>
      <trkpt lat="45.7021" lon="3.77807">
        <ele>1400.77</ele>
        <time>2013-07-14T09:43:16Z</time>
      </trkpt>
      <trkpt lat="45.70223" lon="3.77829">
        <ele>1400.73</ele>
        <time>2013-07-14T09:43:19Z</time>
      </trkpt>
      <trkpt lat="45.70232" lon="3.77857">
        <ele>1400.85</ele>
        <time>2013-07-14T09:43:22Z</time>
      </trkpt>
      <trkpt lat="45.7024" lon="3.77889">
        <ele>1400.47</ele>
        <time>2013-07-14T09:43:25Z</time>
      </trkpt>
      <trkpt lat="45.70251" lon="3.77921">
        <ele>1399.73</ele>
        <time>2013-07-14T09:43:28Z</time>
      </trkpt>
      <trkpt lat="45.70263" lon="3.77953">
        <ele>1398.84</ele>
        <time>2013-07-14T09:43:31Z</time>
      </trkpt>
      <trkpt lat="45.70271" lon="3.77981">
        <ele>1397.74</ele>
        <time>2013-07-14T09:43:34Z</time>
      </trkpt>
      <trkpt lat="45.70275" lon="3.78007">
        <ele>1396.7</ele>
        <time>2013-07-14T09:43:37Z</time>
      </trkpt>
      <trkpt lat="45.70281" lon="3.78039">
        <ele>1395.5</ele>
        <time>2013-07-14T09:43:41Z</time>
      </trkpt>
      <trkpt lat="45.70288" lon="3.78069">
        <ele>1394</ele>
        <time>2013-07-14T09:43:45Z</time>
      </trkpt>
      <trkpt lat="45.70297" lon="3.78099">
        <ele>1392.45</ele>
        <time>2013-07-14T09:43:49Z</time>
      </trkpt>
      <trkpt lat="45.70307" lon="3.78123">
        <ele>1391.14</ele>
        <time>2013-07-14T09:43:52Z</time>
      </trkpt>
      <trkpt lat="45.70322" lon="3.78144">
        <ele>1389.43</ele>
        <time>2013-07-14T09:43:55Z</time>
      </trkpt>
      <trkpt lat="45.70339" lon="3.78161">
        <ele>1387.56</ele>
        <time>2013-07-14T09:43:58Z</time>
      </trkpt>
      <trkpt lat="45.70356" lon="3.78172">
        <ele>1385.61</ele>
        <time>2013-07-14T09:44:01Z</time>
      </trkpt>
      <trkpt lat="45.70379" lon="3.78181">
        <ele>1382.96</ele>
        <time>2013-07-14T09:44:05Z</time>
      </trkpt>
      <trkpt lat="45.70399" lon="3.78187">
        <ele>1381.79</ele>
        <time>2013-07-14T09:44:08Z</time>
      </trkpt>
      <trkpt lat="45.70421" lon="3.78191">
        <ele>1380.72</ele>
        <time>2013-07-14T09:44:11Z</time>
      </trkpt>
      <trkpt lat="45.70444" lon="3.78196">
        <ele>1379.7</ele>
        <time>2013-07-14T09:44:14Z</time>
      </trkpt>
      <trkpt lat="45.70471" lon="3.78198">
        <ele>1378.43</ele>
        <time>2013-07-14T09:44:17Z</time>
      </trkpt>
      <trkpt lat="45.70491" lon="3.782">
        <ele>1377.53</ele>
        <time>2013-07-14T09:44:19Z</time>
      </trkpt>
      <trkpt lat="45.70516" lon="3.78198">
        <ele>1375.93</ele>
        <time>2013-07-14T09:44:22Z</time>
      </trkpt>
      <trkpt lat="45.70541" lon="3.78196">
        <ele>1374.09</ele>
        <time>2013-07-14T09:44:25Z</time>
      </trkpt>
      <trkpt lat="45.70567" lon="3.78202">
        <ele>1372.41</ele>
        <time>2013-07-14T09:44:28Z</time>
      </trkpt>
      <trkpt lat="45.70585" lon="3.78198">
        <ele>1371.08</ele>
        <time>2013-07-14T09:44:30Z</time>
      </trkpt>
      <trkpt lat="45.70611" lon="3.78206">
        <ele>1369.41</ele>
        <time>2013-07-14T09:44:33Z</time>
      </trkpt>
      <trkpt lat="45.7063" lon="3.78217">
        <ele>1367.73</ele>
        <time>2013-07-14T09:44:36Z</time>
      </trkpt>
      <trkpt lat="45.7065" lon="3.78215">
        <ele>1365</ele>
        <time>2013-07-14T09:44:40Z</time>
      </trkpt>
      <trkpt lat="45.70671" lon="3.78215">
        <ele>1362.31</ele>
        <time>2013-07-14T09:44:45Z</time>
      </trkpt>
      <trkpt lat="45.70691" lon="3.78222">
        <ele>1361.19</ele>
        <time>2013-07-14T09:44:51Z</time>
      </trkpt>
      <trkpt lat="45.70711" lon="3.78224">
        <ele>1360.99</ele>
        <time>2013-07-14T09:44:57Z</time>
      </trkpt>
      <trkpt lat="45.70731" lon="3.78222">
        <ele>1360.95</ele>
        <time>2013-07-14T09:45:04Z</time>
      </trkpt>
      <trkpt lat="45.70749" lon="3.78215">
        <ele>1360.51</ele>
        <time>2013-07-14T09:45:11Z</time>
      </trkpt>
      <trkpt lat="45.70764" lon="3.78198">
        <ele>1360.02</ele>
        <time>2013-07-14T09:45:18Z</time>
      </trkpt>
      <trkpt lat="45.70781" lon="3.78189">
        <ele>1359.95</ele>
        <time>2013-07-14T09:45:26Z</time>
      </trkpt>
      <trkpt lat="45.70801" lon="3.78185">
        <ele>1359.94</ele>
        <time>2013-07-14T09:45:33Z</time>
      </trkpt>
      <trkpt lat="45.7082" lon="3.78181">
        <ele>1359.12</ele>
        <time>2013-07-14T09:45:39Z</time>
      </trkpt>
      <trkpt lat="45.70838" lon="3.78181">
        <ele>1358.74</ele>
        <time>2013-07-14T09:45:44Z</time>
      </trkpt>
      <trkpt lat="45.7086" lon="3.78179">
        <ele>1357.37</ele>
        <time>2013-07-14T09:45:48Z</time>
      </trkpt>
      <trkpt lat="45.70882" lon="3.78181">
        <ele>1356.54</ele>
        <time>2013-07-14T09:45:51Z</time>
      </trkpt>
      <trkpt lat="45.70907" lon="3.78185">
        <ele>1355.62</ele>
        <time>2013-07-14T09:45:54Z</time>
      </trkpt>
      <trkpt lat="45.7093" lon="3.78198">
        <ele>1354.4</ele>
        <time>2013-07-14T09:45:57Z</time>
      </trkpt>
      <trkpt lat="45.70956" lon="3.78213">
        <ele>1353.12</ele>
        <time>2013-07-14T09:46:00Z</time>
      </trkpt>
      <trkpt lat="45.70973" lon="3.78222">
        <ele>1352.17</ele>
        <time>2013-07-14T09:46:02Z</time>
      </trkpt>
      <trkpt lat="45.70993" lon="3.7823">
        <ele>1351.63</ele>
        <time>2013-07-14T09:46:04Z</time>
      </trkpt>
      <trkpt lat="45.71013" lon="3.78239">
        <ele>1351.08</ele>
        <time>2013-07-14T09:46:06Z</time>
      </trkpt>
      <trkpt lat="45.71033" lon="3.78245">
        <ele>1350.58</ele>
        <time>2013-07-14T09:46:08Z</time>
      </trkpt>
      <trkpt lat="45.71055" lon="3.78252">
        <ele>1350.3</ele>
        <time>2013-07-14T09:46:10Z</time>
      </trkpt>
      <trkpt lat="45.71075" lon="3.78256">
        <ele>1350.15</ele>
        <time>2013-07-14T09:46:12Z</time>
      </trkpt>
      <trkpt lat="45.71095" lon="3.7826">
        <ele>1350.06</ele>
        <time>2013-07-14T09:46:14Z</time>
      </trkpt>
      <trkpt lat="45.71112" lon="3.78269">
        <ele>1349.57</ele>
        <time>2013-07-14T09:46:16Z</time>
      </trkpt>
      <trkpt lat="45.71132" lon="3.78279">
        <ele>1349.21</ele>
        <time>2013-07-14T09:46:19Z</time>
      </trkpt>
      <trkpt lat="45.71156" lon="3.78264">
        <ele>1347.69</ele>
        <time>2013-07-14T09:46:46Z</time>
      </trkpt>
      <trkpt lat="45.71173" lon="3.78241">
        <ele>1346.93</ele>
        <time>2013-07-14T09:46:50Z</time>
      </trkpt>
      <trkpt lat="45.71189" lon="3.78219">
        <ele>1342.93</ele>
        <time>2013-07-14T09:46:54Z</time>
      </trkpt>
      <trkpt lat="45.71205" lon="3.78206">
        <ele>1334.26</ele>
        <time>2013-07-14T09:46:58Z</time>
      </trkpt>
      <trkpt lat="45.71222" lon="3.78198">
        <ele>1327.55</ele>
        <time>2013-07-14T09:47:02Z</time>
      </trkpt>
      <trkpt lat="45.71239" lon="3.78189">
        <ele>1321.77</ele>
        <time>2013-07-14T09:47:06Z</time>
      </trkpt>
      <trkpt lat="45.71254" lon="3.78172">
        <ele>1318.33</ele>
        <time>2013-07-14T09:47:10Z</time>
      </trkpt>
      <trkpt lat="45.71271" lon="3.78157">
        <ele>1316.7</ele>
        <time>2013-07-14T09:47:14Z</time>
      </trkpt>
      <trkpt lat="45.7129" lon="3.78144">
        <ele>1315.54</ele>
        <time>2013-07-14T09:47:19Z</time>
      </trkpt>
      <trkpt lat="45.71309" lon="3.78131">
        <ele>1315.09</ele>
        <time>2013-07-14T09:47:24Z</time>
      </trkpt>
      <trkpt lat="45.71327" lon="3.78116">
        <ele>1314.98</ele>
        <time>2013-07-14T09:47:29Z</time>
      </trkpt>
      <trkpt lat="45.71342" lon="3.78097">
        <ele>1316.47</ele>
        <time>2013-07-14T09:47:33Z</time>
      </trkpt>
      <trkpt lat="45.71359" lon="3.78076">
        <ele>1316.79</ele>
        <time>2013-07-14T09:47:37Z</time>
      </trkpt>
      <trkpt lat="45.71374" lon="3.7805">
        <ele>1316.21</ele>
        <time>2013-07-14T09:47:41Z</time>
      </trkpt>
      <trkpt lat="45.71389" lon="3.78026">
        <ele>1315.2</ele>
        <time>2013-07-14T09:47:45Z</time>
      </trkpt>
      <trkpt lat="45.71404" lon="3.78">
        <ele>1313.22</ele>
        <time>2013-07-14T09:47:49Z</time>
      </trkpt>
      <trkpt lat="45.71418" lon="3.77977">
        <ele>1312.35</ele>
        <time>2013-07-14T09:47:53Z</time>
      </trkpt>
      <trkpt lat="45.71432" lon="3.77955">
        <ele>1311.49</ele>
        <time>2013-07-14T09:47:57Z</time>
      </trkpt>
      <trkpt lat="45.71447" lon="3.77936">
        <ele>1311.7</ele>
        <time>2013-07-14T09:48:01Z</time>
      </trkpt>
      <trkpt lat="45.71457" lon="3.77913">
        <ele>1312.3</ele>
        <time>2013-07-14T09:48:05Z</time>
      </trkpt>
      <trkpt lat="45.71465" lon="3.77887">
        <ele>1314.11</ele>
        <time>2013-07-14T09:48:09Z</time>
      </trkpt>
      <trkpt lat="45.71468" lon="3.77861">
        <ele>1315.8</ele>
        <time>2013-07-14T09:48:13Z</time>
      </trkpt>
      <trkpt lat="45.71471" lon="3.77835">
        <ele>1317.02</ele>
        <time>2013-07-14T09:48:17Z</time>
      </trkpt>
      <trkpt lat="45.71482" lon="3.7781">
        <ele>1317.72</ele>
        <time>2013-07-14T09:48:22Z</time>
      </trkpt>
      <trkpt lat="45.71495" lon="3.77788">
        <ele>1317.91</ele>
        <time>2013-07-14T09:48:28Z</time>
      </trkpt>
      <trkpt lat="45.71513" lon="3.77797">
        <ele>1318.52</ele>
        <time>2013-07-14T09:48:34Z</time>
      </trkpt>
      <trkpt lat="45.71526" lon="3.77816">
        <ele>1318.87</ele>
        <time>2013-07-14T09:48:40Z</time>
      </trkpt>
      <trkpt lat="45.7154" lon="3.77835">
        <ele>1318.93</ele>
        <time>2013-07-14T09:48:45Z</time>
      </trkpt>
      <trkpt lat="45.71557" lon="3.77863">
        <ele>1319.71</ele>
        <time>2013-07-14T09:48:55Z</time>
      </trkpt>
      <trkpt lat="45.71576" lon="3.77893">
        <ele>1321.13</ele>
        <time>2013-07-14T09:49:06Z</time>
      </trkpt>
      <trkpt lat="45.71598" lon="3.77891">
        <ele>1321.75</ele>
        <time>2013-07-14T09:49:11Z</time>
      </trkpt>
      <trkpt lat="45.71624" lon="3.7788">
        <ele>1322.11</ele>
        <time>2013-07-14T09:49:14Z</time>
      </trkpt>
      <trkpt lat="45.71643" lon="3.77872">
        <ele>1322.73</ele>
        <time>2013-07-14T09:49:16Z</time>
      </trkpt>
      <trkpt lat="45.71661" lon="3.77859">
        <ele>1322.82</ele>
        <time>2013-07-14T09:49:18Z</time>
      </trkpt>
      <trkpt lat="45.71685" lon="3.77842">
        <ele>1323.33</ele>
        <time>2013-07-14T09:49:21Z</time>
      </trkpt>
      <trkpt lat="45.71703" lon="3.77827">
        <ele>1323.68</ele>
        <time>2013-07-14T09:49:24Z</time>
      </trkpt>
      <trkpt lat="45.7172" lon="3.77807">
        <ele>1324.27</ele>
        <time>2013-07-14T09:49:27Z</time>
      </trkpt>
      <trkpt lat="45.71737" lon="3.77786">
        <ele>1324.73</ele>
        <time>2013-07-14T09:49:31Z</time>
      </trkpt>
      <trkpt lat="45.71751" lon="3.77769">
        <ele>1325.56</ele>
        <time>2013-07-14T09:49:35Z</time>
      </trkpt>
      <trkpt lat="45.71769" lon="3.77758">
        <ele>1326.45</ele>
        <time>2013-07-14T09:49:41Z</time>
      </trkpt>
      <trkpt lat="45.71791" lon="3.77756">
        <ele>1327.93</ele>
        <time>2013-07-14T09:49:47Z</time>
      </trkpt>
      <trkpt lat="45.71812" lon="3.77749">
        <ele>1331.38</ele>
        <time>2013-07-14T09:49:50Z</time>
      </trkpt>
      <trkpt lat="45.71832" lon="3.77739">
        <ele>1334.46</ele>
        <time>2013-07-14T09:49:53Z</time>
      </trkpt>
      <trkpt lat="45.7185" lon="3.7773">
        <ele>1336.47</ele>
        <time>2013-07-14T09:49:56Z</time>
      </trkpt>
      <trkpt lat="45.71872" lon="3.77722">
        <ele>1337.32</ele>
        <time>2013-07-14T09:49:59Z</time>
      </trkpt>
      <trkpt lat="45.71892" lon="3.77715">
        <ele>1336.85</ele>
        <time>2013-07-14T09:50:02Z</time>
      </trkpt>
      <trkpt lat="45.71915" lon="3.77707">
        <ele>1335.89</ele>
        <time>2013-07-14T09:50:05Z</time>
      </trkpt>
      <trkpt lat="45.7194" lon="3.77698">
        <ele>1334.52</ele>
        <time>2013-07-14T09:50:08Z</time>
      </trkpt>
      <trkpt lat="45.71958" lon="3.77692">
        <ele>1333.39</ele>
        <time>2013-07-14T09:50:10Z</time>
      </trkpt>
      <trkpt lat="45.71983" lon="3.77687">
        <ele>1332.55</ele>
        <time>2013-07-14T09:50:13Z</time>
      </trkpt>
      <trkpt lat="45.72007" lon="3.77689">
        <ele>1332.2</ele>
        <time>2013-07-14T09:50:16Z</time>
      </trkpt>
      <trkpt lat="45.72029" lon="3.77694">
        <ele>1332.3</ele>
        <time>2013-07-14T09:50:19Z</time>
      </trkpt>
      <trkpt lat="45.72053" lon="3.777">
        <ele>1332.42</ele>
        <time>2013-07-14T09:50:22Z</time>
      </trkpt>
      <trkpt lat="45.72075" lon="3.77711">
        <ele>1331.9</ele>
        <time>2013-07-14T09:50:25Z</time>
      </trkpt>
      <trkpt lat="45.72098" lon="3.77719">
        <ele>1330.91</ele>
        <time>2013-07-14T09:50:28Z</time>
      </trkpt>
      <trkpt lat="45.72119" lon="3.77728">
        <ele>1329.91</ele>
        <time>2013-07-14T09:50:31Z</time>
      </trkpt>
      <trkpt lat="45.72135" lon="3.77743">
        <ele>1328.49</ele>
        <time>2013-07-14T09:50:36Z</time>
      </trkpt>
      <trkpt lat="45.72147" lon="3.77769">
        <ele>1327.6</ele>
        <time>2013-07-14T09:50:42Z</time>
      </trkpt>
      <trkpt lat="45.7216" lon="3.77792">
        <ele>1327.06</ele>
        <time>2013-07-14T09:50:48Z</time>
      </trkpt>
      <trkpt lat="45.72174" lon="3.77818">
        <ele>1326.97</ele>
        <time>2013-07-14T09:50:53Z</time>
      </trkpt>
      <trkpt lat="45.72189" lon="3.7784">
        <ele>1328.18</ele>
        <time>2013-07-14T09:51:08Z</time>
      </trkpt>
      <trkpt lat="45.72203" lon="3.77822">
        <ele>1330.1</ele>
        <time>2013-07-14T09:52:05Z</time>
      </trkpt>
      <trkpt lat="45.72219" lon="3.7781">
        <ele>1331.61</ele>
        <time>2013-07-14T09:52:09Z</time>
      </trkpt>
      <trkpt lat="45.72237" lon="3.77797">
        <ele>1333.93</ele>
        <time>2013-07-14T09:52:13Z</time>
      </trkpt>
      <trkpt lat="45.72257" lon="3.77786">
        <ele>1337.11</ele>
        <time>2013-07-14T09:52:17Z</time>
      </trkpt>
      <trkpt lat="45.72277" lon="3.77777">
        <ele>1338.94</ele>
        <time>2013-07-14T09:52:21Z</time>
      </trkpt>
      <trkpt lat="45.72294" lon="3.77767">
        <ele>1339.63</ele>
        <time>2013-07-14T09:52:25Z</time>
      </trkpt>
      <trkpt lat="45.72311" lon="3.77754">
        <ele>1339.84</ele>
        <time>2013-07-14T09:52:29Z</time>
      </trkpt>
      <trkpt lat="45.7233" lon="3.77739">
        <ele>1339.23</ele>
        <time>2013-07-14T09:52:33Z</time>
      </trkpt>
      <trkpt lat="45.72347" lon="3.77728">
        <ele>1339.03</ele>
        <time>2013-07-14T09:52:37Z</time>
      </trkpt>
      <trkpt lat="45.72368" lon="3.77722">
        <ele>1337.02</ele>
        <time>2013-07-14T09:52:41Z</time>
      </trkpt>
      <trkpt lat="45.72391" lon="3.77715">
        <ele>1333.65</ele>
        <time>2013-07-14T09:52:45Z</time>
      </trkpt>
      <trkpt lat="45.72413" lon="3.77709">
        <ele>1330.43</ele>
        <time>2013-07-14T09:52:49Z</time>
      </trkpt>
      <trkpt lat="45.72433" lon="3.77707">
        <ele>1328.56</ele>
        <time>2013-07-14T09:52:52Z</time>
      </trkpt>
      <trkpt lat="45.72453" lon="3.77702">
        <ele>1326.36</ele>
        <time>2013-07-14T09:52:55Z</time>
      </trkpt>
      <trkpt lat="45.72473" lon="3.777">
        <ele>1322.87</ele>
        <time>2013-07-14T09:52:58Z</time>
      </trkpt>
      <trkpt lat="45.72495" lon="3.77696">
        <ele>1319.91</ele>
        <time>2013-07-14T09:53:01Z</time>
      </trkpt>
      <trkpt lat="45.72513" lon="3.77692">
        <ele>1317.95</ele>
        <time>2013-07-14T09:53:04Z</time>
      </trkpt>
      <trkpt lat="45.72531" lon="3.77689">
        <ele>1316.35</ele>
        <time>2013-07-14T09:53:07Z</time>
      </trkpt>
      <trkpt lat="45.72551" lon="3.77687">
        <ele>1314.96</ele>
        <time>2013-07-14T09:53:10Z</time>
      </trkpt>
      <trkpt lat="45.7257" lon="3.77687">
        <ele>1314.12</ele>
        <time>2013-07-14T09:53:13Z</time>
      </trkpt>
      <trkpt lat="45.72592" lon="3.77689">
        <ele>1312.63</ele>
        <time>2013-07-14T09:53:17Z</time>
      </trkpt>
      <trkpt lat="45.72612" lon="3.77689">
        <ele>1311.22</ele>
        <time>2013-07-14T09:53:20Z</time>
      </trkpt>
      <trkpt lat="45.72634" lon="3.77692">
        <ele>1309.9</ele>
        <time>2013-07-14T09:53:23Z</time>
      </trkpt>
      <trkpt lat="45.72656" lon="3.77694">
        <ele>1308.77</ele>
        <time>2013-07-14T09:53:26Z</time>
      </trkpt>
      <trkpt lat="45.72676" lon="3.77694">
        <ele>1308.54</ele>
        <time>2013-07-14T09:53:29Z</time>
      </trkpt>
      <trkpt lat="45.72696" lon="3.77694">
        <ele>1308.77</ele>
        <time>2013-07-14T09:53:32Z</time>
      </trkpt>
      <trkpt lat="45.72715" lon="3.77694">
        <ele>1308.87</ele>
        <time>2013-07-14T09:53:35Z</time>
      </trkpt>
      <trkpt lat="45.72734" lon="3.77698">
        <ele>1309.49</ele>
        <time>2013-07-14T09:53:38Z</time>
      </trkpt>
      <trkpt lat="45.72753" lon="3.77702">
        <ele>1309.75</ele>
        <time>2013-07-14T09:53:41Z</time>
      </trkpt>
      <trkpt lat="45.72773" lon="3.77709">
        <ele>1309.61</ele>
        <time>2013-07-14T09:53:44Z</time>
      </trkpt>
      <trkpt lat="45.72793" lon="3.77717">
        <ele>1308.21</ele>
        <time>2013-07-14T09:53:47Z</time>
      </trkpt>
      <trkpt lat="45.72813" lon="3.77726">
        <ele>1307.04</ele>
        <time>2013-07-14T09:53:50Z</time>
      </trkpt>
      <trkpt lat="45.72834" lon="3.77741">
        <ele>1305.39</ele>
        <time>2013-07-14T09:53:53Z</time>
      </trkpt>
      <trkpt lat="45.72854" lon="3.77756">
        <ele>1303.98</ele>
        <time>2013-07-14T09:53:56Z</time>
      </trkpt>
      <trkpt lat="45.72872" lon="3.77773">
        <ele>1302.94</ele>
        <time>2013-07-14T09:53:59Z</time>
      </trkpt>
      <trkpt lat="45.72888" lon="3.7779">
        <ele>1301.93</ele>
        <time>2013-07-14T09:54:02Z</time>
      </trkpt>
      <trkpt lat="45.72902" lon="3.77814">
        <ele>1301.36</ele>
        <time>2013-07-14T09:54:05Z</time>
      </trkpt>
      <trkpt lat="45.72917" lon="3.7784">
        <ele>1301.81</ele>
        <time>2013-07-14T09:54:08Z</time>
      </trkpt>
      <trkpt lat="45.72937" lon="3.77859">
        <ele>1302.46</ele>
        <time>2013-07-14T09:54:11Z</time>
      </trkpt>
      <trkpt lat="45.72955" lon="3.77876">
        <ele>1302.49</ele>
        <time>2013-07-14T09:54:14Z</time>
      </trkpt>
      <trkpt lat="45.72974" lon="3.77891">
        <ele>1302.18</ele>
        <time>2013-07-14T09:54:17Z</time>
      </trkpt>
      <trkpt lat="45.72991" lon="3.77902">
        <ele>1301.35</ele>
        <time>2013-07-14T09:54:20Z</time>
      </trkpt>
      <trkpt lat="45.73009" lon="3.77913">
        <ele>1299.27</ele>
        <time>2013-07-14T09:54:23Z</time>
      </trkpt>
      <trkpt lat="45.7303" lon="3.77928">
        <ele>1294.72</ele>
        <time>2013-07-14T09:54:27Z</time>
      </trkpt>
      <trkpt lat="45.73052" lon="3.7794">
        <ele>1289.75</ele>
        <time>2013-07-14T09:54:31Z</time>
      </trkpt>
      <trkpt lat="45.73072" lon="3.77945">
        <ele>1288.13</ele>
        <time>2013-07-14T09:54:34Z</time>
      </trkpt>
      <trkpt lat="45.73091" lon="3.77938">
        <ele>1288.71</ele>
        <time>2013-07-14T09:54:37Z</time>
      </trkpt>
      <trkpt lat="45.7311" lon="3.77919">
        <ele>1290.94</ele>
        <time>2013-07-14T09:54:40Z</time>
      </trkpt>
      <trkpt lat="45.73126" lon="3.77891">
        <ele>1293.94</ele>
        <time>2013-07-14T09:54:43Z</time>
      </trkpt>
      <trkpt lat="45.73138" lon="3.77861">
        <ele>1296.11</ele>
        <time>2013-07-14T09:54:46Z</time>
      </trkpt>
      <trkpt lat="45.7315" lon="3.77831">
        <ele>1297.17</ele>
        <time>2013-07-14T09:54:49Z</time>
      </trkpt>
      <trkpt lat="45.7316" lon="3.77801">
        <ele>1297.62</ele>
        <time>2013-07-14T09:54:52Z</time>
      </trkpt>
      <trkpt lat="45.73171" lon="3.77773">
        <ele>1297.37</ele>
        <time>2013-07-14T09:54:55Z</time>
      </trkpt>
      <trkpt lat="45.73182" lon="3.77749">
        <ele>1297.12</ele>
        <time>2013-07-14T09:54:58Z</time>
      </trkpt>
      <trkpt lat="45.73194" lon="3.77719">
        <ele>1296.75</ele>
        <time>2013-07-14T09:55:02Z</time>
      </trkpt>
      <trkpt lat="45.73207" lon="3.77692">
        <ele>1296.2</ele>
        <time>2013-07-14T09:55:06Z</time>
      </trkpt>
      <trkpt lat="45.73216" lon="3.77668">
        <ele>1295.47</ele>
        <time>2013-07-14T09:55:09Z</time>
      </trkpt>
      <trkpt lat="45.73228" lon="3.77642">
        <ele>1294.59</ele>
        <time>2013-07-14T09:55:12Z</time>
      </trkpt>
      <trkpt lat="45.73239" lon="3.77614">
        <ele>1294.22</ele>
        <time>2013-07-14T09:55:15Z</time>
      </trkpt>
      <trkpt lat="45.73251" lon="3.77589">
        <ele>1294.06</ele>
        <time>2013-07-14T09:55:18Z</time>
      </trkpt>
      <trkpt lat="45.73265" lon="3.77565">
        <ele>1293.74</ele>
        <time>2013-07-14T09:55:21Z</time>
      </trkpt>
      <trkpt lat="45.73279" lon="3.77543">
        <ele>1293.03</ele>
        <time>2013-07-14T09:55:24Z</time>
      </trkpt>
      <trkpt lat="45.73296" lon="3.77522">
        <ele>1292.15</ele>
        <time>2013-07-14T09:55:27Z</time>
      </trkpt>
      <trkpt lat="45.73314" lon="3.77505">
        <ele>1291.45</ele>
        <time>2013-07-14T09:55:30Z</time>
      </trkpt>
      <trkpt lat="45.73334" lon="3.7749">
        <ele>1291.16</ele>
        <time>2013-07-14T09:55:33Z</time>
      </trkpt>
      <trkpt lat="45.73355" lon="3.77481">
        <ele>1291.03</ele>
        <time>2013-07-14T09:55:36Z</time>
      </trkpt>
      <trkpt lat="45.73379" lon="3.77477">
        <ele>1290.98</ele>
        <time>2013-07-14T09:55:39Z</time>
      </trkpt>
      <trkpt lat="45.73397" lon="3.77475">
        <ele>1290.72</ele>
        <time>2013-07-14T09:55:41Z</time>
      </trkpt>
      <trkpt lat="45.73423" lon="3.77475">
        <ele>1289.83</ele>
        <time>2013-07-14T09:55:44Z</time>
      </trkpt>
      <trkpt lat="45.73445" lon="3.77486">
        <ele>1288.49</ele>
        <time>2013-07-14T09:55:47Z</time>
      </trkpt>
      <trkpt lat="45.73466" lon="3.77494">
        <ele>1287.16</ele>
        <time>2013-07-14T09:55:50Z</time>
      </trkpt>
      <trkpt lat="45.73488" lon="3.77505">
        <ele>1285.44</ele>
        <time>2013-07-14T09:55:53Z</time>
      </trkpt>
      <trkpt lat="45.73511" lon="3.77511">
        <ele>1283.75</ele>
        <time>2013-07-14T09:55:56Z</time>
      </trkpt>
      <trkpt lat="45.73537" lon="3.77511">
        <ele>1282.27</ele>
        <time>2013-07-14T09:55:59Z</time>
      </trkpt>
      <trkpt lat="45.73555" lon="3.77509">
        <ele>1281.44</ele>
        <time>2013-07-14T09:56:01Z</time>
      </trkpt>
      <trkpt lat="45.73581" lon="3.77498">
        <ele>1280.57</ele>
        <time>2013-07-14T09:56:04Z</time>
      </trkpt>
      <trkpt lat="45.73599" lon="3.77494">
        <ele>1279.86</ele>
        <time>2013-07-14T09:56:06Z</time>
      </trkpt>
      <trkpt lat="45.73617" lon="3.77488">
        <ele>1279.46</ele>
        <time>2013-07-14T09:56:08Z</time>
      </trkpt>
      <trkpt lat="45.73635" lon="3.77479">
        <ele>1279.23</ele>
        <time>2013-07-14T09:56:10Z</time>
      </trkpt>
      <trkpt lat="45.7366" lon="3.77468">
        <ele>1279.07</ele>
        <time>2013-07-14T09:56:13Z</time>
      </trkpt>
      <trkpt lat="45.73679" lon="3.77464">
        <ele>1279.01</ele>
        <time>2013-07-14T09:56:15Z</time>
      </trkpt>
      <trkpt lat="45.73701" lon="3.77464">
        <ele>1278.98</ele>
        <time>2013-07-14T09:56:17Z</time>
      </trkpt>
      <trkpt lat="45.73723" lon="3.7747">
        <ele>1278.97</ele>
        <time>2013-07-14T09:56:19Z</time>
      </trkpt>
      <trkpt lat="45.73747" lon="3.77475">
        <ele>1278.96</ele>
        <time>2013-07-14T09:56:21Z</time>
      </trkpt>
      <trkpt lat="45.73769" lon="3.77479">
        <ele>1278.7</ele>
        <time>2013-07-14T09:56:23Z</time>
      </trkpt>
      <trkpt lat="45.73791" lon="3.77481">
        <ele>1278.37</ele>
        <time>2013-07-14T09:56:25Z</time>
      </trkpt>
      <trkpt lat="45.73813" lon="3.77481">
        <ele>1277.75</ele>
        <time>2013-07-14T09:56:27Z</time>
      </trkpt>
      <trkpt lat="45.73835" lon="3.77481">
        <ele>1276.96</ele>
        <time>2013-07-14T09:56:29Z</time>
      </trkpt>
      <trkpt lat="45.73859" lon="3.77477">
        <ele>1276.51</ele>
        <time>2013-07-14T09:56:31Z</time>
      </trkpt>
      <trkpt lat="45.73884" lon="3.7747">
        <ele>1276.01</ele>
        <time>2013-07-14T09:56:33Z</time>
      </trkpt>
      <trkpt lat="45.73909" lon="3.77466">
        <ele>1275.55</ele>
        <time>2013-07-14T09:56:35Z</time>
      </trkpt>
      <trkpt lat="45.73931" lon="3.7746">
        <ele>1275.28</ele>
        <time>2013-07-14T09:56:37Z</time>
      </trkpt>
      <trkpt lat="45.73954" lon="3.77451">
        <ele>1274.88</ele>
        <time>2013-07-14T09:56:39Z</time>
      </trkpt>
      <trkpt lat="45.73974" lon="3.77447">
        <ele>1274.47</ele>
        <time>2013-07-14T09:56:41Z</time>
      </trkpt>
      <trkpt lat="45.73992" lon="3.77449">
        <ele>1273.99</ele>
        <time>2013-07-14T09:56:43Z</time>
      </trkpt>
      <trkpt lat="45.74012" lon="3.77462">
        <ele>1273.53</ele>
        <time>2013-07-14T09:56:45Z</time>
      </trkpt>
      <trkpt lat="45.74029" lon="3.77479">
        <ele>1272.84</ele>
        <time>2013-07-14T09:56:47Z</time>
      </trkpt>
      <trkpt lat="45.74049" lon="3.77501">
        <ele>1271.49</ele>
        <time>2013-07-14T09:56:50Z</time>
      </trkpt>
      <trkpt lat="45.74065" lon="3.77522">
        <ele>1269.66</ele>
        <time>2013-07-14T09:56:53Z</time>
      </trkpt>
      <trkpt lat="45.74075" lon="3.77548">
        <ele>1264.98</ele>
        <time>2013-07-14T09:56:56Z</time>
      </trkpt>
      <trkpt lat="45.74083" lon="3.7758">
        <ele>1259.01</ele>
        <time>2013-07-14T09:57:00Z</time>
      </trkpt>
      <trkpt lat="45.74091" lon="3.77606">
        <ele>1255.21</ele>
        <time>2013-07-14T09:57:04Z</time>
      </trkpt>
      <trkpt lat="45.74099" lon="3.77631">
        <ele>1253.08</ele>
        <time>2013-07-14T09:57:08Z</time>
      </trkpt>
      <trkpt lat="45.74107" lon="3.77661">
        <ele>1251.73</ele>
        <time>2013-07-14T09:57:12Z</time>
      </trkpt>
      <trkpt lat="45.74117" lon="3.77689">
        <ele>1251.19</ele>
        <time>2013-07-14T09:57:16Z</time>
      </trkpt>
      <trkpt lat="45.74124" lon="3.77715">
        <ele>1250.91</ele>
        <time>2013-07-14T09:57:19Z</time>
      </trkpt>
      <trkpt lat="45.74132" lon="3.77739">
        <ele>1250.49</ele>
        <time>2013-07-14T09:57:22Z</time>
      </trkpt>
      <trkpt lat="45.74141" lon="3.77764">
        <ele>1251.44</ele>
        <time>2013-07-14T09:57:25Z</time>
      </trkpt>
      <trkpt lat="45.74149" lon="3.77792">
        <ele>1253.58</ele>
        <time>2013-07-14T09:57:28Z</time>
      </trkpt>
      <trkpt lat="45.74158" lon="3.77822">
        <ele>1256.02</ele>
        <time>2013-07-14T09:57:32Z</time>
      </trkpt>
      <trkpt lat="45.74164" lon="3.77848">
        <ele>1257.34</ele>
        <time>2013-07-14T09:57:36Z</time>
      </trkpt>
      <trkpt lat="45.74172" lon="3.77876">
        <ele>1257.75</ele>
        <time>2013-07-14T09:57:40Z</time>
      </trkpt>
      <trkpt lat="45.74178" lon="3.77902">
        <ele>1257.06</ele>
        <time>2013-07-14T09:57:44Z</time>
      </trkpt>
      <trkpt lat="45.74188" lon="3.77928">
        <ele>1255.27</ele>
        <time>2013-07-14T09:57:49Z</time>
      </trkpt>
      <trkpt lat="45.74201" lon="3.77953">
        <ele>1253.68</ele>
        <time>2013-07-14T09:57:54Z</time>
      </trkpt>
      <trkpt lat="45.7422" lon="3.77964">
        <ele>1253.08</ele>
        <time>2013-07-14T09:58:00Z</time>
      </trkpt>
      <trkpt lat="45.74244" lon="3.7797">
        <ele>1252.95</ele>
        <time>2013-07-14T09:58:12Z</time>
      </trkpt>
      <trkpt lat="45.74262" lon="3.77962">
        <ele>1252.69</ele>
        <time>2013-07-14T09:58:28Z</time>
      </trkpt>
      <trkpt lat="45.74269" lon="3.77934">
        <ele>1251.94</ele>
        <time>2013-07-14T09:59:06Z</time>
      </trkpt>
      <trkpt lat="45.74282" lon="3.77915">
        <ele>1251.94</ele>
        <time>2013-07-14T09:59:11Z</time>
      </trkpt>
      <trkpt lat="45.74296" lon="3.77895">
        <ele>1251.69</ele>
        <time>2013-07-14T09:59:18Z</time>
      </trkpt>
      <trkpt lat="45.74292" lon="3.7787">
        <ele>1250.5</ele>
        <time>2013-07-14T09:59:24Z</time>
      </trkpt>
      <trkpt lat="45.74292" lon="3.77835">
        <ele>1249.94</ele>
        <time>2013-07-14T10:00:21Z</time>
      </trkpt>
      <trkpt lat="45.74289" lon="3.77805">
        <ele>1250.52</ele>
        <time>2013-07-14T10:00:24Z</time>
      </trkpt>
      <trkpt lat="45.74285" lon="3.77775">
        <ele>1250.33</ele>
        <time>2013-07-14T10:00:27Z</time>
      </trkpt>
      <trkpt lat="45.74278" lon="3.77749">
        <ele>1249.53</ele>
        <time>2013-07-14T10:00:30Z</time>
      </trkpt>
      <trkpt lat="45.74271" lon="3.77724">
        <ele>1248.61</ele>
        <time>2013-07-14T10:00:33Z</time>
      </trkpt>
      <trkpt lat="45.74265" lon="3.77698">
        <ele>1247.4</ele>
        <time>2013-07-14T10:00:36Z</time>
      </trkpt>
      <trkpt lat="45.74261" lon="3.7767">
        <ele>1246.56</ele>
        <time>2013-07-14T10:00:39Z</time>
      </trkpt>
      <trkpt lat="45.74251" lon="3.77646">
        <ele>1245.37</ele>
        <time>2013-07-14T10:00:42Z</time>
      </trkpt>
      <trkpt lat="45.74247" lon="3.77619">
        <ele>1243.72</ele>
        <time>2013-07-14T10:00:45Z</time>
      </trkpt>
      <trkpt lat="45.74244" lon="3.77586">
        <ele>1241.86</ele>
        <time>2013-07-14T10:00:48Z</time>
      </trkpt>
      <trkpt lat="45.74238" lon="3.77552">
        <ele>1239.74</ele>
        <time>2013-07-14T10:00:51Z</time>
      </trkpt>
      <trkpt lat="45.74231" lon="3.77518">
        <ele>1238.12</ele>
        <time>2013-07-14T10:00:54Z</time>
      </trkpt>
      <trkpt lat="45.74224" lon="3.77492">
        <ele>1237.17</ele>
        <time>2013-07-14T10:00:56Z</time>
      </trkpt>
      <trkpt lat="45.74211" lon="3.7747">
        <ele>1236.63</ele>
        <time>2013-07-14T10:00:58Z</time>
      </trkpt>
      <trkpt lat="45.74198" lon="3.77438">
        <ele>1235.22</ele>
        <time>2013-07-14T10:01:01Z</time>
      </trkpt>
      <trkpt lat="45.74191" lon="3.77402">
        <ele>1233.65</ele>
        <time>2013-07-14T10:01:04Z</time>
      </trkpt>
      <trkpt lat="45.74188" lon="3.77374">
        <ele>1232.66</ele>
        <time>2013-07-14T10:01:06Z</time>
      </trkpt>
      <trkpt lat="45.7418" lon="3.7735">
        <ele>1231.47</ele>
        <time>2013-07-14T10:01:08Z</time>
      </trkpt>
      <trkpt lat="45.74173" lon="3.77327">
        <ele>1230.36</ele>
        <time>2013-07-14T10:01:10Z</time>
      </trkpt>
      <trkpt lat="45.74159" lon="3.77295">
        <ele>1228.72</ele>
        <time>2013-07-14T10:01:13Z</time>
      </trkpt>
      <trkpt lat="45.74148" lon="3.77271">
        <ele>1227</ele>
        <time>2013-07-14T10:01:15Z</time>
      </trkpt>
      <trkpt lat="45.74139" lon="3.77247">
        <ele>1225.23</ele>
        <time>2013-07-14T10:01:17Z</time>
      </trkpt>
      <trkpt lat="45.74126" lon="3.77215">
        <ele>1222.64</ele>
        <time>2013-07-14T10:01:20Z</time>
      </trkpt>
      <trkpt lat="45.74109" lon="3.77187">
        <ele>1220.39</ele>
        <time>2013-07-14T10:01:23Z</time>
      </trkpt>
      <trkpt lat="45.741" lon="3.77159">
        <ele>1218.29</ele>
        <time>2013-07-14T10:01:26Z</time>
      </trkpt>
      <trkpt lat="45.74094" lon="3.77129">
        <ele>1216.25</ele>
        <time>2013-07-14T10:01:29Z</time>
      </trkpt>
      <trkpt lat="45.74098" lon="3.77104">
        <ele>1213.84</ele>
        <time>2013-07-14T10:01:33Z</time>
      </trkpt>
      <trkpt lat="45.74098" lon="3.77074">
        <ele>1210.45</ele>
        <time>2013-07-14T10:01:38Z</time>
      </trkpt>
      <trkpt lat="45.74093" lon="3.77048">
        <ele>1207.91</ele>
        <time>2013-07-14T10:01:42Z</time>
      </trkpt>
      <trkpt lat="45.74092" lon="3.7702">
        <ele>1205.26</ele>
        <time>2013-07-14T10:02:03Z</time>
      </trkpt>
      <trkpt lat="45.74106" lon="3.77001">
        <ele>1203.54</ele>
        <time>2013-07-14T10:02:10Z</time>
      </trkpt>
      <trkpt lat="45.74122" lon="3.76981">
        <ele>1200.99</ele>
        <time>2013-07-14T10:02:21Z</time>
      </trkpt>
      <trkpt lat="45.74139" lon="3.76966">
        <ele>1193.29</ele>
        <time>2013-07-14T10:03:57Z</time>
      </trkpt>
      <trkpt lat="45.74152" lon="3.76932">
        <ele>1189.95</ele>
        <time>2013-07-14T10:04:05Z</time>
      </trkpt>
      <trkpt lat="45.74165" lon="3.76913">
        <ele>1185.79</ele>
        <time>2013-07-14T10:04:14Z</time>
      </trkpt>
      <trkpt lat="45.74183" lon="3.76919">
        <ele>1181.95</ele>
        <time>2013-07-14T10:05:07Z</time>
      </trkpt>
      <trkpt lat="45.742" lon="3.76906">
        <ele>1179.96</ele>
        <time>2013-07-14T10:05:33Z</time>
      </trkpt>
      <trkpt lat="45.74215" lon="3.76889">
        <ele>1177.03</ele>
        <time>2013-07-14T10:05:47Z</time>
      </trkpt>
      <trkpt lat="45.74225" lon="3.76863">
        <ele>1174.89</ele>
        <time>2013-07-14T10:05:54Z</time>
      </trkpt>
      <trkpt lat="45.74229" lon="3.76837">
        <ele>1172.24</ele>
        <time>2013-07-14T10:06:02Z</time>
      </trkpt>
      <trkpt lat="45.74232" lon="3.76812">
        <ele>1168.92</ele>
        <time>2013-07-14T10:06:12Z</time>
      </trkpt>
      <trkpt lat="45.74238" lon="3.76786">
        <ele>1164.86</ele>
        <time>2013-07-14T10:06:26Z</time>
      </trkpt>
      <trkpt lat="45.74244" lon="3.7676">
        <ele>1159</ele>
        <time>2013-07-14T10:06:46Z</time>
      </trkpt>
      <trkpt lat="45.7425" lon="3.76732">
        <ele>1156.48</ele>
        <time>2013-07-14T10:06:52Z</time>
      </trkpt>
      <trkpt lat="45.7426" lon="3.76709">
        <ele>1154.28</ele>
        <time>2013-07-14T10:06:58Z</time>
      </trkpt>
      <trkpt lat="45.74268" lon="3.76685">
        <ele>1150.64</ele>
        <time>2013-07-14T10:07:10Z</time>
      </trkpt>
      <trkpt lat="45.74333" lon="3.76664">
        <ele>1145.36</ele>
        <time>2013-07-14T10:07:43Z</time>
      </trkpt>
      <trkpt lat="45.74323" lon="3.76687">
        <ele>1143.58</ele>
        <time>2013-07-14T10:07:52Z</time>
      </trkpt>
      <trkpt lat="45.74341" lon="3.76677">
        <ele>1134.75</ele>
        <time>2013-07-14T10:08:13Z</time>
      </trkpt>
      <trkpt lat="45.74364" lon="3.76662">
        <ele>1127.92</ele>
        <time>2013-07-14T10:08:17Z</time>
      </trkpt>
      <trkpt lat="45.7438" lon="3.7664">
        <ele>1123.2</ele>
        <time>2013-07-14T10:08:20Z</time>
      </trkpt>
      <trkpt lat="45.74391" lon="3.7661">
        <ele>1120.3</ele>
        <time>2013-07-14T10:08:23Z</time>
      </trkpt>
      <trkpt lat="45.744" lon="3.76582">
        <ele>1119.13</ele>
        <time>2013-07-14T10:08:26Z</time>
      </trkpt>
      <trkpt lat="45.74415" lon="3.76556">
        <ele>1118.32</ele>
        <time>2013-07-14T10:08:30Z</time>
      </trkpt>
      <trkpt lat="45.74435" lon="3.76541">
        <ele>1118.06</ele>
        <time>2013-07-14T10:08:34Z</time>
      </trkpt>
      <trkpt lat="45.74454" lon="3.76535">
        <ele>1116.97</ele>
        <time>2013-07-14T10:08:38Z</time>
      </trkpt>
      <trkpt lat="45.74474" lon="3.76533">
        <ele>1115.44</ele>
        <time>2013-07-14T10:08:42Z</time>
      </trkpt>
      <trkpt lat="45.74492" lon="3.76531">
        <ele>1113.98</ele>
        <time>2013-07-14T10:08:46Z</time>
      </trkpt>
      <trkpt lat="45.74515" lon="3.76522">
        <ele>1113.02</ele>
        <time>2013-07-14T10:08:50Z</time>
      </trkpt>
      <trkpt lat="45.74534" lon="3.76518">
        <ele>1111.96</ele>
        <time>2013-07-14T10:08:53Z</time>
      </trkpt>
      <trkpt lat="45.74555" lon="3.76513">
        <ele>1110.94</ele>
        <time>2013-07-14T10:08:56Z</time>
      </trkpt>
      <trkpt lat="45.74572" lon="3.76494">
        <ele>1109.92</ele>
        <time>2013-07-14T10:08:59Z</time>
      </trkpt>
      <trkpt lat="45.74579" lon="3.76466">
        <ele>1108.92</ele>
        <time>2013-07-14T10:09:02Z</time>
      </trkpt>
      <trkpt lat="45.74587" lon="3.76434">
        <ele>1107.92</ele>
        <time>2013-07-14T10:09:05Z</time>
      </trkpt>
      <trkpt lat="45.74587" lon="3.76398">
        <ele>1106.37</ele>
        <time>2013-07-14T10:09:07Z</time>
      </trkpt>
      <trkpt lat="45.74588" lon="3.76365">
        <ele>1104.18</ele>
        <time>2013-07-14T10:09:09Z</time>
      </trkpt>
      <trkpt lat="45.74592" lon="3.76338">
        <ele>1101.64</ele>
        <time>2013-07-14T10:09:11Z</time>
      </trkpt>
      <trkpt lat="45.74603" lon="3.7631">
        <ele>1098.49</ele>
        <time>2013-07-14T10:09:14Z</time>
      </trkpt>
      <trkpt lat="45.7462" lon="3.76295">
        <ele>1092.96</ele>
        <time>2013-07-14T10:09:18Z</time>
      </trkpt>
      <trkpt lat="45.74642" lon="3.76299">
        <ele>1086.75</ele>
        <time>2013-07-14T10:09:22Z</time>
      </trkpt>
      <trkpt lat="45.74664" lon="3.76301">
        <ele>1081</ele>
        <time>2013-07-14T10:09:25Z</time>
      </trkpt>
      <trkpt lat="45.74687" lon="3.76295">
        <ele>1076.98</ele>
        <time>2013-07-14T10:09:27Z</time>
      </trkpt>
      <trkpt lat="45.74733" lon="3.76271">
        <ele>1072.96</ele>
        <time>2013-07-14T10:09:30Z</time>
      </trkpt>
      <trkpt lat="45.74777" lon="3.76267">
        <ele>1070.64</ele>
        <time>2013-07-14T10:09:32Z</time>
      </trkpt>
      <trkpt lat="45.74811" lon="3.76277">
        <ele>1070.47</ele>
        <time>2013-07-14T10:09:33Z</time>
      </trkpt>
      <trkpt lat="45.74828" lon="3.76292">
        <ele>1068.43</ele>
        <time>2013-07-14T10:09:35Z</time>
      </trkpt>
      <trkpt lat="45.74848" lon="3.76299">
        <ele>1066.27</ele>
        <time>2013-07-14T10:09:38Z</time>
      </trkpt>
      <trkpt lat="45.74867" lon="3.76299">
        <ele>1071.25</ele>
        <time>2013-07-14T10:09:44Z</time>
      </trkpt>
      <trkpt lat="45.74881" lon="3.76271">
        <ele>1073.82</ele>
        <time>2013-07-14T10:09:49Z</time>
      </trkpt>
      <trkpt lat="45.749" lon="3.7625">
        <ele>1071.94</ele>
        <time>2013-07-14T10:09:52Z</time>
      </trkpt>
      <trkpt lat="45.74917" lon="3.76237">
        <ele>1069.5</ele>
        <time>2013-07-14T10:09:54Z</time>
      </trkpt>
      <trkpt lat="45.74936" lon="3.76226">
        <ele>1066.57</ele>
        <time>2013-07-14T10:09:56Z</time>
      </trkpt>
      <trkpt lat="45.74955" lon="3.76213">
        <ele>1063.42</ele>
        <time>2013-07-14T10:09:58Z</time>
      </trkpt>
      <trkpt lat="45.74973" lon="3.762">
        <ele>1060.78</ele>
        <time>2013-07-14T10:10:00Z</time>
      </trkpt>
      <trkpt lat="45.74991" lon="3.76183">
        <ele>1058.41</ele>
        <time>2013-07-14T10:10:02Z</time>
      </trkpt>
      <trkpt lat="45.75007" lon="3.76162">
        <ele>1056.46</ele>
        <time>2013-07-14T10:10:04Z</time>
      </trkpt>
      <trkpt lat="45.75024" lon="3.76138">
        <ele>1054.23</ele>
        <time>2013-07-14T10:10:06Z</time>
      </trkpt>
      <trkpt lat="45.75039" lon="3.76112">
        <ele>1051.67</ele>
        <time>2013-07-14T10:10:08Z</time>
      </trkpt>
      <trkpt lat="45.75051" lon="3.76082">
        <ele>1048.66</ele>
        <time>2013-07-14T10:10:10Z</time>
      </trkpt>
      <trkpt lat="45.75062" lon="3.76052">
        <ele>1045.66</ele>
        <time>2013-07-14T10:10:12Z</time>
      </trkpt>
      <trkpt lat="45.75072" lon="3.76022">
        <ele>1043.16</ele>
        <time>2013-07-14T10:10:14Z</time>
      </trkpt>
      <trkpt lat="45.75079" lon="3.75998">
        <ele>1041.07</ele>
        <time>2013-07-14T10:10:16Z</time>
      </trkpt>
      <trkpt lat="45.75091" lon="3.75971">
        <ele>1039.01</ele>
        <time>2013-07-14T10:10:19Z</time>
      </trkpt>
      <trkpt lat="45.75106" lon="3.75949">
        <ele>1036.48</ele>
        <time>2013-07-14T10:10:23Z</time>
      </trkpt>
      <trkpt lat="45.7512" lon="3.75932">
        <ele>1034.3</ele>
        <time>2013-07-14T10:10:28Z</time>
      </trkpt>
      <trkpt lat="45.75137" lon="3.75921">
        <ele>1033.18</ele>
        <time>2013-07-14T10:10:34Z</time>
      </trkpt>
      <trkpt lat="45.75145" lon="3.75893">
        <ele>1032.07</ele>
        <time>2013-07-14T10:10:42Z</time>
      </trkpt>
      <trkpt lat="45.75152" lon="3.75863">
        <ele>1031.2</ele>
        <time>2013-07-14T10:10:48Z</time>
      </trkpt>
      <trkpt lat="45.75161" lon="3.75838">
        <ele>1031.01</ele>
        <time>2013-07-14T10:10:53Z</time>
      </trkpt>
      <trkpt lat="45.75172" lon="3.7581">
        <ele>1030.53</ele>
        <time>2013-07-14T10:10:58Z</time>
      </trkpt>
      <trkpt lat="45.75187" lon="3.75788">
        <ele>1030.84</ele>
        <time>2013-07-14T10:11:03Z</time>
      </trkpt>
      <trkpt lat="45.75202" lon="3.75771">
        <ele>1030.92</ele>
        <time>2013-07-14T10:11:08Z</time>
      </trkpt>
      <trkpt lat="45.75217" lon="3.75754">
        <ele>1030.94</ele>
        <time>2013-07-14T10:11:13Z</time>
      </trkpt>
      <trkpt lat="45.75233" lon="3.75739">
        <ele>1030.94</ele>
        <time>2013-07-14T10:11:19Z</time>
      </trkpt>
      <trkpt lat="45.75251" lon="3.75724">
        <ele>1030.94</ele>
        <time>2013-07-14T10:11:25Z</time>
      </trkpt>
      <trkpt lat="45.75267" lon="3.75709">
        <ele>1030.94</ele>
        <time>2013-07-14T10:11:30Z</time>
      </trkpt>
      <trkpt lat="45.75281" lon="3.7569">
        <ele>1030.94</ele>
        <time>2013-07-14T10:11:35Z</time>
      </trkpt>
      <trkpt lat="45.75295" lon="3.75666">
        <ele>1030.94</ele>
        <time>2013-07-14T10:11:41Z</time>
      </trkpt>
      <trkpt lat="45.75308" lon="3.75644">
        <ele>1030.94</ele>
        <time>2013-07-14T10:11:47Z</time>
      </trkpt>
      <trkpt lat="45.75325" lon="3.75632">
        <ele>1031.38</ele>
        <time>2013-07-14T10:11:53Z</time>
      </trkpt>
      <trkpt lat="45.75342" lon="3.75619">
        <ele>1031.84</ele>
        <time>2013-07-14T10:11:59Z</time>
      </trkpt>
      <trkpt lat="45.75349" lon="3.75593">
        <ele>1032.36</ele>
        <time>2013-07-14T10:12:05Z</time>
      </trkpt>
      <trkpt lat="45.75348" lon="3.75567">
        <ele>1032.84</ele>
        <time>2013-07-14T10:12:11Z</time>
      </trkpt>
      <trkpt lat="45.75342" lon="3.75541">
        <ele>1033.36</ele>
        <time>2013-07-14T10:12:17Z</time>
      </trkpt>
      <trkpt lat="45.75336" lon="3.75514">
        <ele>1033.87</ele>
        <time>2013-07-14T10:12:24Z</time>
      </trkpt>
      <trkpt lat="45.75352" lon="3.7549">
        <ele>1034.81</ele>
        <time>2013-07-14T10:12:40Z</time>
      </trkpt>
      <trkpt lat="45.75366" lon="3.75471">
        <ele>1035.62</ele>
        <time>2013-07-14T10:12:51Z</time>
      </trkpt>
      <trkpt lat="45.7537" lon="3.75441">
        <ele>1038.3</ele>
        <time>2013-07-14T10:13:05Z</time>
      </trkpt>
      <trkpt lat="45.75372" lon="3.75413">
        <ele>1041.04</ele>
        <time>2013-07-14T10:13:13Z</time>
      </trkpt>
      <trkpt lat="45.75382" lon="3.75385">
        <ele>1043.32</ele>
        <time>2013-07-14T10:13:23Z</time>
      </trkpt>
      <trkpt lat="45.75392" lon="3.75355">
        <ele>1046.98</ele>
        <time>2013-07-14T10:13:37Z</time>
      </trkpt>
      <trkpt lat="45.75405" lon="3.75338">
        <ele>1056.49</ele>
        <time>2013-07-14T10:14:15Z</time>
      </trkpt>
      <trkpt lat="45.75432" lon="3.75316">
        <ele>1061.02</ele>
        <time>2013-07-14T10:14:18Z</time>
      </trkpt>
      <trkpt lat="45.75401" lon="3.75363">
        <ele>1066.08</ele>
        <time>2013-07-14T10:14:22Z</time>
      </trkpt>
      <trkpt lat="45.7542" lon="3.75368">
        <ele>1070.94</ele>
        <time>2013-07-14T10:15:27Z</time>
      </trkpt>
      <trkpt lat="45.75432" lon="3.75389">
        <ele>1073.66</ele>
        <time>2013-07-14T10:15:33Z</time>
      </trkpt>
      <trkpt lat="45.75446" lon="3.75411">
        <ele>1074.72</ele>
        <time>2013-07-14T10:15:39Z</time>
      </trkpt>
      <trkpt lat="45.75461" lon="3.7543">
        <ele>1075.67</ele>
        <time>2013-07-14T10:15:45Z</time>
      </trkpt>
      <trkpt lat="45.7548" lon="3.75438">
        <ele>1075.92</ele>
        <time>2013-07-14T10:15:53Z</time>
      </trkpt>
      <trkpt lat="45.755" lon="3.75443">
        <ele>1075.94</ele>
        <time>2013-07-14T10:16:00Z</time>
      </trkpt>
      <trkpt lat="45.75518" lon="3.75443">
        <ele>1075.94</ele>
        <time>2013-07-14T10:16:06Z</time>
      </trkpt>
      <trkpt lat="45.7554" lon="3.75451">
        <ele>1075.04</ele>
        <time>2013-07-14T10:16:17Z</time>
      </trkpt>
      <trkpt lat="45.75539" lon="3.75486">
        <ele>1073.34</ele>
        <time>2013-07-14T10:16:36Z</time>
      </trkpt>
      <trkpt lat="45.75535" lon="3.75511">
        <ele>1073.01</ele>
        <time>2013-07-14T10:16:42Z</time>
      </trkpt>
      <trkpt lat="45.75536" lon="3.75537">
        <ele>1072.13</ele>
        <time>2013-07-14T10:16:49Z</time>
      </trkpt>
      <trkpt lat="45.75535" lon="3.75563">
        <ele>1071.98</ele>
        <time>2013-07-14T10:16:55Z</time>
      </trkpt>
      <trkpt lat="45.75536" lon="3.75591">
        <ele>1071.95</ele>
        <time>2013-07-14T10:17:02Z</time>
      </trkpt>
      <trkpt lat="45.75539" lon="3.75621">
        <ele>1071.04</ele>
        <time>2013-07-14T10:17:11Z</time>
      </trkpt>
      <trkpt lat="45.75563" lon="3.75784">
        <ele>1069.94</ele>
        <time>2013-07-14T11:09:59Z</time>
      </trkpt>
      <trkpt lat="45.75545" lon="3.75777">
        <ele>1087.96</ele>
        <time>2013-07-14T11:10:21Z</time>
      </trkpt>
      <trkpt lat="45.75536" lon="3.75752">
        <ele>1091.53</ele>
        <time>2013-07-14T11:10:24Z</time>
      </trkpt>
      <trkpt lat="45.75533" lon="3.75726">
        <ele>1093.5</ele>
        <time>2013-07-14T11:10:27Z</time>
      </trkpt>
      <trkpt lat="45.75529" lon="3.75698">
        <ele>1093.32</ele>
        <time>2013-07-14T11:10:30Z</time>
      </trkpt>
      <trkpt lat="45.75525" lon="3.75668">
        <ele>1092.52</ele>
        <time>2013-07-14T11:10:33Z</time>
      </trkpt>
      <trkpt lat="45.7552" lon="3.75636">
        <ele>1091.94</ele>
        <time>2013-07-14T11:10:36Z</time>
      </trkpt>
      <trkpt lat="45.75516" lon="3.75608">
        <ele>1091.11</ele>
        <time>2013-07-14T11:10:39Z</time>
      </trkpt>
      <trkpt lat="45.75512" lon="3.75582">
        <ele>1090.44</ele>
        <time>2013-07-14T11:10:42Z</time>
      </trkpt>
      <trkpt lat="45.75508" lon="3.7555">
        <ele>1090.15</ele>
        <time>2013-07-14T11:10:45Z</time>
      </trkpt>
      <trkpt lat="45.75504" lon="3.75518">
        <ele>1089.78</ele>
        <time>2013-07-14T11:10:48Z</time>
      </trkpt>
      <trkpt lat="45.75492" lon="3.75488">
        <ele>1088.28</ele>
        <time>2013-07-14T11:10:51Z</time>
      </trkpt>
      <trkpt lat="45.75473" lon="3.75466">
        <ele>1086.49</ele>
        <time>2013-07-14T11:10:54Z</time>
      </trkpt>
      <trkpt lat="45.75451" lon="3.75449">
        <ele>1085.16</ele>
        <time>2013-07-14T11:10:57Z</time>
      </trkpt>
      <trkpt lat="45.75428" lon="3.75438">
        <ele>1084.21</ele>
        <time>2013-07-14T11:11:00Z</time>
      </trkpt>
      <trkpt lat="45.75408" lon="3.75436">
        <ele>1083.23</ele>
        <time>2013-07-14T11:11:03Z</time>
      </trkpt>
      <trkpt lat="45.7539" lon="3.75428">
        <ele>1081.52</ele>
        <time>2013-07-14T11:11:07Z</time>
      </trkpt>
      <trkpt lat="45.75384" lon="3.75402">
        <ele>1078.22</ele>
        <time>2013-07-14T11:11:14Z</time>
      </trkpt>
      <trkpt lat="45.75384" lon="3.75374">
        <ele>1075.91</ele>
        <time>2013-07-14T11:11:21Z</time>
      </trkpt>
      <trkpt lat="45.75384" lon="3.75348">
        <ele>1074.6</ele>
        <time>2013-07-14T11:11:26Z</time>
      </trkpt>
      <trkpt lat="45.75385" lon="3.75323">
        <ele>1073.09</ele>
        <time>2013-07-14T11:11:31Z</time>
      </trkpt>
      <trkpt lat="45.75387" lon="3.75295">
        <ele>1071.57</ele>
        <time>2013-07-14T11:11:37Z</time>
      </trkpt>
      <trkpt lat="45.7539" lon="3.75265">
        <ele>1070.51</ele>
        <time>2013-07-14T11:11:42Z</time>
      </trkpt>
      <trkpt lat="45.75395" lon="3.75237">
        <ele>1069.5</ele>
        <time>2013-07-14T11:11:47Z</time>
      </trkpt>
      <trkpt lat="45.75399" lon="3.75209">
        <ele>1068.5</ele>
        <time>2013-07-14T11:11:52Z</time>
      </trkpt>
      <trkpt lat="45.75403" lon="3.75181">
        <ele>1067.39</ele>
        <time>2013-07-14T11:11:57Z</time>
      </trkpt>
      <trkpt lat="45.75409" lon="3.75153">
        <ele>1066.37</ele>
        <time>2013-07-14T11:12:02Z</time>
      </trkpt>
      <trkpt lat="45.75416" lon="3.75129">
        <ele>1065.03</ele>
        <time>2013-07-14T11:12:07Z</time>
      </trkpt>
      <trkpt lat="45.75425" lon="3.75106">
        <ele>1063.37</ele>
        <time>2013-07-14T11:12:12Z</time>
      </trkpt>
      <trkpt lat="45.75438" lon="3.75082">
        <ele>1061.35</ele>
        <time>2013-07-14T11:12:17Z</time>
      </trkpt>
      <trkpt lat="45.75453" lon="3.75063">
        <ele>1059.45</ele>
        <time>2013-07-14T11:12:22Z</time>
      </trkpt>
      <trkpt lat="45.7547" lon="3.75046">
        <ele>1057.28</ele>
        <time>2013-07-14T11:12:28Z</time>
      </trkpt>
      <trkpt lat="45.75486" lon="3.75026">
        <ele>1055.5</ele>
        <time>2013-07-14T11:12:34Z</time>
      </trkpt>
      <trkpt lat="45.75503" lon="3.75011">
        <ele>1054.06</ele>
        <time>2013-07-14T11:12:39Z</time>
      </trkpt>
      <trkpt lat="45.75518" lon="3.74996">
        <ele>1052.96</ele>
        <time>2013-07-14T11:12:44Z</time>
      </trkpt>
      <trkpt lat="45.7553" lon="3.74969">
        <ele>1051.99</ele>
        <time>2013-07-14T11:12:55Z</time>
      </trkpt>
      <trkpt lat="45.75535" lon="3.74941">
        <ele>1053.93</ele>
        <time>2013-07-14T11:13:08Z</time>
      </trkpt>
      <trkpt lat="45.75542" lon="3.74915">
        <ele>1055.69</ele>
        <time>2013-07-14T11:13:36Z</time>
      </trkpt>
      <trkpt lat="45.75554" lon="3.74893">
        <ele>1059.55</ele>
        <time>2013-07-14T11:13:45Z</time>
      </trkpt>
      <trkpt lat="45.7556" lon="3.74868">
        <ele>1064.31</ele>
        <time>2013-07-14T11:14:13Z</time>
      </trkpt>
      <trkpt lat="45.75567" lon="3.74842">
        <ele>1068.93</ele>
        <time>2013-07-14T11:14:23Z</time>
      </trkpt>
      <trkpt lat="45.75575" lon="3.74816">
        <ele>1074.03</ele>
        <time>2013-07-14T11:14:32Z</time>
      </trkpt>
      <trkpt lat="45.7558" lon="3.74788">
        <ele>1078.04</ele>
        <time>2013-07-14T11:14:41Z</time>
      </trkpt>
      <trkpt lat="45.75586" lon="3.74763">
        <ele>1080.69</ele>
        <time>2013-07-14T11:14:49Z</time>
      </trkpt>
      <trkpt lat="45.75594" lon="3.74737">
        <ele>1083.18</ele>
        <time>2013-07-14T11:14:59Z</time>
      </trkpt>
      <trkpt lat="45.75608" lon="3.7472">
        <ele>1085.23</ele>
        <time>2013-07-14T11:15:12Z</time>
      </trkpt>
      <trkpt lat="45.75622" lon="3.74702">
        <ele>1087.68</ele>
        <time>2013-07-14T11:15:28Z</time>
      </trkpt>
      <trkpt lat="45.75635" lon="3.74683">
        <ele>1091.14</ele>
        <time>2013-07-14T11:15:51Z</time>
      </trkpt>
      <trkpt lat="45.75646" lon="3.74662">
        <ele>1095.22</ele>
        <time>2013-07-14T11:16:14Z</time>
      </trkpt>
      <trkpt lat="45.75653" lon="3.74638">
        <ele>1097.96</ele>
        <time>2013-07-14T11:16:27Z</time>
      </trkpt>
      <trkpt lat="45.7566" lon="3.74612">
        <ele>1101.69</ele>
        <time>2013-07-14T11:16:45Z</time>
      </trkpt>
      <trkpt lat="45.75666" lon="3.74587">
        <ele>1104.75</ele>
        <time>2013-07-14T11:16:58Z</time>
      </trkpt>
      <trkpt lat="45.75674" lon="3.74563">
        <ele>1110.05</ele>
        <time>2013-07-14T11:17:19Z</time>
      </trkpt>
      <trkpt lat="45.75676" lon="3.74537">
        <ele>1113.33</ele>
        <time>2013-07-14T11:17:32Z</time>
      </trkpt>
      <trkpt lat="45.75673" lon="3.74511">
        <ele>1115.62</ele>
        <time>2013-07-14T11:17:42Z</time>
      </trkpt>
      <trkpt lat="45.75669" lon="3.74486">
        <ele>1117.45</ele>
        <time>2013-07-14T11:17:53Z</time>
      </trkpt>
      <trkpt lat="45.75663" lon="3.74458">
        <ele>1119.43</ele>
        <time>2013-07-14T11:18:04Z</time>
      </trkpt>
      <trkpt lat="45.75654" lon="3.74432">
        <ele>1120.65</ele>
        <time>2013-07-14T11:18:12Z</time>
      </trkpt>
      <trkpt lat="45.75646" lon="3.74408">
        <ele>1121.58</ele>
        <time>2013-07-14T11:18:18Z</time>
      </trkpt>
      <trkpt lat="45.75639" lon="3.74381">
        <ele>1122.47</ele>
        <time>2013-07-14T11:18:25Z</time>
      </trkpt>
      <trkpt lat="45.75637" lon="3.74353">
        <ele>1123.13</ele>
        <time>2013-07-14T11:18:32Z</time>
      </trkpt>
      <trkpt lat="45.75633" lon="3.74327">
        <ele>1123.84</ele>
        <time>2013-07-14T11:18:39Z</time>
      </trkpt>
      <trkpt lat="45.75624" lon="3.74303">
        <ele>1124.75</ele>
        <time>2013-07-14T11:18:46Z</time>
      </trkpt>
      <trkpt lat="45.75617" lon="3.74278">
        <ele>1125.6</ele>
        <time>2013-07-14T11:18:53Z</time>
      </trkpt>
      <trkpt lat="45.75608" lon="3.74252">
        <ele>1126.59</ele>
        <time>2013-07-14T11:19:01Z</time>
      </trkpt>
      <trkpt lat="45.756" lon="3.74228">
        <ele>1127.17</ele>
        <time>2013-07-14T11:19:10Z</time>
      </trkpt>
      <trkpt lat="45.75589" lon="3.74207">
        <ele>1127.89</ele>
        <time>2013-07-14T11:19:19Z</time>
      </trkpt>
      <trkpt lat="45.75577" lon="3.74185">
        <ele>1127.94</ele>
        <time>2013-07-14T11:19:29Z</time>
      </trkpt>
      <trkpt lat="45.75565" lon="3.74164">
        <ele>1128.84</ele>
        <time>2013-07-14T11:19:38Z</time>
      </trkpt>
      <trkpt lat="45.75554" lon="3.7414">
        <ele>1128.94</ele>
        <time>2013-07-14T11:19:48Z</time>
      </trkpt>
      <trkpt lat="45.75542" lon="3.74119">
        <ele>1128.94</ele>
        <time>2013-07-14T11:19:58Z</time>
      </trkpt>
      <trkpt lat="45.75531" lon="3.74095">
        <ele>1129.87</ele>
        <time>2013-07-14T11:20:08Z</time>
      </trkpt>
      <trkpt lat="45.7552" lon="3.74072">
        <ele>1130.7</ele>
        <time>2013-07-14T11:20:17Z</time>
      </trkpt>
      <trkpt lat="45.75511" lon="3.74048">
        <ele>1132.36</ele>
        <time>2013-07-14T11:20:25Z</time>
      </trkpt>
      <trkpt lat="45.75505" lon="3.7402">
        <ele>1134.33</ele>
        <time>2013-07-14T11:20:33Z</time>
      </trkpt>
      <trkpt lat="45.75501" lon="3.73994">
        <ele>1136.43</ele>
        <time>2013-07-14T11:20:41Z</time>
      </trkpt>
      <trkpt lat="45.75497" lon="3.73969">
        <ele>1138.5</ele>
        <time>2013-07-14T11:20:47Z</time>
      </trkpt>
      <trkpt lat="45.75498" lon="3.73943">
        <ele>1140.18</ele>
        <time>2013-07-14T11:20:52Z</time>
      </trkpt>
      <trkpt lat="45.75503" lon="3.73917">
        <ele>1142.07</ele>
        <time>2013-07-14T11:20:58Z</time>
      </trkpt>
      <trkpt lat="45.75515" lon="3.73896">
        <ele>1143.1</ele>
        <time>2013-07-14T11:21:02Z</time>
      </trkpt>
      <trkpt lat="45.7553" lon="3.73878">
        <ele>1144.73</ele>
        <time>2013-07-14T11:21:08Z</time>
      </trkpt>
      <trkpt lat="45.75546" lon="3.73857">
        <ele>1146.81</ele>
        <time>2013-07-14T11:21:14Z</time>
      </trkpt>
      <trkpt lat="45.75563" lon="3.7384">
        <ele>1152.05</ele>
        <time>2013-07-14T11:21:19Z</time>
      </trkpt>
      <trkpt lat="45.7558" lon="3.73818">
        <ele>1155.6</ele>
        <time>2013-07-14T11:21:24Z</time>
      </trkpt>
      <trkpt lat="45.75595" lon="3.73801">
        <ele>1155.58</ele>
        <time>2013-07-14T11:21:28Z</time>
      </trkpt>
      <trkpt lat="45.75611" lon="3.73782">
        <ele>1154.71</ele>
        <time>2013-07-14T11:21:32Z</time>
      </trkpt>
      <trkpt lat="45.7563" lon="3.73763">
        <ele>1153.75</ele>
        <time>2013-07-14T11:21:36Z</time>
      </trkpt>
      <trkpt lat="45.75645" lon="3.73748">
        <ele>1153.28</ele>
        <time>2013-07-14T11:21:39Z</time>
      </trkpt>
      <trkpt lat="45.75664" lon="3.73726">
        <ele>1153.05</ele>
        <time>2013-07-14T11:21:43Z</time>
      </trkpt>
      <trkpt lat="45.75683" lon="3.73709">
        <ele>1152.54</ele>
        <time>2013-07-14T11:21:47Z</time>
      </trkpt>
      <trkpt lat="45.75703" lon="3.73694">
        <ele>1152.13</ele>
        <time>2013-07-14T11:21:51Z</time>
      </trkpt>
      <trkpt lat="45.7572" lon="3.73681">
        <ele>1152</ele>
        <time>2013-07-14T11:21:55Z</time>
      </trkpt>
      <trkpt lat="45.75739" lon="3.73668">
        <ele>1151.2</ele>
        <time>2013-07-14T11:22:00Z</time>
      </trkpt>
      <trkpt lat="45.75756" lon="3.73653">
        <ele>1150.75</ele>
        <time>2013-07-14T11:22:05Z</time>
      </trkpt>
      <trkpt lat="45.75776" lon="3.7364">
        <ele>1150.14</ele>
        <time>2013-07-14T11:22:10Z</time>
      </trkpt>
      <trkpt lat="45.75794" lon="3.73625">
        <ele>1149.41</ele>
        <time>2013-07-14T11:22:15Z</time>
      </trkpt>
      <trkpt lat="45.7581" lon="3.7361">
        <ele>1149.09</ele>
        <time>2013-07-14T11:22:19Z</time>
      </trkpt>
      <trkpt lat="45.75825" lon="3.73595">
        <ele>1148.64</ele>
        <time>2013-07-14T11:22:23Z</time>
      </trkpt>
      <trkpt lat="45.75841" lon="3.73578">
        <ele>1148.85</ele>
        <time>2013-07-14T11:22:27Z</time>
      </trkpt>
      <trkpt lat="45.75858" lon="3.73561">
        <ele>1148.48</ele>
        <time>2013-07-14T11:22:31Z</time>
      </trkpt>
      <trkpt lat="45.75875" lon="3.73539">
        <ele>1147.67</ele>
        <time>2013-07-14T11:22:35Z</time>
      </trkpt>
      <trkpt lat="45.75894" lon="3.7352">
        <ele>1146.74</ele>
        <time>2013-07-14T11:22:39Z</time>
      </trkpt>
      <trkpt lat="45.75911" lon="3.73503">
        <ele>1146.2</ele>
        <time>2013-07-14T11:22:43Z</time>
      </trkpt>
      <trkpt lat="45.75926" lon="3.73488">
        <ele>1145.59</ele>
        <time>2013-07-14T11:22:47Z</time>
      </trkpt>
      <trkpt lat="45.75942" lon="3.73475">
        <ele>1144.85</ele>
        <time>2013-07-14T11:22:52Z</time>
      </trkpt>
      <trkpt lat="45.75962" lon="3.73471">
        <ele>1142.57</ele>
        <time>2013-07-14T11:22:57Z</time>
      </trkpt>
      <trkpt lat="45.75983" lon="3.73475">
        <ele>1142.04</ele>
        <time>2013-07-14T11:23:01Z</time>
      </trkpt>
      <trkpt lat="45.76002" lon="3.73482">
        <ele>1142.55</ele>
        <time>2013-07-14T11:23:05Z</time>
      </trkpt>
      <trkpt lat="45.76021" lon="3.73488">
        <ele>1142.82</ele>
        <time>2013-07-14T11:23:09Z</time>
      </trkpt>
      <trkpt lat="45.76041" lon="3.73494">
        <ele>1142.9</ele>
        <time>2013-07-14T11:23:13Z</time>
      </trkpt>
      <trkpt lat="45.7606" lon="3.73501">
        <ele>1142.49</ele>
        <time>2013-07-14T11:23:17Z</time>
      </trkpt>
      <trkpt lat="45.76079" lon="3.73507">
        <ele>1142.18</ele>
        <time>2013-07-14T11:23:20Z</time>
      </trkpt>
      <trkpt lat="45.76097" lon="3.73518">
        <ele>1142.04</ele>
        <time>2013-07-14T11:23:23Z</time>
      </trkpt>
      <trkpt lat="45.76115" lon="3.73533">
        <ele>1141.41</ele>
        <time>2013-07-14T11:23:26Z</time>
      </trkpt>
      <trkpt lat="45.76134" lon="3.73548">
        <ele>1140.89</ele>
        <time>2013-07-14T11:23:29Z</time>
      </trkpt>
      <trkpt lat="45.76153" lon="3.73561">
        <ele>1140.34</ele>
        <time>2013-07-14T11:23:32Z</time>
      </trkpt>
      <trkpt lat="45.76172" lon="3.73574">
        <ele>1140.11</ele>
        <time>2013-07-14T11:23:35Z</time>
      </trkpt>
      <trkpt lat="45.76191" lon="3.73582">
        <ele>1140.02</ele>
        <time>2013-07-14T11:23:38Z</time>
      </trkpt>
      <trkpt lat="45.76213" lon="3.73591">
        <ele>1139.97</ele>
        <time>2013-07-14T11:23:41Z</time>
      </trkpt>
      <trkpt lat="45.76238" lon="3.736">
        <ele>1139.52</ele>
        <time>2013-07-14T11:23:44Z</time>
      </trkpt>
      <trkpt lat="45.76261" lon="3.7361">
        <ele>1139.62</ele>
        <time>2013-07-14T11:23:47Z</time>
      </trkpt>
      <trkpt lat="45.76281" lon="3.73625">
        <ele>1139.23</ele>
        <time>2013-07-14T11:23:50Z</time>
      </trkpt>
      <trkpt lat="45.76299" lon="3.7364">
        <ele>1139.07</ele>
        <time>2013-07-14T11:23:53Z</time>
      </trkpt>
      <trkpt lat="45.76317" lon="3.73653">
        <ele>1139</ele>
        <time>2013-07-14T11:23:56Z</time>
      </trkpt>
      <trkpt lat="45.76338" lon="3.73668">
        <ele>1138.52</ele>
        <time>2013-07-14T11:24:00Z</time>
      </trkpt>
      <trkpt lat="45.76355" lon="3.73681">
        <ele>1138.05</ele>
        <time>2013-07-14T11:24:06Z</time>
      </trkpt>
      <trkpt lat="45.76373" lon="3.73696">
        <ele>1137.96</ele>
        <time>2013-07-14T11:24:13Z</time>
      </trkpt>
      <trkpt lat="45.7639" lon="3.73709">
        <ele>1137.95</ele>
        <time>2013-07-14T11:24:19Z</time>
      </trkpt>
      <trkpt lat="45.76412" lon="3.73709">
        <ele>1138.89</ele>
        <time>2013-07-14T11:24:29Z</time>
      </trkpt>
      <trkpt lat="45.7643" lon="3.73707">
        <ele>1138.35</ele>
        <time>2013-07-14T11:24:33Z</time>
      </trkpt>
      <trkpt lat="45.76448" lon="3.73707">
        <ele>1137.28</ele>
        <time>2013-07-14T11:24:38Z</time>
      </trkpt>
      <trkpt lat="45.76463" lon="3.7369">
        <ele>1136.97</ele>
        <time>2013-07-14T11:24:47Z</time>
      </trkpt>
      <trkpt lat="45.76476" lon="3.7367">
        <ele>1138.62</ele>
        <time>2013-07-14T11:25:01Z</time>
      </trkpt>
      <trkpt lat="45.76491" lon="3.73653">
        <ele>1145.14</ele>
        <time>2013-07-14T11:25:44Z</time>
      </trkpt>
      <trkpt lat="45.76505" lon="3.73634">
        <ele>1149.24</ele>
        <time>2013-07-14T11:26:08Z</time>
      </trkpt>
      <trkpt lat="45.76523" lon="3.73615">
        <ele>1151.12</ele>
        <time>2013-07-14T11:26:13Z</time>
      </trkpt>
      <trkpt lat="45.76542" lon="3.73597">
        <ele>1152.73</ele>
        <time>2013-07-14T11:26:19Z</time>
      </trkpt>
      <trkpt lat="45.76559" lon="3.73582">
        <ele>1154.79</ele>
        <time>2013-07-14T11:26:26Z</time>
      </trkpt>
      <trkpt lat="45.76575" lon="3.73569">
        <ele>1156.69</ele>
        <time>2013-07-14T11:26:43Z</time>
      </trkpt>
      <trkpt lat="45.76587" lon="3.73548">
        <ele>1160.74</ele>
        <time>2013-07-14T11:26:54Z</time>
      </trkpt>
      <trkpt lat="45.766" lon="3.73524">
        <ele>1163.18</ele>
        <time>2013-07-14T11:27:03Z</time>
      </trkpt>
      <trkpt lat="45.76614" lon="3.73501">
        <ele>1165.92</ele>
        <time>2013-07-14T11:27:13Z</time>
      </trkpt>
      <trkpt lat="45.76627" lon="3.73477">
        <ele>1167.12</ele>
        <time>2013-07-14T11:27:22Z</time>
      </trkpt>
      <trkpt lat="45.7664" lon="3.73456">
        <ele>1168.89</ele>
        <time>2013-07-14T11:27:31Z</time>
      </trkpt>
      <trkpt lat="45.76653" lon="3.73434">
        <ele>1170.05</ele>
        <time>2013-07-14T11:27:38Z</time>
      </trkpt>
      <trkpt lat="45.76669" lon="3.73417">
        <ele>1170.85</ele>
        <time>2013-07-14T11:27:46Z</time>
      </trkpt>
      <trkpt lat="45.76689" lon="3.73406">
        <ele>1170.92</ele>
        <time>2013-07-14T11:27:51Z</time>
      </trkpt>
      <trkpt lat="45.76709" lon="3.73394">
        <ele>1170.94</ele>
        <time>2013-07-14T11:27:56Z</time>
      </trkpt>
      <trkpt lat="45.76725" lon="3.73381">
        <ele>1170.94</ele>
        <time>2013-07-14T11:28:01Z</time>
      </trkpt>
      <trkpt lat="45.7674" lon="3.73366">
        <ele>1171.63</ele>
        <time>2013-07-14T11:28:06Z</time>
      </trkpt>
      <trkpt lat="45.76755" lon="3.73348">
        <ele>1172.12</ele>
        <time>2013-07-14T11:28:11Z</time>
      </trkpt>
      <trkpt lat="45.76769" lon="3.73331">
        <ele>1172.75</ele>
        <time>2013-07-14T11:28:16Z</time>
      </trkpt>
      <trkpt lat="45.76785" lon="3.73312">
        <ele>1172.91</ele>
        <time>2013-07-14T11:28:22Z</time>
      </trkpt>
      <trkpt lat="45.76798" lon="3.73291">
        <ele>1172.25</ele>
        <time>2013-07-14T11:28:28Z</time>
      </trkpt>
      <trkpt lat="45.76813" lon="3.73271">
        <ele>1172.02</ele>
        <time>2013-07-14T11:28:33Z</time>
      </trkpt>
      <trkpt lat="45.76829" lon="3.73256">
        <ele>1171.96</ele>
        <time>2013-07-14T11:28:38Z</time>
      </trkpt>
      <trkpt lat="45.76844" lon="3.73239">
        <ele>1171.26</ele>
        <time>2013-07-14T11:28:43Z</time>
      </trkpt>
      <trkpt lat="45.76859" lon="3.73222">
        <ele>1171</ele>
        <time>2013-07-14T11:28:49Z</time>
      </trkpt>
      <trkpt lat="45.76874" lon="3.73205">
        <ele>1171.72</ele>
        <time>2013-07-14T11:28:54Z</time>
      </trkpt>
      <trkpt lat="45.76888" lon="3.73188">
        <ele>1172.31</ele>
        <time>2013-07-14T11:28:58Z</time>
      </trkpt>
      <trkpt lat="45.76903" lon="3.73168">
        <ele>1173.23</ele>
        <time>2013-07-14T11:29:03Z</time>
      </trkpt>
      <trkpt lat="45.76919" lon="3.73151">
        <ele>1174.5</ele>
        <time>2013-07-14T11:29:09Z</time>
      </trkpt>
      <trkpt lat="45.76936" lon="3.73138">
        <ele>1175.46</ele>
        <time>2013-07-14T11:29:16Z</time>
      </trkpt>
      <trkpt lat="45.76953" lon="3.73123">
        <ele>1176.58</ele>
        <time>2013-07-14T11:29:24Z</time>
      </trkpt>
      <trkpt lat="45.76969" lon="3.73108">
        <ele>1178.96</ele>
        <time>2013-07-14T11:30:12Z</time>
      </trkpt>
      <trkpt lat="45.76984" lon="3.73089">
        <ele>1177.98</ele>
        <time>2013-07-14T11:30:24Z</time>
      </trkpt>
      <trkpt lat="45.77001" lon="3.73076">
        <ele>1176.97</ele>
        <time>2013-07-14T11:30:37Z</time>
      </trkpt>
      <trkpt lat="45.77017" lon="3.73063">
        <ele>1176.95</ele>
        <time>2013-07-14T11:30:48Z</time>
      </trkpt>
      <trkpt lat="45.77034" lon="3.73052">
        <ele>1176.08</ele>
        <time>2013-07-14T11:30:59Z</time>
      </trkpt>
      <trkpt lat="45.77047" lon="3.73033">
        <ele>1176.77</ele>
        <time>2013-07-14T11:31:13Z</time>
      </trkpt>
      <trkpt lat="45.77063" lon="3.7302">
        <ele>1179.33</ele>
        <time>2013-07-14T11:31:27Z</time>
      </trkpt>
      <trkpt lat="45.77078" lon="3.73005">
        <ele>1182.93</ele>
        <time>2013-07-14T11:31:42Z</time>
      </trkpt>
      <trkpt lat="45.77087" lon="3.72982">
        <ele>1189.02</ele>
        <time>2013-07-14T11:32:02Z</time>
      </trkpt>
      <trkpt lat="45.77094" lon="3.72958">
        <ele>1193.9</ele>
        <time>2013-07-14T11:32:26Z</time>
      </trkpt>
      <trkpt lat="45.77112" lon="3.72958">
        <ele>1197.9</ele>
        <time>2013-07-14T11:33:08Z</time>
      </trkpt>
      <trkpt lat="45.77121" lon="3.72934">
        <ele>1201.65</ele>
        <time>2013-07-14T11:34:09Z</time>
      </trkpt>
      <trkpt lat="45.77134" lon="3.72913">
        <ele>1204.69</ele>
        <time>2013-07-14T11:34:36Z</time>
      </trkpt>
      <trkpt lat="45.77142" lon="3.72889">
        <ele>1207.58</ele>
        <time>2013-07-14T11:35:07Z</time>
      </trkpt>
      <trkpt lat="45.7715" lon="3.72866">
        <ele>1209.62</ele>
        <time>2013-07-14T11:35:39Z</time>
      </trkpt>
      <trkpt lat="45.77164" lon="3.72849">
        <ele>1211.63</ele>
        <time>2013-07-14T11:36:04Z</time>
      </trkpt>
      <trkpt lat="45.77182" lon="3.7284">
        <ele>1213.39</ele>
        <time>2013-07-14T11:36:32Z</time>
      </trkpt>
      <trkpt lat="45.77198" lon="3.72825">
        <ele>1217.47</ele>
        <time>2013-07-14T11:36:52Z</time>
      </trkpt>
      <trkpt lat="45.77215" lon="3.72814">
        <ele>1223.6</ele>
        <time>2013-07-14T11:37:16Z</time>
      </trkpt>
      <trkpt lat="45.77232" lon="3.72801">
        <ele>1227.39</ele>
        <time>2013-07-14T11:37:45Z</time>
      </trkpt>
      <trkpt lat="45.7725" lon="3.72799">
        <ele>1229.98</ele>
        <time>2013-07-14T11:38:03Z</time>
      </trkpt>
      <trkpt lat="45.77268" lon="3.72795">
        <ele>1232.37</ele>
        <time>2013-07-14T11:38:13Z</time>
      </trkpt>
      <trkpt lat="45.77286" lon="3.72795">
        <ele>1233.82</ele>
        <time>2013-07-14T11:38:24Z</time>
      </trkpt>
      <trkpt lat="45.77304" lon="3.72797">
        <ele>1233.94</ele>
        <time>2013-07-14T11:38:34Z</time>
      </trkpt>
      <trkpt lat="45.77324" lon="3.72791">
        <ele>1233.94</ele>
        <time>2013-07-14T11:38:46Z</time>
      </trkpt>
      <trkpt lat="45.77342" lon="3.7278">
        <ele>1233.94</ele>
        <time>2013-07-14T11:38:51Z</time>
      </trkpt>
      <trkpt lat="45.7736" lon="3.72769">
        <ele>1234.52</ele>
        <time>2013-07-14T11:38:56Z</time>
      </trkpt>
      <trkpt lat="45.7738" lon="3.72763">
        <ele>1235.33</ele>
        <time>2013-07-14T11:39:03Z</time>
      </trkpt>
      <trkpt lat="45.77398" lon="3.72763">
        <ele>1235.91</ele>
        <time>2013-07-14T11:39:13Z</time>
      </trkpt>
      <trkpt lat="45.77416" lon="3.72758">
        <ele>1236.71</ele>
        <time>2013-07-14T11:39:26Z</time>
      </trkpt>
      <trkpt lat="45.77435" lon="3.72754">
        <ele>1238.53</ele>
        <time>2013-07-14T11:39:41Z</time>
      </trkpt>
      <trkpt lat="45.77456" lon="3.72748">
        <ele>1241.56</ele>
        <time>2013-07-14T11:39:49Z</time>
      </trkpt>
      <trkpt lat="45.77473" lon="3.72737">
        <ele>1243.19</ele>
        <time>2013-07-14T11:39:54Z</time>
      </trkpt>
      <trkpt lat="45.77494" lon="3.72722">
        <ele>1244.14</ele>
        <time>2013-07-14T11:39:58Z</time>
      </trkpt>
      <trkpt lat="45.77515" lon="3.72709">
        <ele>1244.44</ele>
        <time>2013-07-14T11:40:02Z</time>
      </trkpt>
      <trkpt lat="45.77534" lon="3.727">
        <ele>1244.06</ele>
        <time>2013-07-14T11:40:07Z</time>
      </trkpt>
      <trkpt lat="45.77553" lon="3.7269">
        <ele>1243.13</ele>
        <time>2013-07-14T11:40:15Z</time>
      </trkpt>
      <trkpt lat="45.77566" lon="3.72666">
        <ele>1242.98</ele>
        <time>2013-07-14T11:40:21Z</time>
      </trkpt>
      <trkpt lat="45.77577" lon="3.72645">
        <ele>1242.95</ele>
        <time>2013-07-14T11:40:27Z</time>
      </trkpt>
      <trkpt lat="45.77585" lon="3.72621">
        <ele>1242.94</ele>
        <time>2013-07-14T11:40:34Z</time>
      </trkpt>
      <trkpt lat="45.77591" lon="3.72595">
        <ele>1241.68</ele>
        <time>2013-07-14T11:40:40Z</time>
      </trkpt>
      <trkpt lat="45.77602" lon="3.72574">
        <ele>1240.2</ele>
        <time>2013-07-14T11:40:48Z</time>
      </trkpt>
      <trkpt lat="45.77612" lon="3.7255">
        <ele>1239.95</ele>
        <time>2013-07-14T11:41:01Z</time>
      </trkpt>
      <trkpt lat="45.77623" lon="3.72527">
        <ele>1240.87</ele>
        <time>2013-07-14T11:41:11Z</time>
      </trkpt>
      <trkpt lat="45.77635" lon="3.72505">
        <ele>1242.41</ele>
        <time>2013-07-14T11:41:19Z</time>
      </trkpt>
      <trkpt lat="45.77645" lon="3.72482">
        <ele>1244.35</ele>
        <time>2013-07-14T11:41:28Z</time>
      </trkpt>
      <trkpt lat="45.77657" lon="3.7246">
        <ele>1245.86</ele>
        <time>2013-07-14T11:41:39Z</time>
      </trkpt>
      <trkpt lat="45.7767" lon="3.72441">
        <ele>1245.92</ele>
        <time>2013-07-14T11:41:44Z</time>
      </trkpt>
      <trkpt lat="45.77683" lon="3.72422">
        <ele>1245.94</ele>
        <time>2013-07-14T11:41:48Z</time>
      </trkpt>
      <trkpt lat="45.77694" lon="3.724">
        <ele>1245.94</ele>
        <time>2013-07-14T11:41:53Z</time>
      </trkpt>
      <trkpt lat="45.77701" lon="3.72376">
        <ele>1245.51</ele>
        <time>2013-07-14T11:41:58Z</time>
      </trkpt>
      <trkpt lat="45.77709" lon="3.72351">
        <ele>1245</ele>
        <time>2013-07-14T11:42:06Z</time>
      </trkpt>
      <trkpt lat="45.77714" lon="3.72323">
        <ele>1246.02</ele>
        <time>2013-07-14T11:42:16Z</time>
      </trkpt>
      <trkpt lat="45.77719" lon="3.72297">
        <ele>1246.24</ele>
        <time>2013-07-14T11:42:23Z</time>
      </trkpt>
      <trkpt lat="45.77729" lon="3.72269">
        <ele>1245.33</ele>
        <time>2013-07-14T11:42:28Z</time>
      </trkpt>
      <trkpt lat="45.77741" lon="3.72243">
        <ele>1243.84</ele>
        <time>2013-07-14T11:42:33Z</time>
      </trkpt>
      <trkpt lat="45.77749" lon="3.72218">
        <ele>1242.42</ele>
        <time>2013-07-14T11:42:39Z</time>
      </trkpt>
      <trkpt lat="45.77751" lon="3.72192">
        <ele>1240.06</ele>
        <time>2013-07-14T11:42:44Z</time>
      </trkpt>
      <trkpt lat="45.77749" lon="3.72164">
        <ele>1238.01</ele>
        <time>2013-07-14T11:42:49Z</time>
      </trkpt>
      <trkpt lat="45.77745" lon="3.72138">
        <ele>1237.2</ele>
        <time>2013-07-14T11:42:54Z</time>
      </trkpt>
      <trkpt lat="45.77743" lon="3.72108">
        <ele>1235.56</ele>
        <time>2013-07-14T11:42:59Z</time>
      </trkpt>
      <trkpt lat="45.77742" lon="3.72078">
        <ele>1234.62</ele>
        <time>2013-07-14T11:43:05Z</time>
      </trkpt>
      <trkpt lat="45.77736" lon="3.72037">
        <ele>1233.72</ele>
        <time>2013-07-14T11:43:09Z</time>
      </trkpt>
      <trkpt lat="45.7773" lon="3.72012">
        <ele>1233.85</ele>
        <time>2013-07-14T11:43:12Z</time>
      </trkpt>
      <trkpt lat="45.77724" lon="3.71982">
        <ele>1233.34</ele>
        <time>2013-07-14T11:43:16Z</time>
      </trkpt>
      <trkpt lat="45.77716" lon="3.71956">
        <ele>1233.51</ele>
        <time>2013-07-14T11:43:20Z</time>
      </trkpt>
      <trkpt lat="45.77711" lon="3.7193">
        <ele>1233.18</ele>
        <time>2013-07-14T11:43:23Z</time>
      </trkpt>
      <trkpt lat="45.77706" lon="3.71902">
        <ele>1232.77</ele>
        <time>2013-07-14T11:43:27Z</time>
      </trkpt>
      <trkpt lat="45.77704" lon="3.71874">
        <ele>1230.59</ele>
        <time>2013-07-14T11:43:30Z</time>
      </trkpt>
      <trkpt lat="45.77709" lon="3.71846">
        <ele>1227.85</ele>
        <time>2013-07-14T11:43:34Z</time>
      </trkpt>
      <trkpt lat="45.77711" lon="3.71821">
        <ele>1225.86</ele>
        <time>2013-07-14T11:43:38Z</time>
      </trkpt>
      <trkpt lat="45.77714" lon="3.71795">
        <ele>1224.66</ele>
        <time>2013-07-14T11:43:42Z</time>
      </trkpt>
      <trkpt lat="45.77725" lon="3.71765">
        <ele>1221.41</ele>
        <time>2013-07-14T11:43:46Z</time>
      </trkpt>
      <trkpt lat="45.77736" lon="3.71735">
        <ele>1212.86</ele>
        <time>2013-07-14T11:43:49Z</time>
      </trkpt>
      <trkpt lat="45.77747" lon="3.71705">
        <ele>1203.72</ele>
        <time>2013-07-14T11:43:52Z</time>
      </trkpt>
      <trkpt lat="45.77756" lon="3.71679">
        <ele>1196.55</ele>
        <time>2013-07-14T11:43:55Z</time>
      </trkpt>
      <trkpt lat="45.77768" lon="3.71653">
        <ele>1191.72</ele>
        <time>2013-07-14T11:43:58Z</time>
      </trkpt>
      <trkpt lat="45.77782" lon="3.71628">
        <ele>1188.71</ele>
        <time>2013-07-14T11:44:01Z</time>
      </trkpt>
      <trkpt lat="45.77799" lon="3.71608">
        <ele>1187.8</ele>
        <time>2013-07-14T11:44:04Z</time>
      </trkpt>
      <trkpt lat="45.77812" lon="3.71589">
        <ele>1189.15</ele>
        <time>2013-07-14T11:44:07Z</time>
      </trkpt>
      <trkpt lat="45.77826" lon="3.71565">
        <ele>1192.07</ele>
        <time>2013-07-14T11:44:11Z</time>
      </trkpt>
      <trkpt lat="45.77845" lon="3.71548">
        <ele>1191.4</ele>
        <time>2013-07-14T11:44:15Z</time>
      </trkpt>
      <trkpt lat="45.77862" lon="3.71533">
        <ele>1188.72</ele>
        <time>2013-07-14T11:44:18Z</time>
      </trkpt>
      <trkpt lat="45.77878" lon="3.71516">
        <ele>1186.43</ele>
        <time>2013-07-14T11:44:21Z</time>
      </trkpt>
      <trkpt lat="45.77895" lon="3.71503">
        <ele>1184.3</ele>
        <time>2013-07-14T11:44:24Z</time>
      </trkpt>
      <trkpt lat="45.77912" lon="3.71492">
        <ele>1181.92</ele>
        <time>2013-07-14T11:44:27Z</time>
      </trkpt>
      <trkpt lat="45.77928" lon="3.7148">
        <ele>1179.76</ele>
        <time>2013-07-14T11:44:30Z</time>
      </trkpt>
      <trkpt lat="45.77936" lon="3.71456">
        <ele>1177.61</ele>
        <time>2013-07-14T11:44:35Z</time>
      </trkpt>
      <trkpt lat="45.77956" lon="3.71447">
        <ele>1178.16</ele>
        <time>2013-07-14T11:44:56Z</time>
      </trkpt>
      <trkpt lat="45.77975" lon="3.71445">
        <ele>1180.99</ele>
        <time>2013-07-14T11:45:32Z</time>
      </trkpt>
      <trkpt lat="45.78002" lon="3.71432">
        <ele>1183.04</ele>
        <time>2013-07-14T11:45:42Z</time>
      </trkpt>
      <trkpt lat="45.78022" lon="3.71434">
        <ele>1182.61</ele>
        <time>2013-07-14T11:45:51Z</time>
      </trkpt>
      <trkpt lat="45.78042" lon="3.71441">
        <ele>1180.33</ele>
        <time>2013-07-14T11:45:56Z</time>
      </trkpt>
      <trkpt lat="45.7806" lon="3.71443">
        <ele>1177.57</ele>
        <time>2013-07-14T11:46:00Z</time>
      </trkpt>
      <trkpt lat="45.78081" lon="3.71445">
        <ele>1173.79</ele>
        <time>2013-07-14T11:46:05Z</time>
      </trkpt>
      <trkpt lat="45.78103" lon="3.71441">
        <ele>1170.79</ele>
        <time>2013-07-14T11:46:09Z</time>
      </trkpt>
      <trkpt lat="45.78123" lon="3.71441">
        <ele>1168.85</ele>
        <time>2013-07-14T11:46:13Z</time>
      </trkpt>
      <trkpt lat="45.78143" lon="3.71441">
        <ele>1167.65</ele>
        <time>2013-07-14T11:46:17Z</time>
      </trkpt>
      <trkpt lat="45.78162" lon="3.71439">
        <ele>1165.65</ele>
        <time>2013-07-14T11:46:20Z</time>
      </trkpt>
      <trkpt lat="45.78185" lon="3.71434">
        <ele>1165.31</ele>
        <time>2013-07-14T11:46:24Z</time>
      </trkpt>
      <trkpt lat="45.78206" lon="3.71434">
        <ele>1167.44</ele>
        <time>2013-07-14T11:46:28Z</time>
      </trkpt>
      <trkpt lat="45.78224" lon="3.71432">
        <ele>1170.17</ele>
        <time>2013-07-14T11:46:32Z</time>
      </trkpt>
      <trkpt lat="45.78243" lon="3.71432">
        <ele>1170.12</ele>
        <time>2013-07-14T11:46:36Z</time>
      </trkpt>
      <trkpt lat="45.78267" lon="3.71439">
        <ele>1168.87</ele>
        <time>2013-07-14T11:46:40Z</time>
      </trkpt>
      <trkpt lat="45.7829" lon="3.71443">
        <ele>1164.65</ele>
        <time>2013-07-14T11:46:43Z</time>
      </trkpt>
      <trkpt lat="45.78316" lon="3.71439">
        <ele>1159.65</ele>
        <time>2013-07-14T11:46:46Z</time>
      </trkpt>
      <trkpt lat="45.78336" lon="3.71434">
        <ele>1156.46</ele>
        <time>2013-07-14T11:46:48Z</time>
      </trkpt>
      <trkpt lat="45.78354" lon="3.7143">
        <ele>1153.8</ele>
        <time>2013-07-14T11:46:50Z</time>
      </trkpt>
      <trkpt lat="45.78372" lon="3.71424">
        <ele>1151.68</ele>
        <time>2013-07-14T11:46:52Z</time>
      </trkpt>
      <trkpt lat="45.78399" lon="3.71439">
        <ele>1149.18</ele>
        <time>2013-07-14T11:46:58Z</time>
      </trkpt>
      <trkpt lat="45.78415" lon="3.71458">
        <ele>1148.34</ele>
        <time>2013-07-14T11:47:02Z</time>
      </trkpt>
      <trkpt lat="45.78437" lon="3.71467">
        <ele>1146.41</ele>
        <time>2013-07-14T11:47:05Z</time>
      </trkpt>
      <trkpt lat="45.78456" lon="3.71467">
        <ele>1144.2</ele>
        <time>2013-07-14T11:47:07Z</time>
      </trkpt>
      <trkpt lat="45.78477" lon="3.71473">
        <ele>1140.71</ele>
        <time>2013-07-14T11:47:11Z</time>
      </trkpt>
      <trkpt lat="45.78496" lon="3.71488">
        <ele>1138.82</ele>
        <time>2013-07-14T11:47:15Z</time>
      </trkpt>
      <trkpt lat="45.78517" lon="3.71505">
        <ele>1137.16</ele>
        <time>2013-07-14T11:47:18Z</time>
      </trkpt>
      <trkpt lat="45.78533" lon="3.71522">
        <ele>1135.88</ele>
        <time>2013-07-14T11:47:21Z</time>
      </trkpt>
      <trkpt lat="45.78548" lon="3.71544">
        <ele>1134.99</ele>
        <time>2013-07-14T11:47:25Z</time>
      </trkpt>
      <trkpt lat="45.78564" lon="3.71557">
        <ele>1134.27</ele>
        <time>2013-07-14T11:47:29Z</time>
      </trkpt>
      <trkpt lat="45.78578" lon="3.71574">
        <ele>1133.18</ele>
        <time>2013-07-14T11:47:35Z</time>
      </trkpt>
      <trkpt lat="45.78594" lon="3.71595">
        <ele>1130.19</ele>
        <time>2013-07-14T11:48:46Z</time>
      </trkpt>
      <trkpt lat="45.78616" lon="3.71604">
        <ele>1127.38</ele>
        <time>2013-07-14T11:48:49Z</time>
      </trkpt>
      <trkpt lat="45.78637" lon="3.71608">
        <ele>1124.13</ele>
        <time>2013-07-14T11:48:52Z</time>
      </trkpt>
      <trkpt lat="45.78658" lon="3.71615">
        <ele>1120.25</ele>
        <time>2013-07-14T11:48:56Z</time>
      </trkpt>
      <trkpt lat="45.7868" lon="3.71619">
        <ele>1116.72</ele>
        <time>2013-07-14T11:49:00Z</time>
      </trkpt>
      <trkpt lat="45.78701" lon="3.71625">
        <ele>1112.38</ele>
        <time>2013-07-14T11:49:04Z</time>
      </trkpt>
      <trkpt lat="45.78725" lon="3.71632">
        <ele>1108.66</ele>
        <time>2013-07-14T11:49:08Z</time>
      </trkpt>
      <trkpt lat="45.78748" lon="3.71638">
        <ele>1105.98</ele>
        <time>2013-07-14T11:49:12Z</time>
      </trkpt>
      <trkpt lat="45.78767" lon="3.71643">
        <ele>1103.76</ele>
        <time>2013-07-14T11:49:16Z</time>
      </trkpt>
      <trkpt lat="45.78786" lon="3.71651">
        <ele>1102.27</ele>
        <time>2013-07-14T11:49:20Z</time>
      </trkpt>
      <trkpt lat="45.78804" lon="3.71658">
        <ele>1099.81</ele>
        <time>2013-07-14T11:49:25Z</time>
      </trkpt>
      <trkpt lat="45.78822" lon="3.71666">
        <ele>1099.15</ele>
        <time>2013-07-14T11:49:30Z</time>
      </trkpt>
      <trkpt lat="45.7884" lon="3.71677">
        <ele>1098.23</ele>
        <time>2013-07-14T11:49:35Z</time>
      </trkpt>
      <trkpt lat="45.78858" lon="3.71686">
        <ele>1097.43</ele>
        <time>2013-07-14T11:49:40Z</time>
      </trkpt>
      <trkpt lat="45.78877" lon="3.71692">
        <ele>1096.62</ele>
        <time>2013-07-14T11:49:45Z</time>
      </trkpt>
      <trkpt lat="45.789" lon="3.71698">
        <ele>1093.46</ele>
        <time>2013-07-14T11:49:50Z</time>
      </trkpt>
      <trkpt lat="45.78918" lon="3.71703">
        <ele>1088.18</ele>
        <time>2013-07-14T11:49:53Z</time>
      </trkpt>
      <trkpt lat="45.7894" lon="3.71705">
        <ele>1083.12</ele>
        <time>2013-07-14T11:49:56Z</time>
      </trkpt>
      <trkpt lat="45.78962" lon="3.71705">
        <ele>1079.69</ele>
        <time>2013-07-14T11:50:00Z</time>
      </trkpt>
      <trkpt lat="45.7898" lon="3.71707">
        <ele>1078.92</ele>
        <time>2013-07-14T11:50:02Z</time>
      </trkpt>
      <trkpt lat="45.79003" lon="3.71709">
        <ele>1077.92</ele>
        <time>2013-07-14T11:50:05Z</time>
      </trkpt>
      <trkpt lat="45.79029" lon="3.71713">
        <ele>1077.18</ele>
        <time>2013-07-14T11:50:10Z</time>
      </trkpt>
      <trkpt lat="45.79047" lon="3.71718">
        <ele>1076.99</ele>
        <time>2013-07-14T11:50:16Z</time>
      </trkpt>
      <trkpt lat="45.79072" lon="3.7172">
        <ele>1077.2</ele>
        <time>2013-07-14T11:50:23Z</time>
      </trkpt>
      <trkpt lat="45.79092" lon="3.7172">
        <ele>1078.45</ele>
        <time>2013-07-14T11:50:28Z</time>
      </trkpt>
      <trkpt lat="45.79116" lon="3.71724">
        <ele>1080.47</ele>
        <time>2013-07-14T11:50:35Z</time>
      </trkpt>
      <trkpt lat="45.79129" lon="3.71707">
        <ele>1083.55</ele>
        <time>2013-07-14T11:50:47Z</time>
      </trkpt>
      <trkpt lat="45.79139" lon="3.71681">
        <ele>1087.7</ele>
        <time>2013-07-14T11:50:57Z</time>
      </trkpt>
      <trkpt lat="45.79143" lon="3.71655">
        <ele>1089.1</ele>
        <time>2013-07-14T11:51:06Z</time>
      </trkpt>
      <trkpt lat="45.79154" lon="3.71628">
        <ele>1091.41</ele>
        <time>2013-07-14T11:51:15Z</time>
      </trkpt>
      <trkpt lat="45.79164" lon="3.71604">
        <ele>1092.5</ele>
        <time>2013-07-14T11:51:20Z</time>
      </trkpt>
      <trkpt lat="45.79169" lon="3.71578">
        <ele>1093.63</ele>
        <time>2013-07-14T11:51:26Z</time>
      </trkpt>
      <trkpt lat="45.79181" lon="3.7155">
        <ele>1094.16</ele>
        <time>2013-07-14T11:51:34Z</time>
      </trkpt>
      <trkpt lat="45.79176" lon="3.7152">
        <ele>1094.87</ele>
        <time>2013-07-14T11:51:42Z</time>
      </trkpt>
      <trkpt lat="45.79164" lon="3.71497">
        <ele>1094.94</ele>
        <time>2013-07-14T11:51:50Z</time>
      </trkpt>
      <trkpt lat="45.7915" lon="3.71477">
        <ele>1095.19</ele>
        <time>2013-07-14T11:51:58Z</time>
      </trkpt>
      <trkpt lat="45.79133" lon="3.71462">
        <ele>1096.53</ele>
        <time>2013-07-14T11:52:05Z</time>
      </trkpt>
      <trkpt lat="45.79119" lon="3.71441">
        <ele>1096.87</ele>
        <time>2013-07-14T11:52:11Z</time>
      </trkpt>
      <trkpt lat="45.79114" lon="3.71415">
        <ele>1097.86</ele>
        <time>2013-07-14T11:52:17Z</time>
      </trkpt>
      <trkpt lat="45.7911" lon="3.71385">
        <ele>1099.93</ele>
        <time>2013-07-14T11:52:26Z</time>
      </trkpt>
      <trkpt lat="45.79107" lon="3.71357">
        <ele>1102.46</ele>
        <time>2013-07-14T11:52:34Z</time>
      </trkpt>
      <trkpt lat="45.79107" lon="3.71321">
        <ele>1103.93</ele>
        <time>2013-07-14T11:52:40Z</time>
      </trkpt>
      <trkpt lat="45.79107" lon="3.71293">
        <ele>1105.06</ele>
        <time>2013-07-14T11:52:44Z</time>
      </trkpt>
      <trkpt lat="45.79109" lon="3.71267">
        <ele>1106.56</ele>
        <time>2013-07-14T11:52:49Z</time>
      </trkpt>
      <trkpt lat="45.79119" lon="3.71239">
        <ele>1111.05</ele>
        <time>2013-07-14T11:52:53Z</time>
      </trkpt>
      <trkpt lat="45.79126" lon="3.71216">
        <ele>1115.72</ele>
        <time>2013-07-14T11:52:56Z</time>
      </trkpt>
      <trkpt lat="45.79135" lon="3.7119">
        <ele>1120.12</ele>
        <time>2013-07-14T11:53:00Z</time>
      </trkpt>
      <trkpt lat="45.79148" lon="3.71166">
        <ele>1122.3</ele>
        <time>2013-07-14T11:53:04Z</time>
      </trkpt>
      <trkpt lat="45.79165" lon="3.71147">
        <ele>1123.42</ele>
        <time>2013-07-14T11:53:08Z</time>
      </trkpt>
      <trkpt lat="45.7918" lon="3.71128">
        <ele>1123.34</ele>
        <time>2013-07-14T11:53:12Z</time>
      </trkpt>
      <trkpt lat="45.79194" lon="3.71102">
        <ele>1122.49</ele>
        <time>2013-07-14T11:53:16Z</time>
      </trkpt>
      <trkpt lat="45.79202" lon="3.71074">
        <ele>1120.55</ele>
        <time>2013-07-14T11:53:21Z</time>
      </trkpt>
      <trkpt lat="45.79207" lon="3.71046">
        <ele>1118.12</ele>
        <time>2013-07-14T11:53:25Z</time>
      </trkpt>
      <trkpt lat="45.79205" lon="3.7102">
        <ele>1114.83</ele>
        <time>2013-07-14T11:53:28Z</time>
      </trkpt>
      <trkpt lat="45.79195" lon="3.7099">
        <ele>1111.4</ele>
        <time>2013-07-14T11:53:31Z</time>
      </trkpt>
      <trkpt lat="45.79186" lon="3.70965">
        <ele>1107.42</ele>
        <time>2013-07-14T11:53:34Z</time>
      </trkpt>
      <trkpt lat="45.79181" lon="3.70937">
        <ele>1105.04</ele>
        <time>2013-07-14T11:53:38Z</time>
      </trkpt>
      <trkpt lat="45.79177" lon="3.70907">
        <ele>1103</ele>
        <time>2013-07-14T11:53:43Z</time>
      </trkpt>
      <trkpt lat="45.79179" lon="3.7087">
        <ele>1100.93</ele>
        <time>2013-07-14T11:53:51Z</time>
      </trkpt>
      <trkpt lat="45.79181" lon="3.70842">
        <ele>1098.46</ele>
        <time>2013-07-14T11:53:57Z</time>
      </trkpt>
      <trkpt lat="45.79176" lon="3.70812">
        <ele>1095.02</ele>
        <time>2013-07-14T11:54:02Z</time>
      </trkpt>
      <trkpt lat="45.79171" lon="3.70786">
        <ele>1095.9</ele>
        <time>2013-07-14T11:54:05Z</time>
      </trkpt>
      <trkpt lat="45.79165" lon="3.70759">
        <ele>1103.71</ele>
        <time>2013-07-14T11:54:09Z</time>
      </trkpt>
      <trkpt lat="45.79162" lon="3.70733">
        <ele>1107.62</ele>
        <time>2013-07-14T11:54:14Z</time>
      </trkpt>
      <trkpt lat="45.79159" lon="3.70703">
        <ele>1109.39</ele>
        <time>2013-07-14T11:54:19Z</time>
      </trkpt>
      <trkpt lat="45.79158" lon="3.70673">
        <ele>1109.81</ele>
        <time>2013-07-14T11:54:24Z</time>
      </trkpt>
      <trkpt lat="45.79157" lon="3.70645">
        <ele>1109.66</ele>
        <time>2013-07-14T11:54:29Z</time>
      </trkpt>
      <trkpt lat="45.79161" lon="3.70613">
        <ele>1107.3</ele>
        <time>2013-07-14T11:54:34Z</time>
      </trkpt>
      <trkpt lat="45.79162" lon="3.70585">
        <ele>1102.48</ele>
        <time>2013-07-14T11:54:38Z</time>
      </trkpt>
      <trkpt lat="45.79159" lon="3.70559">
        <ele>1097.23</ele>
        <time>2013-07-14T11:54:44Z</time>
      </trkpt>
      <trkpt lat="45.79152" lon="3.70522">
        <ele>1092.19</ele>
        <time>2013-07-14T11:55:32Z</time>
      </trkpt>
      <trkpt lat="45.79147" lon="3.70492">
        <ele>1090.41</ele>
        <time>2013-07-14T11:55:36Z</time>
      </trkpt>
      <trkpt lat="45.79137" lon="3.70467">
        <ele>1088.17</ele>
        <time>2013-07-14T11:55:41Z</time>
      </trkpt>
      <trkpt lat="45.79129" lon="3.70443">
        <ele>1086.15</ele>
        <time>2013-07-14T11:55:47Z</time>
      </trkpt>
      <trkpt lat="45.7912" lon="3.70417">
        <ele>1084.17</ele>
        <time>2013-07-14T11:55:54Z</time>
      </trkpt>
      <trkpt lat="45.79109" lon="3.70389">
        <ele>1083.24</ele>
        <time>2013-07-14T11:55:59Z</time>
      </trkpt>
      <trkpt lat="45.79104" lon="3.70364">
        <ele>1083.5</ele>
        <time>2013-07-14T11:56:02Z</time>
      </trkpt>
      <trkpt lat="45.79098" lon="3.70336">
        <ele>1084.34</ele>
        <time>2013-07-14T11:56:05Z</time>
      </trkpt>
      <trkpt lat="45.79091" lon="3.7031">
        <ele>1083.5</ele>
        <time>2013-07-14T11:56:08Z</time>
      </trkpt>
      <trkpt lat="45.79089" lon="3.70284">
        <ele>1078.91</ele>
        <time>2013-07-14T11:56:11Z</time>
      </trkpt>
      <trkpt lat="45.79088" lon="3.70256">
        <ele>1073.32</ele>
        <time>2013-07-14T11:56:15Z</time>
      </trkpt>
      <trkpt lat="45.7908" lon="3.70233">
        <ele>1070.57</ele>
        <time>2013-07-14T11:56:19Z</time>
      </trkpt>
      <trkpt lat="45.79075" lon="3.70205">
        <ele>1063.61</ele>
        <time>2013-07-14T11:56:23Z</time>
      </trkpt>
      <trkpt lat="45.79074" lon="3.70179">
        <ele>1057.25</ele>
        <time>2013-07-14T11:56:27Z</time>
      </trkpt>
      <trkpt lat="45.7907" lon="3.70149">
        <ele>1054.15</ele>
        <time>2013-07-14T11:56:32Z</time>
      </trkpt>
      <trkpt lat="45.79068" lon="3.70121">
        <ele>1050.14</ele>
        <time>2013-07-14T11:56:36Z</time>
      </trkpt>
      <trkpt lat="45.79061" lon="3.70093">
        <ele>1043.13</ele>
        <time>2013-07-14T11:56:40Z</time>
      </trkpt>
      <trkpt lat="45.79052" lon="3.70068">
        <ele>1037.82</ele>
        <time>2013-07-14T11:56:44Z</time>
      </trkpt>
      <trkpt lat="45.79047" lon="3.7004">
        <ele>1034.05</ele>
        <time>2013-07-14T11:56:48Z</time>
      </trkpt>
      <trkpt lat="45.7904" lon="3.70012">
        <ele>1031.49</ele>
        <time>2013-07-14T11:56:52Z</time>
      </trkpt>
      <trkpt lat="45.7903" lon="3.69975">
        <ele>1028.33</ele>
        <time>2013-07-14T11:57:00Z</time>
      </trkpt>
      <trkpt lat="45.79049" lon="3.6996">
        <ele>1024.28</ele>
        <time>2013-07-14T11:57:28Z</time>
      </trkpt>
      <trkpt lat="45.79067" lon="3.69943">
        <ele>1021.92</ele>
        <time>2013-07-14T11:57:33Z</time>
      </trkpt>
      <trkpt lat="45.79075" lon="3.6992">
        <ele>1020.63</ele>
        <time>2013-07-14T11:59:57Z</time>
      </trkpt>
      <trkpt lat="45.79081" lon="3.69894">
        <ele>1021.93</ele>
        <time>2013-07-14T12:00:16Z</time>
      </trkpt>
      <trkpt lat="45.79063" lon="3.69892">
        <ele>1018.95</ele>
        <time>2013-07-14T12:02:58Z</time>
      </trkpt>
      <trkpt lat="45.79081" lon="3.69885">
        <ele>1018.94</ele>
        <time>2013-07-14T12:04:39Z</time>
      </trkpt>
      <trkpt lat="45.79063" lon="3.69894">
        <ele>1018.37</ele>
        <time>2013-07-14T12:05:38Z</time>
      </trkpt>
      <trkpt lat="45.79085" lon="3.69889">
        <ele>1012.82</ele>
        <time>2013-07-14T12:05:49Z</time>
      </trkpt>
      <trkpt lat="45.79104" lon="3.69896">
        <ele>1003.24</ele>
        <time>2013-07-14T12:05:54Z</time>
      </trkpt>
      <trkpt lat="45.79122" lon="3.69905">
        <ele>999.13</ele>
        <time>2013-07-14T12:06:00Z</time>
      </trkpt>
      <trkpt lat="45.7914" lon="3.69917">
        <ele>994.96</ele>
        <time>2013-07-14T12:06:06Z</time>
      </trkpt>
      <trkpt lat="45.79158" lon="3.69924">
        <ele>982.74</ele>
        <time>2013-07-14T12:06:11Z</time>
      </trkpt>
      <trkpt lat="45.79177" lon="3.69924">
        <ele>975.98</ele>
        <time>2013-07-14T12:06:20Z</time>
      </trkpt>
      <trkpt lat="45.79198" lon="3.69924">
        <ele>973.24</ele>
        <time>2013-07-14T12:06:30Z</time>
      </trkpt>
      <trkpt lat="45.79216" lon="3.69935">
        <ele>972.98</ele>
        <time>2013-07-14T12:06:37Z</time>
      </trkpt>
      <trkpt lat="45.79234" lon="3.6995">
        <ele>973.21</ele>
        <time>2013-07-14T12:06:40Z</time>
      </trkpt>
      <trkpt lat="45.7925" lon="3.69967">
        <ele>974.9</ele>
        <time>2013-07-14T12:06:43Z</time>
      </trkpt>
      <trkpt lat="45.79266" lon="3.6998">
        <ele>976.91</ele>
        <time>2013-07-14T12:06:46Z</time>
      </trkpt>
      <trkpt lat="45.79283" lon="3.69995">
        <ele>978.09</ele>
        <time>2013-07-14T12:06:49Z</time>
      </trkpt>
      <trkpt lat="45.79302" lon="3.70012">
        <ele>978.14</ele>
        <time>2013-07-14T12:06:52Z</time>
      </trkpt>
      <trkpt lat="45.79319" lon="3.70029">
        <ele>977.59</ele>
        <time>2013-07-14T12:06:55Z</time>
      </trkpt>
      <trkpt lat="45.79338" lon="3.70042">
        <ele>977.15</ele>
        <time>2013-07-14T12:06:59Z</time>
      </trkpt>
      <trkpt lat="45.79358" lon="3.70046">
        <ele>976.56</ele>
        <time>2013-07-14T12:07:04Z</time>
      </trkpt>
      <trkpt lat="45.79376" lon="3.70053">
        <ele>975.2</ele>
        <time>2013-07-14T12:07:08Z</time>
      </trkpt>
      <trkpt lat="45.79396" lon="3.70057">
        <ele>973.99</ele>
        <time>2013-07-14T12:07:13Z</time>
      </trkpt>
      <trkpt lat="45.79414" lon="3.7007">
        <ele>970.53</ele>
        <time>2013-07-14T12:07:16Z</time>
      </trkpt>
      <trkpt lat="45.79429" lon="3.70087">
        <ele>968.02</ele>
        <time>2013-07-14T12:07:19Z</time>
      </trkpt>
      <trkpt lat="45.79446" lon="3.70111">
        <ele>965.92</ele>
        <time>2013-07-14T12:07:23Z</time>
      </trkpt>
      <trkpt lat="45.79459" lon="3.7013">
        <ele>965.35</ele>
        <time>2013-07-14T12:07:26Z</time>
      </trkpt>
      <trkpt lat="45.79473" lon="3.70147">
        <ele>964.43</ele>
        <time>2013-07-14T12:07:29Z</time>
      </trkpt>
      <trkpt lat="45.79489" lon="3.70164">
        <ele>962.31</ele>
        <time>2013-07-14T12:07:32Z</time>
      </trkpt>
      <trkpt lat="45.79505" lon="3.70183">
        <ele>959.67</ele>
        <time>2013-07-14T12:07:35Z</time>
      </trkpt>
      <trkpt lat="45.7952" lon="3.70203">
        <ele>956.58</ele>
        <time>2013-07-14T12:07:38Z</time>
      </trkpt>
      <trkpt lat="45.79536" lon="3.70222">
        <ele>953.79</ele>
        <time>2013-07-14T12:07:41Z</time>
      </trkpt>
      <trkpt lat="45.7955" lon="3.70239">
        <ele>952.11</ele>
        <time>2013-07-14T12:07:43Z</time>
      </trkpt>
      <trkpt lat="45.79566" lon="3.70261">
        <ele>950.47</ele>
        <time>2013-07-14T12:07:45Z</time>
      </trkpt>
      <trkpt lat="45.79582" lon="3.70282">
        <ele>949.37</ele>
        <time>2013-07-14T12:07:47Z</time>
      </trkpt>
      <trkpt lat="45.79597" lon="3.70304">
        <ele>948.31</ele>
        <time>2013-07-14T12:07:49Z</time>
      </trkpt>
      <trkpt lat="45.79612" lon="3.70323">
        <ele>947.46</ele>
        <time>2013-07-14T12:07:51Z</time>
      </trkpt>
      <trkpt lat="45.79634" lon="3.70342">
        <ele>946.33</ele>
        <time>2013-07-14T12:07:54Z</time>
      </trkpt>
      <trkpt lat="45.79658" lon="3.70347">
        <ele>944.7</ele>
        <time>2013-07-14T12:07:57Z</time>
      </trkpt>
      <trkpt lat="45.7968" lon="3.70353">
        <ele>943.69</ele>
        <time>2013-07-14T12:08:00Z</time>
      </trkpt>
      <trkpt lat="45.79692" lon="3.70329">
        <ele>942.7</ele>
        <time>2013-07-14T12:08:17Z</time>
      </trkpt>
      <trkpt lat="45.79685" lon="3.70297">
        <ele>941.83</ele>
        <time>2013-07-14T12:08:23Z</time>
      </trkpt>
      <trkpt lat="45.79682" lon="3.70271">
        <ele>940.97</ele>
        <time>2013-07-14T12:08:27Z</time>
      </trkpt>
      <trkpt lat="45.79681" lon="3.70246">
        <ele>939.61</ele>
        <time>2013-07-14T12:08:32Z</time>
      </trkpt>
      <trkpt lat="45.79677" lon="3.70218">
        <ele>937.92</ele>
        <time>2013-07-14T12:08:37Z</time>
      </trkpt>
      <trkpt lat="45.79664" lon="3.7019">
        <ele>934.37</ele>
        <time>2013-07-14T12:08:41Z</time>
      </trkpt>
      <trkpt lat="45.79655" lon="3.70164">
        <ele>932.39</ele>
        <time>2013-07-14T12:08:44Z</time>
      </trkpt>
      <trkpt lat="45.79663" lon="3.70136">
        <ele>931.55</ele>
        <time>2013-07-14T12:08:47Z</time>
      </trkpt>
      <trkpt lat="45.79685" lon="3.7013">
        <ele>931.2</ele>
        <time>2013-07-14T12:08:50Z</time>
      </trkpt>
      <trkpt lat="45.79705" lon="3.70132">
        <ele>930.47</ele>
        <time>2013-07-14T12:08:53Z</time>
      </trkpt>
      <trkpt lat="45.79724" lon="3.70136">
        <ele>928.99</ele>
        <time>2013-07-14T12:08:57Z</time>
      </trkpt>
      <trkpt lat="45.79744" lon="3.70141">
        <ele>927.31</ele>
        <time>2013-07-14T12:09:03Z</time>
      </trkpt>
      <trkpt lat="45.79765" lon="3.70136">
        <ele>926.98</ele>
        <time>2013-07-14T12:09:11Z</time>
      </trkpt>
      <trkpt lat="45.79788" lon="3.70123">
        <ele>927.2</ele>
        <time>2013-07-14T12:09:20Z</time>
      </trkpt>
      <trkpt lat="45.79809" lon="3.70106">
        <ele>929.03</ele>
        <time>2013-07-14T12:09:31Z</time>
      </trkpt>
      <trkpt lat="45.79823" lon="3.70085">
        <ele>930.91</ele>
        <time>2013-07-14T12:09:41Z</time>
      </trkpt>
      <trkpt lat="45.79835" lon="3.70061">
        <ele>936.44</ele>
        <time>2013-07-14T12:11:47Z</time>
      </trkpt>
      <trkpt lat="45.79852" lon="3.7008">
        <ele>941.71</ele>
        <time>2013-07-14T12:11:57Z</time>
      </trkpt>
      <trkpt lat="45.79871" lon="3.70104">
        <ele>943.38</ele>
        <time>2013-07-14T12:12:01Z</time>
      </trkpt>
      <trkpt lat="45.79886" lon="3.70119">
        <ele>944.72</ele>
        <time>2013-07-14T12:12:04Z</time>
      </trkpt>
      <trkpt lat="45.79904" lon="3.7013">
        <ele>946.49</ele>
        <time>2013-07-14T12:12:08Z</time>
      </trkpt>
      <trkpt lat="45.79923" lon="3.70138">
        <ele>948.95</ele>
        <time>2013-07-14T12:12:15Z</time>
      </trkpt>
      <trkpt lat="45.79942" lon="3.70143">
        <ele>952.09</ele>
        <time>2013-07-14T12:12:26Z</time>
      </trkpt>
      <trkpt lat="45.79956" lon="3.7016">
        <ele>956.27</ele>
        <time>2013-07-14T12:12:43Z</time>
      </trkpt>
      <trkpt lat="45.79972" lon="3.70173">
        <ele>960.26</ele>
        <time>2013-07-14T12:13:01Z</time>
      </trkpt>
      <trkpt lat="45.7999" lon="3.70177">
        <ele>966.25</ele>
        <time>2013-07-14T12:13:20Z</time>
      </trkpt>
      <trkpt lat="45.80005" lon="3.70192">
        <ele>970.51</ele>
        <time>2013-07-14T12:13:44Z</time>
      </trkpt>
      <trkpt lat="45.80022" lon="3.70203">
        <ele>971.93</ele>
        <time>2013-07-14T12:14:15Z</time>
      </trkpt>
      <trkpt lat="45.8004" lon="3.70209">
        <ele>975.61</ele>
        <time>2013-07-14T12:14:35Z</time>
      </trkpt>
      <trkpt lat="45.80056" lon="3.70222">
        <ele>979.03</ele>
        <time>2013-07-14T12:14:57Z</time>
      </trkpt>
      <trkpt lat="45.80073" lon="3.70235">
        <ele>981.36</ele>
        <time>2013-07-14T12:15:17Z</time>
      </trkpt>
      <trkpt lat="45.80086" lon="3.70218">
        <ele>985.65</ele>
        <time>2013-07-14T12:15:42Z</time>
      </trkpt>
      <trkpt lat="45.8009" lon="3.70192">
        <ele>987.86</ele>
        <time>2013-07-14T12:16:01Z</time>
      </trkpt>
      <trkpt lat="45.80092" lon="3.70166">
        <ele>989.19</ele>
        <time>2013-07-14T12:16:27Z</time>
      </trkpt>
      <trkpt lat="45.80091" lon="3.70141">
        <ele>991.3</ele>
        <time>2013-07-14T12:16:47Z</time>
      </trkpt>
      <trkpt lat="45.80096" lon="3.70115">
        <ele>993.46</ele>
        <time>2013-07-14T12:17:03Z</time>
      </trkpt>
      <trkpt lat="45.80096" lon="3.70089">
        <ele>996.49</ele>
        <time>2013-07-14T12:17:18Z</time>
      </trkpt>
      <trkpt lat="45.80097" lon="3.70063">
        <ele>1001.96</ele>
        <time>2013-07-14T12:17:41Z</time>
      </trkpt>
      <trkpt lat="45.80099" lon="3.70038">
        <ele>1004.93</ele>
        <time>2013-07-14T12:18:06Z</time>
      </trkpt>
      <trkpt lat="45.80105" lon="3.70012">
        <ele>1008.19</ele>
        <time>2013-07-14T12:18:28Z</time>
      </trkpt>
      <trkpt lat="45.8011" lon="3.69986">
        <ele>1010.9</ele>
        <time>2013-07-14T12:18:50Z</time>
      </trkpt>
      <trkpt lat="45.80115" lon="3.6996">
        <ele>1014.84</ele>
        <time>2013-07-14T12:19:11Z</time>
      </trkpt>
      <trkpt lat="45.80125" lon="3.69937">
        <ele>1019.66</ele>
        <time>2013-07-14T12:19:28Z</time>
      </trkpt>
      <trkpt lat="45.80136" lon="3.69915">
        <ele>1024.28</ele>
        <time>2013-07-14T12:19:45Z</time>
      </trkpt>
      <trkpt lat="45.80142" lon="3.69889">
        <ele>1029.57</ele>
        <time>2013-07-14T12:20:08Z</time>
      </trkpt>
      <trkpt lat="45.80153" lon="3.69866">
        <ele>1036.49</ele>
        <time>2013-07-14T12:20:24Z</time>
      </trkpt>
      <trkpt lat="45.80169" lon="3.69851">
        <ele>1042.06</ele>
        <time>2013-07-14T12:20:37Z</time>
      </trkpt>
      <trkpt lat="45.80187" lon="3.69844">
        <ele>1050.46</ele>
        <time>2013-07-14T12:21:01Z</time>
      </trkpt>
      <trkpt lat="45.80206" lon="3.69836">
        <ele>1054.3</ele>
        <time>2013-07-14T12:21:14Z</time>
      </trkpt>
      <trkpt lat="45.80218" lon="3.69814">
        <ele>1056.53</ele>
        <time>2013-07-14T12:21:26Z</time>
      </trkpt>
      <trkpt lat="45.80224" lon="3.69789">
        <ele>1058.65</ele>
        <time>2013-07-14T12:21:38Z</time>
      </trkpt>
      <trkpt lat="45.80227" lon="3.69763">
        <ele>1064.6</ele>
        <time>2013-07-14T12:23:22Z</time>
      </trkpt>
      <trkpt lat="45.80245" lon="3.69759">
        <ele>1066.86</ele>
        <time>2013-07-14T12:23:39Z</time>
      </trkpt>
      <trkpt lat="45.80265" lon="3.69756">
        <ele>1070.58</ele>
        <time>2013-07-14T12:23:51Z</time>
      </trkpt>
      <trkpt lat="45.80283" lon="3.69754">
        <ele>1075.64</ele>
        <time>2013-07-14T12:24:07Z</time>
      </trkpt>
      <trkpt lat="45.80302" lon="3.69756">
        <ele>1077.53</ele>
        <time>2013-07-14T12:24:14Z</time>
      </trkpt>
      <trkpt lat="45.8032" lon="3.69756">
        <ele>1079.06</ele>
        <time>2013-07-14T12:24:23Z</time>
      </trkpt>
      <trkpt lat="45.8034" lon="3.6975">
        <ele>1079.35</ele>
        <time>2013-07-14T12:24:29Z</time>
      </trkpt>
      <trkpt lat="45.80357" lon="3.69741">
        <ele>1079.02</ele>
        <time>2013-07-14T12:24:35Z</time>
      </trkpt>
      <trkpt lat="45.80374" lon="3.69729">
        <ele>1078.71</ele>
        <time>2013-07-14T12:24:41Z</time>
      </trkpt>
      <trkpt lat="45.80393" lon="3.69716">
        <ele>1077.69</ele>
        <time>2013-07-14T12:24:46Z</time>
      </trkpt>
      <trkpt lat="45.80414" lon="3.69703">
        <ele>1076.44</ele>
        <time>2013-07-14T12:24:51Z</time>
      </trkpt>
      <trkpt lat="45.80431" lon="3.69694">
        <ele>1075.3</ele>
        <time>2013-07-14T12:24:56Z</time>
      </trkpt>
      <trkpt lat="45.80451" lon="3.69679">
        <ele>1074.59</ele>
        <time>2013-07-14T12:25:01Z</time>
      </trkpt>
      <trkpt lat="45.80465" lon="3.6966">
        <ele>1074.06</ele>
        <time>2013-07-14T12:25:07Z</time>
      </trkpt>
      <trkpt lat="45.80476" lon="3.69638">
        <ele>1073.96</ele>
        <time>2013-07-14T12:25:13Z</time>
      </trkpt>
      <trkpt lat="45.80489" lon="3.69615">
        <ele>1073.95</ele>
        <time>2013-07-14T12:25:19Z</time>
      </trkpt>
      <trkpt lat="45.80502" lon="3.69591">
        <ele>1073.51</ele>
        <time>2013-07-14T12:25:25Z</time>
      </trkpt>
      <trkpt lat="45.80517" lon="3.69574">
        <ele>1074.09</ele>
        <time>2013-07-14T12:25:30Z</time>
      </trkpt>
      <trkpt lat="45.80536" lon="3.69574">
        <ele>1075.51</ele>
        <time>2013-07-14T12:25:37Z</time>
      </trkpt>
      <trkpt lat="45.80553" lon="3.69585">
        <ele>1077.44</ele>
        <time>2013-07-14T12:25:44Z</time>
      </trkpt>
      <trkpt lat="45.80571" lon="3.69587">
        <ele>1079.68</ele>
        <time>2013-07-14T12:25:54Z</time>
      </trkpt>
      <trkpt lat="45.80589" lon="3.69572">
        <ele>1081.1</ele>
        <time>2013-07-14T12:26:03Z</time>
      </trkpt>
      <trkpt lat="45.80603" lon="3.6955">
        <ele>1081.86</ele>
        <time>2013-07-14T12:26:11Z</time>
      </trkpt>
      <trkpt lat="45.80618" lon="3.69533">
        <ele>1082.75</ele>
        <time>2013-07-14T12:26:18Z</time>
      </trkpt>
      <trkpt lat="45.80629" lon="3.6951">
        <ele>1083.36</ele>
        <time>2013-07-14T12:26:26Z</time>
      </trkpt>
      <trkpt lat="45.8064" lon="3.69486">
        <ele>1084.52</ele>
        <time>2013-07-14T12:26:32Z</time>
      </trkpt>
      <trkpt lat="45.80651" lon="3.69462">
        <ele>1086.69</ele>
        <time>2013-07-14T12:26:39Z</time>
      </trkpt>
      <trkpt lat="45.80664" lon="3.69443">
        <ele>1089.02</ele>
        <time>2013-07-14T12:26:47Z</time>
      </trkpt>
      <trkpt lat="45.80679" lon="3.69428">
        <ele>1091.92</ele>
        <time>2013-07-14T12:26:55Z</time>
      </trkpt>
      <trkpt lat="45.80696" lon="3.69417">
        <ele>1095.57</ele>
        <time>2013-07-14T12:27:05Z</time>
      </trkpt>
      <trkpt lat="45.80715" lon="3.6942">
        <ele>1098.61</ele>
        <time>2013-07-14T12:27:13Z</time>
      </trkpt>
      <trkpt lat="45.80733" lon="3.69424">
        <ele>1101.02</ele>
        <time>2013-07-14T12:27:20Z</time>
      </trkpt>
      <trkpt lat="45.80753" lon="3.69417">
        <ele>1102.64</ele>
        <time>2013-07-14T12:27:27Z</time>
      </trkpt>
      <trkpt lat="45.80768" lon="3.69402">
        <ele>1103.65</ele>
        <time>2013-07-14T12:27:33Z</time>
      </trkpt>
      <trkpt lat="45.80778" lon="3.69381">
        <ele>1103.91</ele>
        <time>2013-07-14T12:27:40Z</time>
      </trkpt>
      <trkpt lat="45.80793" lon="3.69364">
        <ele>1104.52</ele>
        <time>2013-07-14T12:27:47Z</time>
      </trkpt>
      <trkpt lat="45.80809" lon="3.69349">
        <ele>1105.42</ele>
        <time>2013-07-14T12:27:52Z</time>
      </trkpt>
      <trkpt lat="45.80824" lon="3.69334">
        <ele>1106.43</ele>
        <time>2013-07-14T12:27:58Z</time>
      </trkpt>
      <trkpt lat="45.80837" lon="3.69314">
        <ele>1106.82</ele>
        <time>2013-07-14T12:28:03Z</time>
      </trkpt>
      <trkpt lat="45.80856" lon="3.69297">
        <ele>1106.92</ele>
        <time>2013-07-14T12:28:08Z</time>
      </trkpt>
      <trkpt lat="45.80874" lon="3.69282">
        <ele>1106.94</ele>
        <time>2013-07-14T12:28:13Z</time>
      </trkpt>
      <trkpt lat="45.8089" lon="3.69265">
        <ele>1106.94</ele>
        <time>2013-07-14T12:28:18Z</time>
      </trkpt>
      <trkpt lat="45.80904" lon="3.69244">
        <ele>1106.37</ele>
        <time>2013-07-14T12:28:24Z</time>
      </trkpt>
      <trkpt lat="45.80915" lon="3.6922">
        <ele>1106.02</ele>
        <time>2013-07-14T12:28:30Z</time>
      </trkpt>
      <trkpt lat="45.80922" lon="3.69196">
        <ele>1105.96</ele>
        <time>2013-07-14T12:28:35Z</time>
      </trkpt>
      <trkpt lat="45.80928" lon="3.69169">
        <ele>1105.95</ele>
        <time>2013-07-14T12:28:41Z</time>
      </trkpt>
      <trkpt lat="45.80933" lon="3.69141">
        <ele>1106.63</ele>
        <time>2013-07-14T12:28:48Z</time>
      </trkpt>
      <trkpt lat="45.80935" lon="3.69115">
        <ele>1106.89</ele>
        <time>2013-07-14T12:28:54Z</time>
      </trkpt>
      <trkpt lat="45.80935" lon="3.69087">
        <ele>1106.94</ele>
        <time>2013-07-14T12:29:01Z</time>
      </trkpt>
      <trkpt lat="45.80935" lon="3.69061">
        <ele>1107.77</ele>
        <time>2013-07-14T12:29:08Z</time>
      </trkpt>
      <trkpt lat="45.80936" lon="3.69035">
        <ele>1109.38</ele>
        <time>2013-07-14T12:29:41Z</time>
      </trkpt>
      <trkpt lat="45.80936" lon="3.69008">
        <ele>1110.42</ele>
        <time>2013-07-14T12:29:47Z</time>
      </trkpt>
      <trkpt lat="45.80937" lon="3.68982">
        <ele>1110.47</ele>
        <time>2013-07-14T12:29:56Z</time>
      </trkpt>
      <trkpt lat="45.80944" lon="3.68956">
        <ele>1108.94</ele>
        <time>2013-07-14T12:30:55Z</time>
      </trkpt>
      <trkpt lat="45.8096" lon="3.68943">
        <ele>1106.37</ele>
        <time>2013-07-14T12:34:56Z</time>
      </trkpt>
      <trkpt lat="45.80971" lon="3.68922">
        <ele>1105.52</ele>
        <time>2013-07-14T12:35:08Z</time>
      </trkpt>
      <trkpt lat="45.80968" lon="3.68896">
        <ele>1104.94</ele>
        <time>2013-07-14T12:35:43Z</time>
      </trkpt>
      <trkpt lat="45.80986" lon="3.68875">
        <ele>1105.47</ele>
        <time>2013-07-14T12:40:43Z</time>
      </trkpt>
      <trkpt lat="45.81005" lon="3.68866">
        <ele>1100.65</ele>
        <time>2013-07-14T12:40:46Z</time>
      </trkpt>
      <trkpt lat="45.81024" lon="3.68855">
        <ele>1094.95</ele>
        <time>2013-07-14T12:40:50Z</time>
      </trkpt>
      <trkpt lat="45.81042" lon="3.68845">
        <ele>1092.32</ele>
        <time>2013-07-14T12:40:54Z</time>
      </trkpt>
      <trkpt lat="45.81066" lon="3.68827">
        <ele>1086.19</ele>
        <time>2013-07-14T12:43:05Z</time>
      </trkpt>
      <trkpt lat="45.81085" lon="3.68817">
        <ele>1076.91</ele>
        <time>2013-07-14T12:43:29Z</time>
      </trkpt>
      <trkpt lat="45.81105" lon="3.68812">
        <ele>1072.04</ele>
        <time>2013-07-14T12:43:36Z</time>
      </trkpt>
      <trkpt lat="45.81123" lon="3.68812">
        <ele>1064.43</ele>
        <time>2013-07-14T12:43:48Z</time>
      </trkpt>
      <trkpt lat="45.81142" lon="3.68808">
        <ele>1060.61</ele>
        <time>2013-07-14T12:43:54Z</time>
      </trkpt>
      <trkpt lat="45.8116" lon="3.68804">
        <ele>1057.96</ele>
        <time>2013-07-14T12:43:58Z</time>
      </trkpt>
      <trkpt lat="45.81181" lon="3.68808">
        <ele>1054.64</ele>
        <time>2013-07-14T12:44:03Z</time>
      </trkpt>
      <trkpt lat="45.81201" lon="3.68817">
        <ele>1051.21</ele>
        <time>2013-07-14T12:44:08Z</time>
      </trkpt>
      <trkpt lat="45.81224" lon="3.68832">
        <ele>1043.25</ele>
        <time>2013-07-14T12:44:11Z</time>
      </trkpt>
      <trkpt lat="45.8124" lon="3.68845">
        <ele>1034.82</ele>
        <time>2013-07-14T12:44:14Z</time>
      </trkpt>
      <trkpt lat="45.81261" lon="3.68851">
        <ele>1029.14</ele>
        <time>2013-07-14T12:44:19Z</time>
      </trkpt>
      <trkpt lat="45.8128" lon="3.68853">
        <ele>1027.46</ele>
        <time>2013-07-14T12:44:24Z</time>
      </trkpt>
      <trkpt lat="45.81298" lon="3.6886">
        <ele>1026.28</ele>
        <time>2013-07-14T12:44:28Z</time>
      </trkpt>
      <trkpt lat="45.81319" lon="3.68872">
        <ele>1025.95</ele>
        <time>2013-07-14T12:44:32Z</time>
      </trkpt>
      <trkpt lat="45.81336" lon="3.68883">
        <ele>1026.63</ele>
        <time>2013-07-14T12:44:35Z</time>
      </trkpt>
      <trkpt lat="45.81357" lon="3.6889">
        <ele>1028.22</ele>
        <time>2013-07-14T12:44:38Z</time>
      </trkpt>
      <trkpt lat="45.8138" lon="3.68896">
        <ele>1030.04</ele>
        <time>2013-07-14T12:44:41Z</time>
      </trkpt>
      <trkpt lat="45.81399" lon="3.68902">
        <ele>1030.88</ele>
        <time>2013-07-14T12:44:43Z</time>
      </trkpt>
      <trkpt lat="45.8142" lon="3.68911">
        <ele>1030.92</ele>
        <time>2013-07-14T12:44:46Z</time>
      </trkpt>
      <trkpt lat="45.81437" lon="3.68924">
        <ele>1030.93</ele>
        <time>2013-07-14T12:44:49Z</time>
      </trkpt>
      <trkpt lat="45.81452" lon="3.68941">
        <ele>1030</ele>
        <time>2013-07-14T12:44:52Z</time>
      </trkpt>
      <trkpt lat="45.8147" lon="3.68963">
        <ele>1026.53</ele>
        <time>2013-07-14T12:44:55Z</time>
      </trkpt>
      <trkpt lat="45.8149" lon="3.6898">
        <ele>1023.44</ele>
        <time>2013-07-14T12:44:58Z</time>
      </trkpt>
      <trkpt lat="45.8151" lon="3.68997">
        <ele>1020.29</ele>
        <time>2013-07-14T12:45:01Z</time>
      </trkpt>
      <trkpt lat="45.81531" lon="3.69016">
        <ele>1017.53</ele>
        <time>2013-07-14T12:45:04Z</time>
      </trkpt>
      <trkpt lat="45.81546" lon="3.69031">
        <ele>1015.27</ele>
        <time>2013-07-14T12:45:06Z</time>
      </trkpt>
      <trkpt lat="45.81571" lon="3.69042">
        <ele>1012.33</ele>
        <time>2013-07-14T12:45:09Z</time>
      </trkpt>
      <trkpt lat="45.81595" lon="3.69055">
        <ele>1009.94</ele>
        <time>2013-07-14T12:45:12Z</time>
      </trkpt>
      <trkpt lat="45.81617" lon="3.69063">
        <ele>1008.21</ele>
        <time>2013-07-14T12:45:15Z</time>
      </trkpt>
      <trkpt lat="45.81638" lon="3.69072">
        <ele>1006.9</ele>
        <time>2013-07-14T12:45:18Z</time>
      </trkpt>
      <trkpt lat="45.81657" lon="3.69078">
        <ele>1005.66</ele>
        <time>2013-07-14T12:45:21Z</time>
      </trkpt>
      <trkpt lat="45.81676" lon="3.69091">
        <ele>1003.65</ele>
        <time>2013-07-14T12:45:24Z</time>
      </trkpt>
      <trkpt lat="45.81696" lon="3.69104">
        <ele>1000.96</ele>
        <time>2013-07-14T12:45:27Z</time>
      </trkpt>
      <trkpt lat="45.81712" lon="3.69117">
        <ele>997.37</ele>
        <time>2013-07-14T12:45:30Z</time>
      </trkpt>
      <trkpt lat="45.81722" lon="3.69143">
        <ele>993.98</ele>
        <time>2013-07-14T12:45:36Z</time>
      </trkpt>
      <trkpt lat="45.81717" lon="3.69173">
        <ele>993.27</ele>
        <time>2013-07-14T12:45:40Z</time>
      </trkpt>
      <trkpt lat="45.8171" lon="3.69203">
        <ele>993.27</ele>
        <time>2013-07-14T12:45:43Z</time>
      </trkpt>
      <trkpt lat="45.81709" lon="3.69237">
        <ele>993.08</ele>
        <time>2013-07-14T12:45:46Z</time>
      </trkpt>
      <trkpt lat="45.81719" lon="3.69259">
        <ele>993.46</ele>
        <time>2013-07-14T12:45:48Z</time>
      </trkpt>
      <trkpt lat="45.81737" lon="3.69284">
        <ele>993.74</ele>
        <time>2013-07-14T12:45:51Z</time>
      </trkpt>
      <trkpt lat="45.81753" lon="3.69308">
        <ele>992.59</ele>
        <time>2013-07-14T12:45:54Z</time>
      </trkpt>
      <trkpt lat="45.81767" lon="3.69325">
        <ele>990.81</ele>
        <time>2013-07-14T12:45:57Z</time>
      </trkpt>
      <trkpt lat="45.81782" lon="3.69342">
        <ele>987.59</ele>
        <time>2013-07-14T12:46:01Z</time>
      </trkpt>
      <trkpt lat="45.818" lon="3.69359">
        <ele>983.15</ele>
        <time>2013-07-14T12:46:05Z</time>
      </trkpt>
      <trkpt lat="45.81817" lon="3.6937">
        <ele>980.03</ele>
        <time>2013-07-14T12:46:08Z</time>
      </trkpt>
      <trkpt lat="45.81833" lon="3.69385">
        <ele>976.98</ele>
        <time>2013-07-14T12:46:11Z</time>
      </trkpt>
      <trkpt lat="45.81844" lon="3.69407">
        <ele>972.85</ele>
        <time>2013-07-14T12:46:15Z</time>
      </trkpt>
      <trkpt lat="45.81827" lon="3.69426">
        <ele>966.96</ele>
        <time>2013-07-14T12:46:19Z</time>
      </trkpt>
      <trkpt lat="45.81803" lon="3.69441">
        <ele>961.67</ele>
        <time>2013-07-14T12:46:22Z</time>
      </trkpt>
      <trkpt lat="45.81779" lon="3.69447">
        <ele>956.52</ele>
        <time>2013-07-14T12:46:25Z</time>
      </trkpt>
      <trkpt lat="45.81758" lon="3.69454">
        <ele>949.93</ele>
        <time>2013-07-14T12:46:29Z</time>
      </trkpt>
      <trkpt lat="45.81757" lon="3.69482">
        <ele>941.65</ele>
        <time>2013-07-14T12:46:36Z</time>
      </trkpt>
      <trkpt lat="45.81775" lon="3.69495">
        <ele>935.9</ele>
        <time>2013-07-14T12:46:40Z</time>
      </trkpt>
      <trkpt lat="45.81793" lon="3.69505">
        <ele>930.81</ele>
        <time>2013-07-14T12:46:44Z</time>
      </trkpt>
      <trkpt lat="45.81819" lon="3.6952">
        <ele>926.37</ele>
        <time>2013-07-14T12:46:53Z</time>
      </trkpt>
      <trkpt lat="45.81816" lon="3.69546">
        <ele>926.94</ele>
        <time>2013-07-14T12:50:36Z</time>
      </trkpt>
      <trkpt lat="45.81826" lon="3.69574">
        <ele>925.82</ele>
        <time>2013-07-14T12:50:48Z</time>
      </trkpt>
      <trkpt lat="45.81841" lon="3.69593">
        <ele>924.31</ele>
        <time>2013-07-14T12:50:50Z</time>
      </trkpt>
      <trkpt lat="45.81858" lon="3.69611">
        <ele>920.99</ele>
        <time>2013-07-14T12:50:54Z</time>
      </trkpt>
      <trkpt lat="45.81863" lon="3.69638">
        <ele>917.3</ele>
        <time>2013-07-14T12:50:59Z</time>
      </trkpt>
      <trkpt lat="45.81845" lon="3.69651">
        <ele>915.5</ele>
        <time>2013-07-14T12:51:02Z</time>
      </trkpt>
      <trkpt lat="45.81831" lon="3.69671">
        <ele>912.18</ele>
        <time>2013-07-14T12:51:07Z</time>
      </trkpt>
      <trkpt lat="45.81847" lon="3.69692">
        <ele>909.39</ele>
        <time>2013-07-14T12:51:11Z</time>
      </trkpt>
      <trkpt lat="45.81865" lon="3.69701">
        <ele>906.71</ele>
        <time>2013-07-14T12:51:14Z</time>
      </trkpt>
      <trkpt lat="45.81888" lon="3.69709">
        <ele>904.17</ele>
        <time>2013-07-14T12:51:17Z</time>
      </trkpt>
      <trkpt lat="45.81911" lon="3.6972">
        <ele>901.04</ele>
        <time>2013-07-14T12:51:20Z</time>
      </trkpt>
      <trkpt lat="45.8193" lon="3.69724">
        <ele>899</ele>
        <time>2013-07-14T12:51:22Z</time>
      </trkpt>
      <trkpt lat="45.81948" lon="3.69726">
        <ele>896.97</ele>
        <time>2013-07-14T12:51:24Z</time>
      </trkpt>
      <trkpt lat="45.81969" lon="3.69733">
        <ele>894.71</ele>
        <time>2013-07-14T12:51:26Z</time>
      </trkpt>
      <trkpt lat="45.81987" lon="3.69754">
        <ele>891.69</ele>
        <time>2013-07-14T12:51:28Z</time>
      </trkpt>
      <trkpt lat="45.82003" lon="3.69776">
        <ele>888.93</ele>
        <time>2013-07-14T12:51:30Z</time>
      </trkpt>
      <trkpt lat="45.82018" lon="3.69799">
        <ele>886.5</ele>
        <time>2013-07-14T12:51:32Z</time>
      </trkpt>
      <trkpt lat="45.82035" lon="3.69821">
        <ele>884.5</ele>
        <time>2013-07-14T12:51:34Z</time>
      </trkpt>
      <trkpt lat="45.82053" lon="3.69842">
        <ele>882.95</ele>
        <time>2013-07-14T12:51:36Z</time>
      </trkpt>
      <trkpt lat="45.82073" lon="3.69855">
        <ele>881.63</ele>
        <time>2013-07-14T12:51:38Z</time>
      </trkpt>
      <trkpt lat="45.82098" lon="3.69855">
        <ele>880.89</ele>
        <time>2013-07-14T12:51:40Z</time>
      </trkpt>
      <trkpt lat="45.82122" lon="3.69855">
        <ele>880.48</ele>
        <time>2013-07-14T12:51:42Z</time>
      </trkpt>
      <trkpt lat="45.82146" lon="3.69857">
        <ele>880.24</ele>
        <time>2013-07-14T12:51:44Z</time>
      </trkpt>
      <trkpt lat="45.82171" lon="3.69868">
        <ele>879.93</ele>
        <time>2013-07-14T12:51:46Z</time>
      </trkpt>
      <trkpt lat="45.82195" lon="3.69877">
        <ele>879.5</ele>
        <time>2013-07-14T12:51:48Z</time>
      </trkpt>
      <trkpt lat="45.82216" lon="3.69874">
        <ele>879</ele>
        <time>2013-07-14T12:51:50Z</time>
      </trkpt>
      <trkpt lat="45.82234" lon="3.69868">
        <ele>877.85</ele>
        <time>2013-07-14T12:51:52Z</time>
      </trkpt>
      <trkpt lat="45.82252" lon="3.69857">
        <ele>876.77</ele>
        <time>2013-07-14T12:51:54Z</time>
      </trkpt>
      <trkpt lat="45.82271" lon="3.69844">
        <ele>875.97</ele>
        <time>2013-07-14T12:51:56Z</time>
      </trkpt>
      <trkpt lat="45.82292" lon="3.69829">
        <ele>875.08</ele>
        <time>2013-07-14T12:51:58Z</time>
      </trkpt>
      <trkpt lat="45.82316" lon="3.69814">
        <ele>874.34</ele>
        <time>2013-07-14T12:52:00Z</time>
      </trkpt>
      <trkpt lat="45.82343" lon="3.69795">
        <ele>873.73</ele>
        <time>2013-07-14T12:52:02Z</time>
      </trkpt>
      <trkpt lat="45.82371" lon="3.69778">
        <ele>872.7</ele>
        <time>2013-07-14T12:52:04Z</time>
      </trkpt>
      <trkpt lat="45.82397" lon="3.69763">
        <ele>871.49</ele>
        <time>2013-07-14T12:52:06Z</time>
      </trkpt>
      <trkpt lat="45.82426" lon="3.69752">
        <ele>870.38</ele>
        <time>2013-07-14T12:52:08Z</time>
      </trkpt>
      <trkpt lat="45.82453" lon="3.69735">
        <ele>869.75</ele>
        <time>2013-07-14T12:52:10Z</time>
      </trkpt>
      <trkpt lat="45.82479" lon="3.69716">
        <ele>869.4</ele>
        <time>2013-07-14T12:52:12Z</time>
      </trkpt>
      <trkpt lat="45.82502" lon="3.69694">
        <ele>868.51</ele>
        <time>2013-07-14T12:52:14Z</time>
      </trkpt>
      <trkpt lat="45.82526" lon="3.69673">
        <ele>867.14</ele>
        <time>2013-07-14T12:52:16Z</time>
      </trkpt>
      <trkpt lat="45.82552" lon="3.69653">
        <ele>865.49</ele>
        <time>2013-07-14T12:52:18Z</time>
      </trkpt>
      <trkpt lat="45.82576" lon="3.69641">
        <ele>863.69</ele>
        <time>2013-07-14T12:52:20Z</time>
      </trkpt>
      <trkpt lat="45.82597" lon="3.69626">
        <ele>857.34</ele>
        <time>2013-07-14T12:52:24Z</time>
      </trkpt>
      <trkpt lat="45.82615" lon="3.69617">
        <ele>850.19</ele>
        <time>2013-07-14T12:52:28Z</time>
      </trkpt>
      <trkpt lat="45.8264" lon="3.69608">
        <ele>845.64</ele>
        <time>2013-07-14T12:52:31Z</time>
      </trkpt>
      <trkpt lat="45.82665" lon="3.69591">
        <ele>841.91</ele>
        <time>2013-07-14T12:52:34Z</time>
      </trkpt>
      <trkpt lat="45.82683" lon="3.69581">
        <ele>839.92</ele>
        <time>2013-07-14T12:52:36Z</time>
      </trkpt>
      <trkpt lat="45.82705" lon="3.69565">
        <ele>837.93</ele>
        <time>2013-07-14T12:52:38Z</time>
      </trkpt>
      <trkpt lat="45.82726" lon="3.6955">
        <ele>836.38</ele>
        <time>2013-07-14T12:52:40Z</time>
      </trkpt>
      <trkpt lat="45.82745" lon="3.69533">
        <ele>834.62</ele>
        <time>2013-07-14T12:52:42Z</time>
      </trkpt>
      <trkpt lat="45.82763" lon="3.69516">
        <ele>832.76</ele>
        <time>2013-07-14T12:52:44Z</time>
      </trkpt>
      <trkpt lat="45.82778" lon="3.69495">
        <ele>830.84</ele>
        <time>2013-07-14T12:52:46Z</time>
      </trkpt>
      <trkpt lat="45.82779" lon="3.69467">
        <ele>828.39</ele>
        <time>2013-07-14T12:52:48Z</time>
      </trkpt>
      <trkpt lat="45.82784" lon="3.69439">
        <ele>822.47</ele>
        <time>2013-07-14T12:52:52Z</time>
      </trkpt>
      <trkpt lat="45.82791" lon="3.69467">
        <ele>809.92</ele>
        <time>2013-07-14T12:53:10Z</time>
      </trkpt>
      <trkpt lat="45.82791" lon="3.69493">
        <ele>804.13</ele>
        <time>2013-07-14T12:53:16Z</time>
      </trkpt>
      <trkpt lat="45.82788" lon="3.6952">
        <ele>799.75</ele>
        <time>2013-07-14T12:53:21Z</time>
      </trkpt>
      <trkpt lat="45.82782" lon="3.69546">
        <ele>791.46</ele>
        <time>2013-07-14T12:53:25Z</time>
      </trkpt>
      <trkpt lat="45.82771" lon="3.69574">
        <ele>775.11</ele>
        <time>2013-07-14T12:53:29Z</time>
      </trkpt>
      <trkpt lat="45.8276" lon="3.696">
        <ele>764.27</ele>
        <time>2013-07-14T12:53:33Z</time>
      </trkpt>
      <trkpt lat="45.82753" lon="3.69626">
        <ele>758.68</ele>
        <time>2013-07-14T12:53:38Z</time>
      </trkpt>
      <trkpt lat="45.82753" lon="3.69656">
        <ele>756.78</ele>
        <time>2013-07-14T12:53:43Z</time>
      </trkpt>
      <trkpt lat="45.82754" lon="3.69686">
        <ele>755.89</ele>
        <time>2013-07-14T12:53:48Z</time>
      </trkpt>
      <trkpt lat="45.82753" lon="3.69714">
        <ele>754.81</ele>
        <time>2013-07-14T12:53:52Z</time>
      </trkpt>
      <trkpt lat="45.82743" lon="3.69737">
        <ele>754.56</ele>
        <time>2013-07-14T12:53:55Z</time>
      </trkpt>
      <trkpt lat="45.82719" lon="3.69746">
        <ele>755.03</ele>
        <time>2013-07-14T12:53:58Z</time>
      </trkpt>
      <trkpt lat="45.82697" lon="3.69746">
        <ele>755.56</ele>
        <time>2013-07-14T12:54:01Z</time>
      </trkpt>
      <trkpt lat="45.82674" lon="3.69752">
        <ele>754.31</ele>
        <time>2013-07-14T12:54:05Z</time>
      </trkpt>
      <trkpt lat="45.82661" lon="3.6978">
        <ele>750.74</ele>
        <time>2013-07-14T12:54:09Z</time>
      </trkpt>
      <trkpt lat="45.82654" lon="3.6981">
        <ele>748.44</ele>
        <time>2013-07-14T12:54:12Z</time>
      </trkpt>
      <trkpt lat="45.82646" lon="3.69836">
        <ele>745.73</ele>
        <time>2013-07-14T12:54:15Z</time>
      </trkpt>
      <trkpt lat="45.8263" lon="3.69859">
        <ele>741.4</ele>
        <time>2013-07-14T12:54:20Z</time>
      </trkpt>
      <trkpt lat="45.82627" lon="3.69885">
        <ele>740.29</ele>
        <time>2013-07-14T12:54:25Z</time>
      </trkpt>
      <trkpt lat="45.82639" lon="3.69907">
        <ele>741.08</ele>
        <time>2013-07-14T12:54:35Z</time>
      </trkpt>
      <trkpt lat="45.82658" lon="3.69913">
        <ele>743.99</ele>
        <time>2013-07-14T12:54:52Z</time>
      </trkpt>
      <trkpt lat="45.82675" lon="3.6993">
        <ele>746.54</ele>
        <time>2013-07-14T12:55:00Z</time>
      </trkpt>
      <trkpt lat="45.82681" lon="3.69958">
        <ele>749.49</ele>
        <time>2013-07-14T12:55:10Z</time>
      </trkpt>
      <trkpt lat="45.82658" lon="3.69969">
        <ele>755.13</ele>
        <time>2013-07-14T12:55:31Z</time>
      </trkpt>
      <trkpt lat="45.82642" lon="3.69995">
        <ele>759.7</ele>
        <time>2013-07-14T12:55:43Z</time>
      </trkpt>
      <trkpt lat="45.82643" lon="3.7002">
        <ele>762.22</ele>
        <time>2013-07-14T12:55:51Z</time>
      </trkpt>
      <trkpt lat="45.82655" lon="3.70042">
        <ele>764.65</ele>
        <time>2013-07-14T12:55:58Z</time>
      </trkpt>
      <trkpt lat="45.82671" lon="3.70061">
        <ele>766.97</ele>
        <time>2013-07-14T12:56:05Z</time>
      </trkpt>
      <trkpt lat="45.82686" lon="3.70083">
        <ele>768.78</ele>
        <time>2013-07-14T12:56:11Z</time>
      </trkpt>
      <trkpt lat="45.82703" lon="3.70095">
        <ele>774.4</ele>
        <time>2013-07-14T12:56:16Z</time>
      </trkpt>
      <trkpt lat="45.82721" lon="3.70095">
        <ele>777.87</ele>
        <time>2013-07-14T12:56:21Z</time>
      </trkpt>
      <trkpt lat="45.8274" lon="3.70085">
        <ele>778.6</ele>
        <time>2013-07-14T12:56:25Z</time>
      </trkpt>
      <trkpt lat="45.8276" lon="3.70072">
        <ele>778.8</ele>
        <time>2013-07-14T12:56:28Z</time>
      </trkpt>
      <trkpt lat="45.82784" lon="3.70063">
        <ele>778.31</ele>
        <time>2013-07-14T12:56:31Z</time>
      </trkpt>
      <trkpt lat="45.82803" lon="3.70061">
        <ele>777.71</ele>
        <time>2013-07-14T12:56:33Z</time>
      </trkpt>
      <trkpt lat="45.82829" lon="3.70057">
        <ele>776.44</ele>
        <time>2013-07-14T12:56:36Z</time>
      </trkpt>
      <trkpt lat="45.82853" lon="3.70057">
        <ele>774.31</ele>
        <time>2013-07-14T12:56:39Z</time>
      </trkpt>
      <trkpt lat="45.82878" lon="3.70057">
        <ele>772.5</ele>
        <time>2013-07-14T12:56:42Z</time>
      </trkpt>
      <trkpt lat="45.82903" lon="3.70053">
        <ele>771.02</ele>
        <time>2013-07-14T12:56:45Z</time>
      </trkpt>
      <trkpt lat="45.8292" lon="3.70044">
        <ele>770.11</ele>
        <time>2013-07-14T12:56:47Z</time>
      </trkpt>
      <trkpt lat="45.82935" lon="3.70029">
        <ele>769.16</ele>
        <time>2013-07-14T12:56:49Z</time>
      </trkpt>
      <trkpt lat="45.82955" lon="3.70012">
        <ele>767.77</ele>
        <time>2013-07-14T12:56:52Z</time>
      </trkpt>
      <trkpt lat="45.82973" lon="3.70003">
        <ele>766.03</ele>
        <time>2013-07-14T12:56:55Z</time>
      </trkpt>
      <trkpt lat="45.82996" lon="3.69999">
        <ele>762.65</ele>
        <time>2013-07-14T12:56:59Z</time>
      </trkpt>
      <trkpt lat="45.83017" lon="3.69995">
        <ele>760.26</ele>
        <time>2013-07-14T12:57:02Z</time>
      </trkpt>
      <trkpt lat="45.83038" lon="3.69986">
        <ele>758.48</ele>
        <time>2013-07-14T12:57:05Z</time>
      </trkpt>
      <trkpt lat="45.83058" lon="3.69977">
        <ele>757.59</ele>
        <time>2013-07-14T12:57:08Z</time>
      </trkpt>
      <trkpt lat="45.8308" lon="3.69965">
        <ele>756.57</ele>
        <time>2013-07-14T12:57:12Z</time>
      </trkpt>
      <trkpt lat="45.83099" lon="3.69954">
        <ele>755.56</ele>
        <time>2013-07-14T12:57:16Z</time>
      </trkpt>
      <trkpt lat="45.83116" lon="3.69943">
        <ele>754.31</ele>
        <time>2013-07-14T12:57:20Z</time>
      </trkpt>
      <trkpt lat="45.83136" lon="3.69935">
        <ele>752.55</ele>
        <time>2013-07-14T12:57:24Z</time>
      </trkpt>
      <trkpt lat="45.83154" lon="3.69926">
        <ele>751.37</ele>
        <time>2013-07-14T12:57:27Z</time>
      </trkpt>
      <trkpt lat="45.83174" lon="3.6992">
        <ele>750.11</ele>
        <time>2013-07-14T12:57:30Z</time>
      </trkpt>
      <trkpt lat="45.83197" lon="3.6992">
        <ele>749</ele>
        <time>2013-07-14T12:57:33Z</time>
      </trkpt>
      <trkpt lat="45.83215" lon="3.69926">
        <ele>748.29</ele>
        <time>2013-07-14T12:57:35Z</time>
      </trkpt>
      <trkpt lat="45.83236" lon="3.69937">
        <ele>747.45</ele>
        <time>2013-07-14T12:57:37Z</time>
      </trkpt>
      <trkpt lat="45.83254" lon="3.6995">
        <ele>746.54</ele>
        <time>2013-07-14T12:57:39Z</time>
      </trkpt>
      <trkpt lat="45.83268" lon="3.69967">
        <ele>745.59</ele>
        <time>2013-07-14T12:57:41Z</time>
      </trkpt>
      <trkpt lat="45.83284" lon="3.69986">
        <ele>744.39</ele>
        <time>2013-07-14T12:57:44Z</time>
      </trkpt>
      <trkpt lat="45.83306" lon="3.69992">
        <ele>744.08</ele>
        <time>2013-07-14T12:57:48Z</time>
      </trkpt>
      <trkpt lat="45.83328" lon="3.6999">
        <ele>742.49</ele>
        <time>2013-07-14T12:57:51Z</time>
      </trkpt>
      <trkpt lat="45.83349" lon="3.69977">
        <ele>738.74</ele>
        <time>2013-07-14T12:57:54Z</time>
      </trkpt>
      <trkpt lat="45.83369" lon="3.69965">
        <ele>734.7</ele>
        <time>2013-07-14T12:57:57Z</time>
      </trkpt>
      <trkpt lat="45.83388" lon="3.69947">
        <ele>732.09</ele>
        <time>2013-07-14T12:58:00Z</time>
      </trkpt>
      <trkpt lat="45.83407" lon="3.6993">
        <ele>730.27</ele>
        <time>2013-07-14T12:58:03Z</time>
      </trkpt>
      <trkpt lat="45.83429" lon="3.69909">
        <ele>728.93</ele>
        <time>2013-07-14T12:58:06Z</time>
      </trkpt>
      <trkpt lat="45.83451" lon="3.69889">
        <ele>728.11</ele>
        <time>2013-07-14T12:58:09Z</time>
      </trkpt>
      <trkpt lat="45.83467" lon="3.69872">
        <ele>727.6</ele>
        <time>2013-07-14T12:58:11Z</time>
      </trkpt>
      <trkpt lat="45.8348" lon="3.69851">
        <ele>727.31</ele>
        <time>2013-07-14T12:58:13Z</time>
      </trkpt>
      <trkpt lat="45.83495" lon="3.69832">
        <ele>727.15</ele>
        <time>2013-07-14T12:58:15Z</time>
      </trkpt>
      <trkpt lat="45.83514" lon="3.69817">
        <ele>727.06</ele>
        <time>2013-07-14T12:58:17Z</time>
      </trkpt>
      <trkpt lat="45.83535" lon="3.69804">
        <ele>727.26</ele>
        <time>2013-07-14T12:58:19Z</time>
      </trkpt>
      <trkpt lat="45.83552" lon="3.69789">
        <ele>727.56</ele>
        <time>2013-07-14T12:58:21Z</time>
      </trkpt>
      <trkpt lat="45.8357" lon="3.69771">
        <ele>727.73</ele>
        <time>2013-07-14T12:58:23Z</time>
      </trkpt>
      <trkpt lat="45.83587" lon="3.69752">
        <ele>727.57</ele>
        <time>2013-07-14T12:58:25Z</time>
      </trkpt>
      <trkpt lat="45.83603" lon="3.69733">
        <ele>727.3</ele>
        <time>2013-07-14T12:58:27Z</time>
      </trkpt>
      <trkpt lat="45.83621" lon="3.69714">
        <ele>727.14</ele>
        <time>2013-07-14T12:58:29Z</time>
      </trkpt>
      <trkpt lat="45.83637" lon="3.69692">
        <ele>726.62</ele>
        <time>2013-07-14T12:58:31Z</time>
      </trkpt>
      <trkpt lat="45.83653" lon="3.69671">
        <ele>726.07</ele>
        <time>2013-07-14T12:58:33Z</time>
      </trkpt>
      <trkpt lat="45.83667" lon="3.69649">
        <ele>725.58</ele>
        <time>2013-07-14T12:58:35Z</time>
      </trkpt>
      <trkpt lat="45.8368" lon="3.6963">
        <ele>725.3</ele>
        <time>2013-07-14T12:58:37Z</time>
      </trkpt>
      <trkpt lat="45.83691" lon="3.69608">
        <ele>724.9</ele>
        <time>2013-07-14T12:58:39Z</time>
      </trkpt>
      <trkpt lat="45.83703" lon="3.69585">
        <ele>724.48</ele>
        <time>2013-07-14T12:58:41Z</time>
      </trkpt>
      <trkpt lat="45.83711" lon="3.69559">
        <ele>723.99</ele>
        <time>2013-07-14T12:58:43Z</time>
      </trkpt>
      <trkpt lat="45.83712" lon="3.69531">
        <ele>723.1</ele>
        <time>2013-07-14T12:58:45Z</time>
      </trkpt>
      <trkpt lat="45.83707" lon="3.69503">
        <ele>722.34</ele>
        <time>2013-07-14T12:58:47Z</time>
      </trkpt>
      <trkpt lat="45.83696" lon="3.69475">
        <ele>721.48</ele>
        <time>2013-07-14T12:58:49Z</time>
      </trkpt>
      <trkpt lat="45.83683" lon="3.6945">
        <ele>720.56</ele>
        <time>2013-07-14T12:58:51Z</time>
      </trkpt>
      <trkpt lat="45.83673" lon="3.6942">
        <ele>719.41</ele>
        <time>2013-07-14T12:58:53Z</time>
      </trkpt>
      <trkpt lat="45.83666" lon="3.69392">
        <ele>718.08</ele>
        <time>2013-07-14T12:58:55Z</time>
      </trkpt>
      <trkpt lat="45.83663" lon="3.69366">
        <ele>716.9</ele>
        <time>2013-07-14T12:58:57Z</time>
      </trkpt>
      <trkpt lat="45.83663" lon="3.69334">
        <ele>714.5</ele>
        <time>2013-07-14T12:59:00Z</time>
      </trkpt>
      <trkpt lat="45.83669" lon="3.69302">
        <ele>711.51</ele>
        <time>2013-07-14T12:59:03Z</time>
      </trkpt>
      <trkpt lat="45.83676" lon="3.69278">
        <ele>709.51</ele>
        <time>2013-07-14T12:59:05Z</time>
      </trkpt>
      <trkpt lat="45.83685" lon="3.69252">
        <ele>707.7</ele>
        <time>2013-07-14T12:59:07Z</time>
      </trkpt>
      <trkpt lat="45.83694" lon="3.69224">
        <ele>705.81</ele>
        <time>2013-07-14T12:59:09Z</time>
      </trkpt>
      <trkpt lat="45.83703" lon="3.69196">
        <ele>703.87</ele>
        <time>2013-07-14T12:59:11Z</time>
      </trkpt>
      <trkpt lat="45.83715" lon="3.69169">
        <ele>702.34</ele>
        <time>2013-07-14T12:59:13Z</time>
      </trkpt>
      <trkpt lat="45.83728" lon="3.69141">
        <ele>700.85</ele>
        <time>2013-07-14T12:59:15Z</time>
      </trkpt>
      <trkpt lat="45.83736" lon="3.69111">
        <ele>699.33</ele>
        <time>2013-07-14T12:59:17Z</time>
      </trkpt>
      <trkpt lat="45.83742" lon="3.69083">
        <ele>696.91</ele>
        <time>2013-07-14T12:59:19Z</time>
      </trkpt>
      <trkpt lat="45.83747" lon="3.69046">
        <ele>692.91</ele>
        <time>2013-07-14T12:59:22Z</time>
      </trkpt>
      <trkpt lat="45.83759" lon="3.6901">
        <ele>688.67</ele>
        <time>2013-07-14T12:59:25Z</time>
      </trkpt>
      <trkpt lat="45.83774" lon="3.68986">
        <ele>685.66</ele>
        <time>2013-07-14T12:59:27Z</time>
      </trkpt>
      <trkpt lat="45.83791" lon="3.68963">
        <ele>682.91</ele>
        <time>2013-07-14T12:59:29Z</time>
      </trkpt>
      <trkpt lat="45.83809" lon="3.68941">
        <ele>680.74</ele>
        <time>2013-07-14T12:59:31Z</time>
      </trkpt>
      <trkpt lat="45.83829" lon="3.6892">
        <ele>679.52</ele>
        <time>2013-07-14T12:59:33Z</time>
      </trkpt>
      <trkpt lat="45.83847" lon="3.689">
        <ele>678.39</ele>
        <time>2013-07-14T12:59:35Z</time>
      </trkpt>
      <trkpt lat="45.83864" lon="3.68879">
        <ele>677.51</ele>
        <time>2013-07-14T12:59:37Z</time>
      </trkpt>
      <trkpt lat="45.83881" lon="3.6886">
        <ele>676.82</ele>
        <time>2013-07-14T12:59:39Z</time>
      </trkpt>
      <trkpt lat="45.83899" lon="3.68838">
        <ele>676</ele>
        <time>2013-07-14T12:59:41Z</time>
      </trkpt>
      <trkpt lat="45.83915" lon="3.68819">
        <ele>675.29</ele>
        <time>2013-07-14T12:59:43Z</time>
      </trkpt>
      <trkpt lat="45.83924" lon="3.68793">
        <ele>673.64</ele>
        <time>2013-07-14T12:59:46Z</time>
      </trkpt>
      <trkpt lat="45.83939" lon="3.68808">
        <ele>670.94</ele>
        <time>2013-07-14T12:59:57Z</time>
      </trkpt>
      <trkpt lat="45.83953" lon="3.68825">
        <ele>646.94</ele>
        <time>2013-07-14T13:10:39Z</time>
      </trkpt>
      <trkpt lat="45.83942" lon="3.68847">
        <ele>640.29</ele>
        <time>2013-07-14T13:23:54Z</time>
      </trkpt>
      <trkpt lat="45.8394" lon="3.68872">
        <ele>638.44</ele>
        <time>2013-07-14T13:24:04Z</time>
      </trkpt>
      <trkpt lat="45.8394" lon="3.68898">
        <ele>637.99</ele>
        <time>2013-07-14T13:24:12Z</time>
      </trkpt>
      <trkpt lat="45.83938" lon="3.68926">
        <ele>638.85</ele>
        <time>2013-07-14T13:24:20Z</time>
      </trkpt>
      <trkpt lat="45.83936" lon="3.68952">
        <ele>638.93</ele>
        <time>2013-07-14T13:24:27Z</time>
      </trkpt>
      <trkpt lat="45.83935" lon="3.68978">
        <ele>639.71</ele>
        <time>2013-07-14T13:24:35Z</time>
      </trkpt>
      <trkpt lat="45.83938" lon="3.69003">
        <ele>639.93</ele>
        <time>2013-07-14T13:24:44Z</time>
      </trkpt>
      <trkpt lat="45.83938" lon="3.69029">
        <ele>639.94</ele>
        <time>2013-07-14T13:24:53Z</time>
      </trkpt>
      <trkpt lat="45.83937" lon="3.69055">
        <ele>639.94</ele>
        <time>2013-07-14T13:25:02Z</time>
      </trkpt>
      <trkpt lat="45.83939" lon="3.69083">
        <ele>639.94</ele>
        <time>2013-07-14T13:25:09Z</time>
      </trkpt>
      <trkpt lat="45.83941" lon="3.69111">
        <ele>641.25</ele>
        <time>2013-07-14T13:25:16Z</time>
      </trkpt>
      <trkpt lat="45.83946" lon="3.69136">
        <ele>642.43</ele>
        <time>2013-07-14T13:25:23Z</time>
      </trkpt>
      <trkpt lat="45.83956" lon="3.6916">
        <ele>643.73</ele>
        <time>2013-07-14T13:25:32Z</time>
      </trkpt>
      <trkpt lat="45.83975" lon="3.69169">
        <ele>645.1</ele>
        <time>2013-07-14T13:25:41Z</time>
      </trkpt>
      <trkpt lat="45.83994" lon="3.69177">
        <ele>646.27</ele>
        <time>2013-07-14T13:25:48Z</time>
      </trkpt>
      <trkpt lat="45.84012" lon="3.69188">
        <ele>647.26</ele>
        <time>2013-07-14T13:25:54Z</time>
      </trkpt>
      <trkpt lat="45.84029" lon="3.69196">
        <ele>648.26</ele>
        <time>2013-07-14T13:26:00Z</time>
      </trkpt>
      <trkpt lat="45.84049" lon="3.69201">
        <ele>648.85</ele>
        <time>2013-07-14T13:26:07Z</time>
      </trkpt>
      <trkpt lat="45.84069" lon="3.69194">
        <ele>649.51</ele>
        <time>2013-07-14T13:26:13Z</time>
      </trkpt>
      <trkpt lat="45.84085" lon="3.69181">
        <ele>649.81</ele>
        <time>2013-07-14T13:26:17Z</time>
      </trkpt>
      <trkpt lat="45.84102" lon="3.69166">
        <ele>649.47</ele>
        <time>2013-07-14T13:26:22Z</time>
      </trkpt>
      <trkpt lat="45.84112" lon="3.69143">
        <ele>648.97</ele>
        <time>2013-07-14T13:26:32Z</time>
      </trkpt>
      <trkpt lat="45.84119" lon="3.69119">
        <ele>649.52</ele>
        <time>2013-07-14T13:26:44Z</time>
      </trkpt>
      <trkpt lat="45.84127" lon="3.69096">
        <ele>649.93</ele>
        <time>2013-07-14T13:26:57Z</time>
      </trkpt>
      <trkpt lat="45.84143" lon="3.69078">
        <ele>650.81</ele>
        <time>2013-07-14T13:27:08Z</time>
      </trkpt>
      <trkpt lat="45.84158" lon="3.69061">
        <ele>651.7</ele>
        <time>2013-07-14T13:27:17Z</time>
      </trkpt>
      <trkpt lat="45.84174" lon="3.69046">
        <ele>652.75</ele>
        <time>2013-07-14T13:27:26Z</time>
      </trkpt>
      <trkpt lat="45.84188" lon="3.69029">
        <ele>654.3</ele>
        <time>2013-07-14T13:27:36Z</time>
      </trkpt>
      <trkpt lat="45.84201" lon="3.6901">
        <ele>655.68</ele>
        <time>2013-07-14T13:27:47Z</time>
      </trkpt>
      <trkpt lat="45.84213" lon="3.68988">
        <ele>656.85</ele>
        <time>2013-07-14T13:27:57Z</time>
      </trkpt>
      <trkpt lat="45.84226" lon="3.68969">
        <ele>658.32</ele>
        <time>2013-07-14T13:28:08Z</time>
      </trkpt>
      <trkpt lat="45.84237" lon="3.68948">
        <ele>659.67</ele>
        <time>2013-07-14T13:28:18Z</time>
      </trkpt>
      <trkpt lat="45.8425" lon="3.68926">
        <ele>661.45</ele>
        <time>2013-07-14T13:28:29Z</time>
      </trkpt>
      <trkpt lat="45.84262" lon="3.68905">
        <ele>662.78</ele>
        <time>2013-07-14T13:28:39Z</time>
      </trkpt>
      <trkpt lat="45.84266" lon="3.68879">
        <ele>664.58</ele>
        <time>2013-07-14T13:28:51Z</time>
      </trkpt>
      <trkpt lat="45.84256" lon="3.68855">
        <ele>668.12</ele>
        <time>2013-07-14T13:29:05Z</time>
      </trkpt>
      <trkpt lat="45.84241" lon="3.68836">
        <ele>670.92</ele>
        <time>2013-07-14T13:29:16Z</time>
      </trkpt>
      <trkpt lat="45.84228" lon="3.68814">
        <ele>672.96</ele>
        <time>2013-07-14T13:29:26Z</time>
      </trkpt>
      <trkpt lat="45.84222" lon="3.68789">
        <ele>674.55</ele>
        <time>2013-07-14T13:29:35Z</time>
      </trkpt>
      <trkpt lat="45.84222" lon="3.68763">
        <ele>676.15</ele>
        <time>2013-07-14T13:29:42Z</time>
      </trkpt>
      <trkpt lat="45.84233" lon="3.68742">
        <ele>677.52</ele>
        <time>2013-07-14T13:29:49Z</time>
      </trkpt>
      <trkpt lat="45.84248" lon="3.68722">
        <ele>679.35</ele>
        <time>2013-07-14T13:29:57Z</time>
      </trkpt>
      <trkpt lat="45.84266" lon="3.68709">
        <ele>681.17</ele>
        <time>2013-07-14T13:30:04Z</time>
      </trkpt>
      <trkpt lat="45.84286" lon="3.68696">
        <ele>682.63</ele>
        <time>2013-07-14T13:30:12Z</time>
      </trkpt>
      <trkpt lat="45.84304" lon="3.68692">
        <ele>683.78</ele>
        <time>2013-07-14T13:30:20Z</time>
      </trkpt>
      <trkpt lat="45.84319" lon="3.68711">
        <ele>684.8</ele>
        <time>2013-07-14T13:30:29Z</time>
      </trkpt>
      <trkpt lat="45.84332" lon="3.68733">
        <ele>684.94</ele>
        <time>2013-07-14T13:30:40Z</time>
      </trkpt>
      <trkpt lat="45.84351" lon="3.68735">
        <ele>684.94</ele>
        <time>2013-07-14T13:30:50Z</time>
      </trkpt>
      <trkpt lat="45.8437" lon="3.68726">
        <ele>684.12</ele>
        <time>2013-07-14T13:30:57Z</time>
      </trkpt>
      <trkpt lat="45.84388" lon="3.68718">
        <ele>683.97</ele>
        <time>2013-07-14T13:31:04Z</time>
      </trkpt>
      <trkpt lat="45.84407" lon="3.68711">
        <ele>683.95</ele>
        <time>2013-07-14T13:31:12Z</time>
      </trkpt>
      <trkpt lat="45.84425" lon="3.68705">
        <ele>683.94</ele>
        <time>2013-07-14T13:31:20Z</time>
      </trkpt>
      <trkpt lat="45.84443" lon="3.68703">
        <ele>683.94</ele>
        <time>2013-07-14T13:31:28Z</time>
      </trkpt>
      <trkpt lat="45.84462" lon="3.68701">
        <ele>683.12</ele>
        <time>2013-07-14T13:31:36Z</time>
      </trkpt>
      <trkpt lat="45.84481" lon="3.68699">
        <ele>683.21</ele>
        <time>2013-07-14T13:31:44Z</time>
      </trkpt>
      <trkpt lat="45.84501" lon="3.68696">
        <ele>684.1</ele>
        <time>2013-07-14T13:31:51Z</time>
      </trkpt>
      <trkpt lat="45.84521" lon="3.68692">
        <ele>685.94</ele>
        <time>2013-07-14T13:31:55Z</time>
      </trkpt>
      <trkpt lat="45.8454" lon="3.68688">
        <ele>687.68</ele>
        <time>2013-07-14T13:31:58Z</time>
      </trkpt>
      <trkpt lat="45.84563" lon="3.68684">
        <ele>689.16</ele>
        <time>2013-07-14T13:32:03Z</time>
      </trkpt>
      <trkpt lat="45.84582" lon="3.68694">
        <ele>686.97</ele>
        <time>2013-07-14T13:32:08Z</time>
      </trkpt>
      <trkpt lat="45.84597" lon="3.68716">
        <ele>685.69</ele>
        <time>2013-07-14T13:32:14Z</time>
      </trkpt>
      <trkpt lat="45.84609" lon="3.68739">
        <ele>684.87</ele>
        <time>2013-07-14T13:32:19Z</time>
      </trkpt>
      <trkpt lat="45.8462" lon="3.68767">
        <ele>681.27</ele>
        <time>2013-07-14T13:32:24Z</time>
      </trkpt>
      <trkpt lat="45.84631" lon="3.68789">
        <ele>679.1</ele>
        <time>2013-07-14T13:32:28Z</time>
      </trkpt>
      <trkpt lat="45.84644" lon="3.68812">
        <ele>677.38</ele>
        <time>2013-07-14T13:32:32Z</time>
      </trkpt>
      <trkpt lat="45.84659" lon="3.68832">
        <ele>676.4</ele>
        <time>2013-07-14T13:32:36Z</time>
      </trkpt>
      <trkpt lat="45.8467" lon="3.68855">
        <ele>676.34</ele>
        <time>2013-07-14T13:32:40Z</time>
      </trkpt>
      <trkpt lat="45.84681" lon="3.68879">
        <ele>676.8</ele>
        <time>2013-07-14T13:32:45Z</time>
      </trkpt>
      <trkpt lat="45.84689" lon="3.68905">
        <ele>676.91</ele>
        <time>2013-07-14T13:32:50Z</time>
      </trkpt>
      <trkpt lat="45.84699" lon="3.68928">
        <ele>677.19</ele>
        <time>2013-07-14T13:32:55Z</time>
      </trkpt>
      <trkpt lat="45.8471" lon="3.68952">
        <ele>677.81</ele>
        <time>2013-07-14T13:33:01Z</time>
      </trkpt>
      <trkpt lat="45.84721" lon="3.68978">
        <ele>677.92</ele>
        <time>2013-07-14T13:33:07Z</time>
      </trkpt>
      <trkpt lat="45.84729" lon="3.69001">
        <ele>678.38</ele>
        <time>2013-07-14T13:33:12Z</time>
      </trkpt>
      <trkpt lat="45.84736" lon="3.69031">
        <ele>679.31</ele>
        <time>2013-07-14T13:33:17Z</time>
      </trkpt>
      <trkpt lat="45.84738" lon="3.69061">
        <ele>682.35</ele>
        <time>2013-07-14T13:33:20Z</time>
      </trkpt>
      <trkpt lat="45.8474" lon="3.69093">
        <ele>686.27</ele>
        <time>2013-07-14T13:33:23Z</time>
      </trkpt>
      <trkpt lat="45.84741" lon="3.69123">
        <ele>690.48</ele>
        <time>2013-07-14T13:33:27Z</time>
      </trkpt>
      <trkpt lat="45.84748" lon="3.69149">
        <ele>693.29</ele>
        <time>2013-07-14T13:33:31Z</time>
      </trkpt>
      <trkpt lat="45.8476" lon="3.69171">
        <ele>693.98</ele>
        <time>2013-07-14T13:33:35Z</time>
      </trkpt>
      <trkpt lat="45.84775" lon="3.69192">
        <ele>693.19</ele>
        <time>2013-07-14T13:33:40Z</time>
      </trkpt>
      <trkpt lat="45.8479" lon="3.69214">
        <ele>693</ele>
        <time>2013-07-14T13:33:45Z</time>
      </trkpt>
      <trkpt lat="45.84802" lon="3.69239">
        <ele>693.64</ele>
        <time>2013-07-14T13:33:50Z</time>
      </trkpt>
      <trkpt lat="45.84815" lon="3.69259">
        <ele>693.87</ele>
        <time>2013-07-14T13:33:55Z</time>
      </trkpt>
      <trkpt lat="45.84826" lon="3.69282">
        <ele>694.51</ele>
        <time>2013-07-14T13:34:01Z</time>
      </trkpt>
      <trkpt lat="45.8484" lon="3.69299">
        <ele>694.87</ele>
        <time>2013-07-14T13:34:07Z</time>
      </trkpt>
      <trkpt lat="45.84854" lon="3.69317">
        <ele>695.61</ele>
        <time>2013-07-14T13:34:13Z</time>
      </trkpt>
      <trkpt lat="45.84869" lon="3.69336">
        <ele>696.34</ele>
        <time>2013-07-14T13:34:20Z</time>
      </trkpt>
      <trkpt lat="45.84884" lon="3.69355">
        <ele>697.13</ele>
        <time>2013-07-14T13:34:28Z</time>
      </trkpt>
      <trkpt lat="45.84904" lon="3.69383">
        <ele>699.09</ele>
        <time>2013-07-14T13:34:44Z</time>
      </trkpt>
      <trkpt lat="45.84919" lon="3.69398">
        <ele>701.04</ele>
        <time>2013-07-14T13:34:57Z</time>
      </trkpt>
      <trkpt lat="45.84937" lon="3.69407">
        <ele>702.79</ele>
        <time>2013-07-14T13:35:10Z</time>
      </trkpt>
      <trkpt lat="45.84962" lon="3.6942">
        <ele>705.05</ele>
        <time>2013-07-14T13:35:26Z</time>
      </trkpt>
      <trkpt lat="45.8498" lon="3.69428">
        <ele>706.98</ele>
        <time>2013-07-14T13:35:37Z</time>
      </trkpt>
      <trkpt lat="45.85001" lon="3.69443">
        <ele>708.99</ele>
        <time>2013-07-14T13:35:50Z</time>
      </trkpt>
      <trkpt lat="45.85022" lon="3.69452">
        <ele>710.42</ele>
        <time>2013-07-14T13:36:03Z</time>
      </trkpt>
      <trkpt lat="45.85039" lon="3.69465">
        <ele>713.01</ele>
        <time>2013-07-14T13:36:15Z</time>
      </trkpt>
      <trkpt lat="45.85059" lon="3.69482">
        <ele>715.78</ele>
        <time>2013-07-14T13:36:28Z</time>
      </trkpt>
      <trkpt lat="45.85074" lon="3.69497">
        <ele>718.22</ele>
        <time>2013-07-14T13:36:38Z</time>
      </trkpt>
      <trkpt lat="45.85088" lon="3.69514">
        <ele>720.5</ele>
        <time>2013-07-14T13:36:47Z</time>
      </trkpt>
      <trkpt lat="45.85103" lon="3.69529">
        <ele>722.52</ele>
        <time>2013-07-14T13:36:56Z</time>
      </trkpt>
      <trkpt lat="45.8512" lon="3.6954">
        <ele>724.96</ele>
        <time>2013-07-14T13:37:07Z</time>
      </trkpt>
      <trkpt lat="45.85138" lon="3.69553">
        <ele>727.35</ele>
        <time>2013-07-14T13:37:18Z</time>
      </trkpt>
      <trkpt lat="45.85155" lon="3.69563">
        <ele>730.37</ele>
        <time>2013-07-14T13:37:30Z</time>
      </trkpt>
      <trkpt lat="45.85173" lon="3.69572">
        <ele>732.09</ele>
        <time>2013-07-14T13:37:41Z</time>
      </trkpt>
      <trkpt lat="45.8519" lon="3.69581">
        <ele>733.49</ele>
        <time>2013-07-14T13:37:52Z</time>
      </trkpt>
      <trkpt lat="45.85208" lon="3.69587">
        <ele>735.1</ele>
        <time>2013-07-14T13:38:04Z</time>
      </trkpt>
      <trkpt lat="45.85227" lon="3.69589">
        <ele>736.79</ele>
        <time>2013-07-14T13:38:17Z</time>
      </trkpt>
      <trkpt lat="45.8524" lon="3.69568">
        <ele>738.79</ele>
        <time>2013-07-14T13:38:31Z</time>
      </trkpt>
      <trkpt lat="45.85251" lon="3.69546">
        <ele>742.47</ele>
        <time>2013-07-14T13:38:46Z</time>
      </trkpt>
      <trkpt lat="45.85267" lon="3.69531">
        <ele>747.45</ele>
        <time>2013-07-14T13:39:06Z</time>
      </trkpt>
      <trkpt lat="45.8528" lon="3.6951">
        <ele>750.19</ele>
        <time>2013-07-14T13:39:14Z</time>
      </trkpt>
      <trkpt lat="45.85299" lon="3.69501">
        <ele>753.11</ele>
        <time>2013-07-14T13:39:22Z</time>
      </trkpt>
      <trkpt lat="45.85318" lon="3.69503">
        <ele>756.56</ele>
        <time>2013-07-14T13:39:31Z</time>
      </trkpt>
      <trkpt lat="45.85337" lon="3.69508">
        <ele>760.07</ele>
        <time>2013-07-14T13:39:42Z</time>
      </trkpt>
      <trkpt lat="45.85355" lon="3.69512">
        <ele>763.09</ele>
        <time>2013-07-14T13:39:53Z</time>
      </trkpt>
      <trkpt lat="45.85375" lon="3.6951">
        <ele>766.32</ele>
        <time>2013-07-14T13:40:05Z</time>
      </trkpt>
      <trkpt lat="45.85389" lon="3.69488">
        <ele>769.13</ele>
        <time>2013-07-14T13:40:16Z</time>
      </trkpt>
      <trkpt lat="45.85399" lon="3.69462">
        <ele>772.32</ele>
        <time>2013-07-14T13:40:20Z</time>
      </trkpt>
      <trkpt lat="45.85411" lon="3.69439">
        <ele>773.84</ele>
        <time>2013-07-14T13:40:23Z</time>
      </trkpt>
      <trkpt lat="45.85419" lon="3.69411">
        <ele>774.04</ele>
        <time>2013-07-14T13:40:26Z</time>
      </trkpt>
      <trkpt lat="45.85424" lon="3.69379">
        <ele>773.15</ele>
        <time>2013-07-14T13:40:30Z</time>
      </trkpt>
      <trkpt lat="45.85435" lon="3.69355">
        <ele>772.76</ele>
        <time>2013-07-14T13:40:34Z</time>
      </trkpt>
      <trkpt lat="45.85447" lon="3.69334">
        <ele>772.43</ele>
        <time>2013-07-14T13:40:37Z</time>
      </trkpt>
      <trkpt lat="45.85458" lon="3.6931">
        <ele>771.32</ele>
        <time>2013-07-14T13:40:40Z</time>
      </trkpt>
      <trkpt lat="45.85469" lon="3.69284">
        <ele>770.52</ele>
        <time>2013-07-14T13:40:43Z</time>
      </trkpt>
      <trkpt lat="45.85479" lon="3.69261">
        <ele>768.92</ele>
        <time>2013-07-14T13:40:46Z</time>
      </trkpt>
      <trkpt lat="45.85487" lon="3.69229">
        <ele>766.45</ele>
        <time>2013-07-14T13:40:50Z</time>
      </trkpt>
      <trkpt lat="45.85491" lon="3.69196">
        <ele>765.42</ele>
        <time>2013-07-14T13:40:54Z</time>
      </trkpt>
      <trkpt lat="45.85494" lon="3.69162">
        <ele>764.46</ele>
        <time>2013-07-14T13:40:57Z</time>
      </trkpt>
      <trkpt lat="45.85496" lon="3.69132">
        <ele>760.86</ele>
        <time>2013-07-14T13:41:00Z</time>
      </trkpt>
      <trkpt lat="45.85484" lon="3.69108">
        <ele>754.72</ele>
        <time>2013-07-14T13:41:05Z</time>
      </trkpt>
      <trkpt lat="45.85468" lon="3.69093">
        <ele>751.84</ele>
        <time>2013-07-14T13:41:10Z</time>
      </trkpt>
      <trkpt lat="45.85458" lon="3.6907">
        <ele>751.92</ele>
        <time>2013-07-14T13:41:15Z</time>
      </trkpt>
      <trkpt lat="45.85464" lon="3.69044">
        <ele>752.19</ele>
        <time>2013-07-14T13:41:19Z</time>
      </trkpt>
      <trkpt lat="45.85473" lon="3.6902">
        <ele>753.28</ele>
        <time>2013-07-14T13:41:23Z</time>
      </trkpt>
      <trkpt lat="45.85485" lon="3.68999">
        <ele>754.67</ele>
        <time>2013-07-14T13:41:27Z</time>
      </trkpt>
      <trkpt lat="45.85498" lon="3.68978">
        <ele>755.64</ele>
        <time>2013-07-14T13:41:32Z</time>
      </trkpt>
      <trkpt lat="45.85512" lon="3.68954">
        <ele>755.89</ele>
        <time>2013-07-14T13:41:38Z</time>
      </trkpt>
      <trkpt lat="45.85532" lon="3.68937">
        <ele>755.5</ele>
        <time>2013-07-14T13:41:43Z</time>
      </trkpt>
      <trkpt lat="45.85551" lon="3.6893">
        <ele>757.02</ele>
        <time>2013-07-14T13:41:46Z</time>
      </trkpt>
      <trkpt lat="45.85573" lon="3.6892">
        <ele>762.23</ele>
        <time>2013-07-14T13:41:50Z</time>
      </trkpt>
      <trkpt lat="45.85595" lon="3.68902">
        <ele>767.65</ele>
        <time>2013-07-14T13:41:54Z</time>
      </trkpt>
      <trkpt lat="45.85612" lon="3.68883">
        <ele>772.1</ele>
        <time>2013-07-14T13:41:58Z</time>
      </trkpt>
      <trkpt lat="45.85629" lon="3.68864">
        <ele>775.56</ele>
        <time>2013-07-14T13:42:02Z</time>
      </trkpt>
      <trkpt lat="45.85644" lon="3.68838">
        <ele>777.19</ele>
        <time>2013-07-14T13:42:06Z</time>
      </trkpt>
      <trkpt lat="45.85656" lon="3.68817">
        <ele>777.38</ele>
        <time>2013-07-14T13:42:09Z</time>
      </trkpt>
      <trkpt lat="45.8567" lon="3.68799">
        <ele>777.05</ele>
        <time>2013-07-14T13:42:14Z</time>
      </trkpt>
      <trkpt lat="45.85683" lon="3.68774">
        <ele>776.13</ele>
        <time>2013-07-14T13:42:22Z</time>
      </trkpt>
      <trkpt lat="45.85692" lon="3.68748">
        <ele>774.88</ele>
        <time>2013-07-14T13:42:32Z</time>
      </trkpt>
      <trkpt lat="45.85704" lon="3.68726">
        <ele>772.82</ele>
        <time>2013-07-14T13:42:44Z</time>
      </trkpt>
      <trkpt lat="45.85719" lon="3.68709">
        <ele>771.97</ele>
        <time>2013-07-14T13:42:56Z</time>
      </trkpt>
      <trkpt lat="45.85738" lon="3.68701">
        <ele>772.77</ele>
        <time>2013-07-14T13:43:07Z</time>
      </trkpt>
      <trkpt lat="45.85757" lon="3.6869">
        <ele>774.01</ele>
        <time>2013-07-14T13:43:17Z</time>
      </trkpt>
      <trkpt lat="45.85775" lon="3.68675">
        <ele>775.86</ele>
        <time>2013-07-14T13:43:25Z</time>
      </trkpt>
      <trkpt lat="45.85792" lon="3.68664">
        <ele>777.92</ele>
        <time>2013-07-14T13:43:32Z</time>
      </trkpt>
      <trkpt lat="45.8581" lon="3.68658">
        <ele>780.43</ele>
        <time>2013-07-14T13:43:36Z</time>
      </trkpt>
      <trkpt lat="45.8583" lon="3.68645">
        <ele>784.06</ele>
        <time>2013-07-14T13:43:39Z</time>
      </trkpt>
      <trkpt lat="45.85849" lon="3.68641">
        <ele>785.32</ele>
        <time>2013-07-14T13:43:41Z</time>
      </trkpt>
      <trkpt lat="45.85868" lon="3.68641">
        <ele>785.78</ele>
        <time>2013-07-14T13:43:43Z</time>
      </trkpt>
      <trkpt lat="45.85894" lon="3.68643">
        <ele>785.44</ele>
        <time>2013-07-14T13:43:46Z</time>
      </trkpt>
      <trkpt lat="45.85913" lon="3.68645">
        <ele>784.53</ele>
        <time>2013-07-14T13:43:48Z</time>
      </trkpt>
      <trkpt lat="45.85934" lon="3.68651">
        <ele>783.59</ele>
        <time>2013-07-14T13:43:50Z</time>
      </trkpt>
      <trkpt lat="45.85956" lon="3.6866">
        <ele>782.43</ele>
        <time>2013-07-14T13:43:52Z</time>
      </trkpt>
      <trkpt lat="45.85978" lon="3.68671">
        <ele>781.34</ele>
        <time>2013-07-14T13:43:54Z</time>
      </trkpt>
      <trkpt lat="45.85994" lon="3.68684">
        <ele>780.29</ele>
        <time>2013-07-14T13:43:56Z</time>
      </trkpt>
      <trkpt lat="45.86013" lon="3.68703">
        <ele>777.67</ele>
        <time>2013-07-14T13:44:00Z</time>
      </trkpt>
      <trkpt lat="45.86033" lon="3.68705">
        <ele>772.88</ele>
        <time>2013-07-14T13:44:05Z</time>
      </trkpt>
      <trkpt lat="45.86055" lon="3.68707">
        <ele>769.52</ele>
        <time>2013-07-14T13:44:10Z</time>
      </trkpt>
      <trkpt lat="45.8608" lon="3.68707">
        <ele>767.32</ele>
        <time>2013-07-14T13:44:14Z</time>
      </trkpt>
      <trkpt lat="45.861" lon="3.68701">
        <ele>766.09</ele>
        <time>2013-07-14T13:44:17Z</time>
      </trkpt>
      <trkpt lat="45.86121" lon="3.68696">
        <ele>764.37</ele>
        <time>2013-07-14T13:44:21Z</time>
      </trkpt>
      <trkpt lat="45.86141" lon="3.68696">
        <ele>762.82</ele>
        <time>2013-07-14T13:44:25Z</time>
      </trkpt>
      <trkpt lat="45.8616" lon="3.68694">
        <ele>761.23</ele>
        <time>2013-07-14T13:44:35Z</time>
      </trkpt>
      <trkpt lat="45.8618" lon="3.68688">
        <ele>760.73</ele>
        <time>2013-07-14T13:44:42Z</time>
      </trkpt>
      <trkpt lat="45.86199" lon="3.68677">
        <ele>760.08</ele>
        <time>2013-07-14T13:44:48Z</time>
      </trkpt>
      <trkpt lat="45.86215" lon="3.6866">
        <ele>759.97</ele>
        <time>2013-07-14T13:44:54Z</time>
      </trkpt>
      <trkpt lat="45.8623" lon="3.68645">
        <ele>759.26</ele>
        <time>2013-07-14T13:45:00Z</time>
      </trkpt>
      <trkpt lat="45.86246" lon="3.6863">
        <ele>759.02</ele>
        <time>2013-07-14T13:45:05Z</time>
      </trkpt>
      <trkpt lat="45.86264" lon="3.68615">
        <ele>757.46</ele>
        <time>2013-07-14T13:45:09Z</time>
      </trkpt>
      <trkpt lat="45.86286" lon="3.68604">
        <ele>755.84</ele>
        <time>2013-07-14T13:45:13Z</time>
      </trkpt>
      <trkpt lat="45.86307" lon="3.68596">
        <ele>754.55</ele>
        <time>2013-07-14T13:45:17Z</time>
      </trkpt>
      <trkpt lat="45.86325" lon="3.68589">
        <ele>753.31</ele>
        <time>2013-07-14T13:45:21Z</time>
      </trkpt>
      <trkpt lat="45.86345" lon="3.68581">
        <ele>751.8</ele>
        <time>2013-07-14T13:45:25Z</time>
      </trkpt>
      <trkpt lat="45.86364" lon="3.68566">
        <ele>750.9</ele>
        <time>2013-07-14T13:45:30Z</time>
      </trkpt>
      <trkpt lat="45.8638" lon="3.68546">
        <ele>750.17</ele>
        <time>2013-07-14T13:45:35Z</time>
      </trkpt>
      <trkpt lat="45.86396" lon="3.68531">
        <ele>750.02</ele>
        <time>2013-07-14T13:45:39Z</time>
      </trkpt>
      <trkpt lat="45.86413" lon="3.68518">
        <ele>749.97</ele>
        <time>2013-07-14T13:45:43Z</time>
      </trkpt>
      <trkpt lat="45.86433" lon="3.68501">
        <ele>749.37</ele>
        <time>2013-07-14T13:45:47Z</time>
      </trkpt>
      <trkpt lat="45.86451" lon="3.68493">
        <ele>748.83</ele>
        <time>2013-07-14T13:45:51Z</time>
      </trkpt>
      <trkpt lat="45.86472" lon="3.68484">
        <ele>747.72</ele>
        <time>2013-07-14T13:45:56Z</time>
      </trkpt>
      <trkpt lat="45.86493" lon="3.68475">
        <ele>746.44</ele>
        <time>2013-07-14T13:46:01Z</time>
      </trkpt>
      <trkpt lat="45.86512" lon="3.68463">
        <ele>744.94</ele>
        <time>2013-07-14T13:46:06Z</time>
      </trkpt>
      <trkpt lat="45.86531" lon="3.6845">
        <ele>743.33</ele>
        <time>2013-07-14T13:46:10Z</time>
      </trkpt>
      <trkpt lat="45.8655" lon="3.68437">
        <ele>741.69</ele>
        <time>2013-07-14T13:46:14Z</time>
      </trkpt>
      <trkpt lat="45.8657" lon="3.68422">
        <ele>739.24</ele>
        <time>2013-07-14T13:46:19Z</time>
      </trkpt>
      <trkpt lat="45.86588" lon="3.68407">
        <ele>736.47</ele>
        <time>2013-07-14T13:46:24Z</time>
      </trkpt>
      <trkpt lat="45.86605" lon="3.68392">
        <ele>733.72</ele>
        <time>2013-07-14T13:46:29Z</time>
      </trkpt>
      <trkpt lat="45.86624" lon="3.68392">
        <ele>731.38</ele>
        <time>2013-07-14T13:46:33Z</time>
      </trkpt>
      <trkpt lat="45.86644" lon="3.68385">
        <ele>728.69</ele>
        <time>2013-07-14T13:46:38Z</time>
      </trkpt>
      <trkpt lat="45.86664" lon="3.68381">
        <ele>726.67</ele>
        <time>2013-07-14T13:46:42Z</time>
      </trkpt>
      <trkpt lat="45.86686" lon="3.68381">
        <ele>724.66</ele>
        <time>2013-07-14T13:46:46Z</time>
      </trkpt>
      <trkpt lat="45.86706" lon="3.68381">
        <ele>721.98</ele>
        <time>2013-07-14T13:46:50Z</time>
      </trkpt>
      <trkpt lat="45.86725" lon="3.68377">
        <ele>721.17</ele>
        <time>2013-07-14T13:46:54Z</time>
      </trkpt>
      <trkpt lat="45.86744" lon="3.68362">
        <ele>720.44</ele>
        <time>2013-07-14T13:46:58Z</time>
      </trkpt>
      <trkpt lat="45.86762" lon="3.68345">
        <ele>718.98</ele>
        <time>2013-07-14T13:47:02Z</time>
      </trkpt>
      <trkpt lat="45.86779" lon="3.68325">
        <ele>717.34</ele>
        <time>2013-07-14T13:47:06Z</time>
      </trkpt>
      <trkpt lat="45.86796" lon="3.6831">
        <ele>715.95</ele>
        <time>2013-07-14T13:47:10Z</time>
      </trkpt>
      <trkpt lat="45.86813" lon="3.68299">
        <ele>714.14</ele>
        <time>2013-07-14T13:47:14Z</time>
      </trkpt>
      <trkpt lat="45.86833" lon="3.68287">
        <ele>711.28</ele>
        <time>2013-07-14T13:47:19Z</time>
      </trkpt>
      <trkpt lat="45.86848" lon="3.68267">
        <ele>708.24</ele>
        <time>2013-07-14T13:47:24Z</time>
      </trkpt>
      <trkpt lat="45.86863" lon="3.68252">
        <ele>706.35</ele>
        <time>2013-07-14T13:47:30Z</time>
      </trkpt>
      <trkpt lat="45.86882" lon="3.68229">
        <ele>704.77</ele>
        <time>2013-07-14T13:47:41Z</time>
      </trkpt>
      <trkpt lat="45.86884" lon="3.68203">
        <ele>702.99</ele>
        <time>2013-07-14T13:47:50Z</time>
      </trkpt>
      <trkpt lat="45.86897" lon="3.68177">
        <ele>699.56</ele>
        <time>2013-07-14T13:47:55Z</time>
      </trkpt>
      <trkpt lat="45.8691" lon="3.68158">
        <ele>695.14</ele>
        <time>2013-07-14T13:47:59Z</time>
      </trkpt>
      <trkpt lat="45.86928" lon="3.68141">
        <ele>692.02</ele>
        <time>2013-07-14T13:48:04Z</time>
      </trkpt>
      <trkpt lat="45.86944" lon="3.68128">
        <ele>690.7</ele>
        <time>2013-07-14T13:48:21Z</time>
      </trkpt>
      <trkpt lat="45.86968" lon="3.68119">
        <ele>688.91</ele>
        <time>2013-07-14T13:48:31Z</time>
      </trkpt>
      <trkpt lat="45.86987" lon="3.68106">
        <ele>686.93</ele>
        <time>2013-07-14T13:48:41Z</time>
      </trkpt>
      <trkpt lat="45.87005" lon="3.68106">
        <ele>684.41</ele>
        <time>2013-07-14T13:48:50Z</time>
      </trkpt>
      <trkpt lat="45.87024" lon="3.68113">
        <ele>682.27</ele>
        <time>2013-07-14T13:48:56Z</time>
      </trkpt>
      <trkpt lat="45.87042" lon="3.68113">
        <ele>679.14</ele>
        <time>2013-07-14T13:49:01Z</time>
      </trkpt>
      <trkpt lat="45.87061" lon="3.68106">
        <ele>669.74</ele>
        <time>2013-07-14T13:49:05Z</time>
      </trkpt>
      <trkpt lat="45.8708" lon="3.68093">
        <ele>662.95</ele>
        <time>2013-07-14T13:49:08Z</time>
      </trkpt>
      <trkpt lat="45.87101" lon="3.68076">
        <ele>655.19</ele>
        <time>2013-07-14T13:49:15Z</time>
      </trkpt>
      <trkpt lat="45.87117" lon="3.68063">
        <ele>653</ele>
        <time>2013-07-14T13:49:23Z</time>
      </trkpt>
      <trkpt lat="45.8712" lon="3.68033">
        <ele>649.63</ele>
        <time>2013-07-14T13:52:13Z</time>
      </trkpt>
      <trkpt lat="45.87124" lon="3.68003">
        <ele>648.78</ele>
        <time>2013-07-14T13:52:18Z</time>
      </trkpt>
      <trkpt lat="45.87125" lon="3.67975">
        <ele>648.92</ele>
        <time>2013-07-14T13:52:25Z</time>
      </trkpt>
      <trkpt lat="45.8712" lon="3.67948">
        <ele>648.18</ele>
        <time>2013-07-14T13:52:32Z</time>
      </trkpt>
      <trkpt lat="45.8711" lon="3.67924">
        <ele>646.96</ele>
        <time>2013-07-14T13:52:39Z</time>
      </trkpt>
      <trkpt lat="45.87096" lon="3.67907">
        <ele>646.12</ele>
        <time>2013-07-14T13:52:42Z</time>
      </trkpt>
      <trkpt lat="45.87078" lon="3.67887">
        <ele>644.1</ele>
        <time>2013-07-14T13:52:47Z</time>
      </trkpt>
      <trkpt lat="45.87061" lon="3.67879">
        <ele>641.63</ele>
        <time>2013-07-14T13:52:52Z</time>
      </trkpt>
      <trkpt lat="45.87044" lon="3.6787">
        <ele>638.97</ele>
        <time>2013-07-14T13:52:57Z</time>
      </trkpt>
      <trkpt lat="45.87026" lon="3.67855">
        <ele>635.91</ele>
        <time>2013-07-14T13:53:02Z</time>
      </trkpt>
      <trkpt lat="45.87009" lon="3.67842">
        <ele>633.29</ele>
        <time>2013-07-14T13:53:07Z</time>
      </trkpt>
      <trkpt lat="45.86992" lon="3.67832">
        <ele>630.92</ele>
        <time>2013-07-14T13:53:12Z</time>
      </trkpt>
      <trkpt lat="45.86973" lon="3.67821">
        <ele>629.49</ele>
        <time>2013-07-14T13:53:17Z</time>
      </trkpt>
      <trkpt lat="45.86955" lon="3.6781">
        <ele>629.07</ele>
        <time>2013-07-14T13:53:22Z</time>
      </trkpt>
      <trkpt lat="45.86936" lon="3.67795">
        <ele>628.97</ele>
        <time>2013-07-14T13:53:28Z</time>
      </trkpt>
      <trkpt lat="45.86918" lon="3.67782">
        <ele>628.95</ele>
        <time>2013-07-14T13:53:34Z</time>
      </trkpt>
      <trkpt lat="45.86923" lon="3.67817">
        <ele>627.79</ele>
        <time>2013-07-14T13:53:49Z</time>
      </trkpt>
      <trkpt lat="45.86937" lon="3.67836">
        <ele>627.42</ele>
        <time>2013-07-14T13:53:51Z</time>
      </trkpt>
      <trkpt lat="45.86957" lon="3.67855">
        <ele>626.71</ele>
        <time>2013-07-14T13:53:54Z</time>
      </trkpt>
      <trkpt lat="45.86979" lon="3.67868">
        <ele>626.02</ele>
        <time>2013-07-14T13:53:57Z</time>
      </trkpt>
      <trkpt lat="45.86998" lon="3.67877">
        <ele>625.4</ele>
        <time>2013-07-14T13:54:00Z</time>
      </trkpt>
      <trkpt lat="45.87018" lon="3.67881">
        <ele>624.7</ele>
        <time>2013-07-14T13:54:03Z</time>
      </trkpt>
      <trkpt lat="45.87038" lon="3.67881">
        <ele>624.01</ele>
        <time>2013-07-14T13:54:06Z</time>
      </trkpt>
      <trkpt lat="45.87059" lon="3.67883">
        <ele>622.84</ele>
        <time>2013-07-14T13:54:10Z</time>
      </trkpt>
      <trkpt lat="45.87077" lon="3.67892">
        <ele>621.98</ele>
        <time>2013-07-14T13:54:14Z</time>
      </trkpt>
      <trkpt lat="45.87093" lon="3.67909">
        <ele>619.57</ele>
        <time>2013-07-14T13:54:17Z</time>
      </trkpt>
      <trkpt lat="45.87105" lon="3.6793">
        <ele>615.77</ele>
        <time>2013-07-14T13:54:20Z</time>
      </trkpt>
      <trkpt lat="45.87112" lon="3.67956">
        <ele>611.46</ele>
        <time>2013-07-14T13:54:24Z</time>
      </trkpt>
      <trkpt lat="45.87116" lon="3.67982">
        <ele>609.54</ele>
        <time>2013-07-14T13:54:29Z</time>
      </trkpt>
      <trkpt lat="45.8712" lon="3.68008">
        <ele>608.29</ele>
        <time>2013-07-14T13:54:35Z</time>
      </trkpt>
      <trkpt lat="45.87127" lon="3.68033">
        <ele>607.32</ele>
        <time>2013-07-14T13:54:41Z</time>
      </trkpt>
      <trkpt lat="45.87142" lon="3.68051">
        <ele>606.33</ele>
        <time>2013-07-14T13:54:47Z</time>
      </trkpt>
      <trkpt lat="45.8716" lon="3.68076">
        <ele>605.1</ele>
        <time>2013-07-14T13:54:57Z</time>
      </trkpt>
      <trkpt lat="45.87174" lon="3.681">
        <ele>604.96</ele>
        <time>2013-07-14T13:55:05Z</time>
      </trkpt>
      <trkpt lat="45.87186" lon="3.68121">
        <ele>604.95</ele>
        <time>2013-07-14T13:55:12Z</time>
      </trkpt>
      <trkpt lat="45.87204" lon="3.68136">
        <ele>606.44</ele>
        <time>2013-07-14T13:55:54Z</time>
      </trkpt>
      <trkpt lat="45.87223" lon="3.68141">
        <ele>609.72</ele>
        <time>2013-07-14T13:55:58Z</time>
      </trkpt>
      <trkpt lat="45.87242" lon="3.68143">
        <ele>614.99</ele>
        <time>2013-07-14T13:56:02Z</time>
      </trkpt>
      <trkpt lat="45.87263" lon="3.68141">
        <ele>618.58</ele>
        <time>2013-07-14T13:56:07Z</time>
      </trkpt>
      <trkpt lat="45.87283" lon="3.68132">
        <ele>620.38</ele>
        <time>2013-07-14T13:56:12Z</time>
      </trkpt>
      <trkpt lat="45.87306" lon="3.68124">
        <ele>621.57</ele>
        <time>2013-07-14T13:56:17Z</time>
      </trkpt>
      <trkpt lat="45.87325" lon="3.68121">
        <ele>621.83</ele>
        <time>2013-07-14T13:56:21Z</time>
      </trkpt>
      <trkpt lat="45.87346" lon="3.68126">
        <ele>621.91</ele>
        <time>2013-07-14T13:56:25Z</time>
      </trkpt>
      <trkpt lat="45.87369" lon="3.6813">
        <ele>620.81</ele>
        <time>2013-07-14T13:56:29Z</time>
      </trkpt>
      <trkpt lat="45.87387" lon="3.68132">
        <ele>619.29</ele>
        <time>2013-07-14T13:56:32Z</time>
      </trkpt>
      <trkpt lat="45.87406" lon="3.68134">
        <ele>617.25</ele>
        <time>2013-07-14T13:56:35Z</time>
      </trkpt>
      <trkpt lat="45.87429" lon="3.68136">
        <ele>614.84</ele>
        <time>2013-07-14T13:56:39Z</time>
      </trkpt>
      <trkpt lat="45.87452" lon="3.68139">
        <ele>613.11</ele>
        <time>2013-07-14T13:56:43Z</time>
      </trkpt>
      <trkpt lat="45.87474" lon="3.68158">
        <ele>610.83</ele>
        <time>2013-07-14T13:57:04Z</time>
      </trkpt>
      <trkpt lat="45.87494" lon="3.68164">
        <ele>608.86</ele>
        <time>2013-07-14T13:57:16Z</time>
      </trkpt>
      <trkpt lat="45.87513" lon="3.68173">
        <ele>607.73</ele>
        <time>2013-07-14T13:57:27Z</time>
      </trkpt>
      <trkpt lat="45.87533" lon="3.68177">
        <ele>606.16</ele>
        <time>2013-07-14T13:57:38Z</time>
      </trkpt>
      <trkpt lat="45.87551" lon="3.68192">
        <ele>605.95</ele>
        <time>2013-07-14T13:57:51Z</time>
      </trkpt>
      <trkpt lat="45.87566" lon="3.68209">
        <ele>605.94</ele>
        <time>2013-07-14T13:58:02Z</time>
      </trkpt>
      <trkpt lat="45.87583" lon="3.68224">
        <ele>605.94</ele>
        <time>2013-07-14T13:58:13Z</time>
      </trkpt>
      <trkpt lat="45.87593" lon="3.68246">
        <ele>605.37</ele>
        <time>2013-07-14T13:58:18Z</time>
      </trkpt>
      <trkpt lat="45.87603" lon="3.68272">
        <ele>605</ele>
        <time>2013-07-14T13:58:25Z</time>
      </trkpt>
      <trkpt lat="45.87606" lon="3.68306">
        <ele>604.95</ele>
        <time>2013-07-14T13:58:33Z</time>
      </trkpt>
      <trkpt lat="45.8761" lon="3.68338">
        <ele>604.94</ele>
        <time>2013-07-14T13:58:42Z</time>
      </trkpt>
      <trkpt lat="45.87611" lon="3.68368">
        <ele>604.26</ele>
        <time>2013-07-14T13:58:47Z</time>
      </trkpt>
      <trkpt lat="45.87612" lon="3.68398">
        <ele>603.99</ele>
        <time>2013-07-14T13:58:54Z</time>
      </trkpt>
      <trkpt lat="45.87619" lon="3.68424">
        <ele>603.94</ele>
        <time>2013-07-14T13:59:08Z</time>
      </trkpt>
      <trkpt lat="45.87627" lon="3.68448">
        <ele>603.94</ele>
        <time>2013-07-14T13:59:14Z</time>
      </trkpt>
      <trkpt lat="45.87625" lon="3.68473">
        <ele>603.94</ele>
        <time>2013-07-14T13:59:19Z</time>
      </trkpt>
      <trkpt lat="45.87626" lon="3.68501">
        <ele>603.94</ele>
        <time>2013-07-14T13:59:26Z</time>
      </trkpt>
      <trkpt lat="45.87637" lon="3.68533">
        <ele>604.81</ele>
        <time>2013-07-14T13:59:37Z</time>
      </trkpt>
      <trkpt lat="45.87635" lon="3.68568">
        <ele>604.92</ele>
        <time>2013-07-14T13:59:43Z</time>
      </trkpt>
      <trkpt lat="45.87641" lon="3.68596">
        <ele>605.87</ele>
        <time>2013-07-14T13:59:49Z</time>
      </trkpt>
      <trkpt lat="45.87636" lon="3.68621">
        <ele>607.33</ele>
        <time>2013-07-14T13:59:55Z</time>
      </trkpt>
      <trkpt lat="45.87626" lon="3.68643">
        <ele>608.52</ele>
        <time>2013-07-14T14:00:01Z</time>
      </trkpt>
      <trkpt lat="45.87622" lon="3.68671">
        <ele>609.39</ele>
        <time>2013-07-14T14:00:05Z</time>
      </trkpt>
      <trkpt lat="45.87623" lon="3.68703">
        <ele>611.72</ele>
        <time>2013-07-14T14:00:09Z</time>
      </trkpt>
      <trkpt lat="45.87622" lon="3.68729">
        <ele>613.58</ele>
        <time>2013-07-14T14:00:12Z</time>
      </trkpt>
      <trkpt lat="45.87619" lon="3.68759">
        <ele>614.08</ele>
        <time>2013-07-14T14:00:16Z</time>
      </trkpt>
      <trkpt lat="45.87613" lon="3.68784">
        <ele>613.17</ele>
        <time>2013-07-14T14:00:19Z</time>
      </trkpt>
      <trkpt lat="45.87607" lon="3.68819">
        <ele>612.07</ele>
        <time>2013-07-14T14:00:27Z</time>
      </trkpt>
      <trkpt lat="45.8762" lon="3.6884">
        <ele>612.73</ele>
        <time>2013-07-14T14:00:33Z</time>
      </trkpt>
      <trkpt lat="45.87636" lon="3.68855">
        <ele>612.89</ele>
        <time>2013-07-14T14:00:38Z</time>
      </trkpt>
      <trkpt lat="45.87644" lon="3.68879">
        <ele>612.5</ele>
        <time>2013-07-14T14:00:46Z</time>
      </trkpt>
      <trkpt lat="45.87638" lon="3.68909">
        <ele>611.39</ele>
        <time>2013-07-14T14:00:51Z</time>
      </trkpt>
      <trkpt lat="45.87632" lon="3.68939">
        <ele>608.02</ele>
        <time>2013-07-14T14:00:55Z</time>
      </trkpt>
      <trkpt lat="45.87631" lon="3.68965">
        <ele>605.1</ele>
        <time>2013-07-14T14:01:00Z</time>
      </trkpt>
      <trkpt lat="45.87644" lon="3.68984">
        <ele>603.28</ele>
        <time>2013-07-14T14:01:07Z</time>
      </trkpt>
      <trkpt lat="45.87731" lon="3.68999">
        <ele>603.27</ele>
        <time>2013-07-14T14:01:30Z</time>
      </trkpt>
      <trkpt lat="45.87738" lon="3.69033">
        <ele>611.84</ele>
        <time>2013-07-14T14:01:39Z</time>
      </trkpt>
      <trkpt lat="45.87743" lon="3.69061">
        <ele>611.04</ele>
        <time>2013-07-14T14:01:53Z</time>
      </trkpt>
      <trkpt lat="45.87746" lon="3.69091">
        <ele>612.02</ele>
        <time>2013-07-14T14:02:03Z</time>
      </trkpt>
      <trkpt lat="45.87748" lon="3.69119">
        <ele>612.57</ele>
        <time>2013-07-14T14:02:10Z</time>
      </trkpt>
      <trkpt lat="45.87746" lon="3.69149">
        <ele>612.06</ele>
        <time>2013-07-14T14:02:16Z</time>
      </trkpt>
      <trkpt lat="45.87741" lon="3.69179">
        <ele>611.21</ele>
        <time>2013-07-14T14:02:21Z</time>
      </trkpt>
      <trkpt lat="45.87733" lon="3.69203">
        <ele>610.32</ele>
        <time>2013-07-14T14:02:26Z</time>
      </trkpt>
      <trkpt lat="45.87739" lon="3.69231">
        <ele>609.43</ele>
        <time>2013-07-14T14:02:32Z</time>
      </trkpt>
      <trkpt lat="45.87747" lon="3.69254">
        <ele>605.84</ele>
        <time>2013-07-14T14:02:37Z</time>
      </trkpt>
      <trkpt lat="45.87758" lon="3.69276">
        <ele>603.71</ele>
        <time>2013-07-14T14:02:42Z</time>
      </trkpt>
      <trkpt lat="45.87772" lon="3.69297">
        <ele>603.33</ele>
        <time>2013-07-14T14:02:48Z</time>
      </trkpt>
      <trkpt lat="45.87785" lon="3.69321">
        <ele>603.83</ele>
        <time>2013-07-14T14:02:54Z</time>
      </trkpt>
      <trkpt lat="45.87801" lon="3.69342">
        <ele>603.92</ele>
        <time>2013-07-14T14:03:00Z</time>
      </trkpt>
      <trkpt lat="45.87816" lon="3.69359">
        <ele>604.19</ele>
        <time>2013-07-14T14:03:06Z</time>
      </trkpt>
      <trkpt lat="45.87828" lon="3.69385">
        <ele>605.02</ele>
        <time>2013-07-14T14:03:11Z</time>
      </trkpt>
      <trkpt lat="45.87836" lon="3.69411">
        <ele>606.09</ele>
        <time>2013-07-14T14:03:15Z</time>
      </trkpt>
      <trkpt lat="45.87846" lon="3.69435">
        <ele>607.5</ele>
        <time>2013-07-14T14:03:20Z</time>
      </trkpt>
      <trkpt lat="45.87864" lon="3.69439">
        <ele>609.68</ele>
        <time>2013-07-14T14:03:39Z</time>
      </trkpt>
      <trkpt lat="45.87883" lon="3.6943">
        <ele>610.69</ele>
        <time>2013-07-14T14:03:48Z</time>
      </trkpt>
      <trkpt lat="45.87901" lon="3.69417">
        <ele>610.92</ele>
        <time>2013-07-14T14:03:56Z</time>
      </trkpt>
      <trkpt lat="45.87926" lon="3.69409">
        <ele>613.43</ele>
        <time>2013-07-14T14:04:39Z</time>
      </trkpt>
      <trkpt lat="45.87946" lon="3.69411">
        <ele>615.41</ele>
        <time>2013-07-14T14:04:44Z</time>
      </trkpt>
      <trkpt lat="45.87966" lon="3.69415">
        <ele>616.92</ele>
        <time>2013-07-14T14:04:50Z</time>
      </trkpt>
      <trkpt lat="45.87986" lon="3.69417">
        <ele>618.12</ele>
        <time>2013-07-14T14:04:59Z</time>
      </trkpt>
      <trkpt lat="45.88008" lon="3.6942">
        <ele>620.05</ele>
        <time>2013-07-14T14:05:09Z</time>
      </trkpt>
      <trkpt lat="45.88028" lon="3.69424">
        <ele>622.75</ele>
        <time>2013-07-14T14:05:19Z</time>
      </trkpt>
      <trkpt lat="45.88053" lon="3.69428">
        <ele>625.83</ele>
        <time>2013-07-14T14:05:32Z</time>
      </trkpt>
      <trkpt lat="45.88077" lon="3.69428">
        <ele>628.07</ele>
        <time>2013-07-14T14:05:43Z</time>
      </trkpt>
      <trkpt lat="45.88102" lon="3.69428">
        <ele>630.95</ele>
        <time>2013-07-14T14:05:56Z</time>
      </trkpt>
      <trkpt lat="45.88123" lon="3.69426">
        <ele>632.97</ele>
        <time>2013-07-14T14:06:07Z</time>
      </trkpt>
      <trkpt lat="45.88146" lon="3.69424">
        <ele>634.82</ele>
        <time>2013-07-14T14:06:17Z</time>
      </trkpt>
      <trkpt lat="45.88164" lon="3.69422">
        <ele>636.64</ele>
        <time>2013-07-14T14:06:27Z</time>
      </trkpt>
      <trkpt lat="45.88182" lon="3.6942">
        <ele>640.26</ele>
        <time>2013-07-14T14:06:41Z</time>
      </trkpt>
      <trkpt lat="45.88197" lon="3.69405">
        <ele>645.31</ele>
        <time>2013-07-14T14:07:00Z</time>
      </trkpt>
      <trkpt lat="45.88214" lon="3.69392">
        <ele>647.56</ele>
        <time>2013-07-14T14:07:09Z</time>
      </trkpt>
      <trkpt lat="45.88232" lon="3.69385">
        <ele>648.62</ele>
        <time>2013-07-14T14:07:14Z</time>
      </trkpt>
      <trkpt lat="45.8825" lon="3.69372">
        <ele>649.65</ele>
        <time>2013-07-14T14:07:20Z</time>
      </trkpt>
      <trkpt lat="45.88269" lon="3.69359">
        <ele>650.73</ele>
        <time>2013-07-14T14:07:27Z</time>
      </trkpt>
      <trkpt lat="45.88285" lon="3.69347">
        <ele>651.59</ele>
        <time>2013-07-14T14:07:33Z</time>
      </trkpt>
      <trkpt lat="45.88306" lon="3.69334">
        <ele>652.46</ele>
        <time>2013-07-14T14:07:39Z</time>
      </trkpt>
      <trkpt lat="45.88326" lon="3.69325">
        <ele>653.76</ele>
        <time>2013-07-14T14:07:44Z</time>
      </trkpt>
      <trkpt lat="45.88344" lon="3.69317">
        <ele>655.1</ele>
        <time>2013-07-14T14:07:49Z</time>
      </trkpt>
      <trkpt lat="45.88364" lon="3.69306">
        <ele>656.43</ele>
        <time>2013-07-14T14:07:54Z</time>
      </trkpt>
      <trkpt lat="45.88381" lon="3.69295">
        <ele>657.58</ele>
        <time>2013-07-14T14:07:59Z</time>
      </trkpt>
      <trkpt lat="45.88401" lon="3.69289">
        <ele>658.95</ele>
        <time>2013-07-14T14:08:05Z</time>
      </trkpt>
      <trkpt lat="45.88422" lon="3.69289">
        <ele>659.77</ele>
        <time>2013-07-14T14:08:11Z</time>
      </trkpt>
      <trkpt lat="45.88441" lon="3.69291">
        <ele>660.73</ele>
        <time>2013-07-14T14:08:17Z</time>
      </trkpt>
      <trkpt lat="45.88461" lon="3.69289">
        <ele>661.68</ele>
        <time>2013-07-14T14:08:24Z</time>
      </trkpt>
      <trkpt lat="45.88479" lon="3.6928">
        <ele>661.9</ele>
        <time>2013-07-14T14:08:30Z</time>
      </trkpt>
      <trkpt lat="45.88497" lon="3.69269">
        <ele>662.8</ele>
        <time>2013-07-14T14:08:37Z</time>
      </trkpt>
      <trkpt lat="45.88515" lon="3.69263">
        <ele>663.61</ele>
        <time>2013-07-14T14:08:44Z</time>
      </trkpt>
      <trkpt lat="45.88533" lon="3.69263">
        <ele>664.34</ele>
        <time>2013-07-14T14:08:51Z</time>
      </trkpt>
      <trkpt lat="45.88552" lon="3.69261">
        <ele>664.84</ele>
        <time>2013-07-14T14:08:57Z</time>
      </trkpt>
      <trkpt lat="45.88571" lon="3.69256">
        <ele>665.17</ele>
        <time>2013-07-14T14:09:03Z</time>
      </trkpt>
      <trkpt lat="45.88589" lon="3.69252">
        <ele>665.81</ele>
        <time>2013-07-14T14:09:09Z</time>
      </trkpt>
      <trkpt lat="45.88609" lon="3.69246">
        <ele>665.92</ele>
        <time>2013-07-14T14:09:15Z</time>
      </trkpt>
      <trkpt lat="45.88629" lon="3.69241">
        <ele>666.52</ele>
        <time>2013-07-14T14:09:21Z</time>
      </trkpt>
      <trkpt lat="45.88647" lon="3.69235">
        <ele>666.87</ele>
        <time>2013-07-14T14:09:27Z</time>
      </trkpt>
      <trkpt lat="45.88666" lon="3.69231">
        <ele>667.18</ele>
        <time>2013-07-14T14:09:34Z</time>
      </trkpt>
      <trkpt lat="45.88686" lon="3.69222">
        <ele>667.84</ele>
        <time>2013-07-14T14:09:41Z</time>
      </trkpt>
      <trkpt lat="45.88706" lon="3.69214">
        <ele>668.18</ele>
        <time>2013-07-14T14:09:48Z</time>
      </trkpt>
      <trkpt lat="45.88724" lon="3.69203">
        <ele>669.28</ele>
        <time>2013-07-14T14:09:55Z</time>
      </trkpt>
      <trkpt lat="45.88735" lon="3.69179">
        <ele>670.79</ele>
        <time>2013-07-14T14:10:02Z</time>
      </trkpt>
      <trkpt lat="45.88745" lon="3.69153">
        <ele>672.8</ele>
        <time>2013-07-14T14:10:09Z</time>
      </trkpt>
      <trkpt lat="45.88755" lon="3.6913">
        <ele>674.99</ele>
        <time>2013-07-14T14:10:16Z</time>
      </trkpt>
      <trkpt lat="45.88766" lon="3.69108">
        <ele>676.97</ele>
        <time>2013-07-14T14:10:22Z</time>
      </trkpt>
      <trkpt lat="45.88777" lon="3.69087">
        <ele>678.46</ele>
        <time>2013-07-14T14:10:28Z</time>
      </trkpt>
      <trkpt lat="45.88788" lon="3.69066">
        <ele>679.95</ele>
        <time>2013-07-14T14:10:35Z</time>
      </trkpt>
      <trkpt lat="45.88795" lon="3.69042">
        <ele>681.49</ele>
        <time>2013-07-14T14:10:42Z</time>
      </trkpt>
      <trkpt lat="45.88803" lon="3.69018">
        <ele>682.96</ele>
        <time>2013-07-14T14:10:49Z</time>
      </trkpt>
      <trkpt lat="45.88815" lon="3.68997">
        <ele>684.65</ele>
        <time>2013-07-14T14:10:59Z</time>
      </trkpt>
      <trkpt lat="45.8883" lon="3.68982">
        <ele>686.11</ele>
        <time>2013-07-14T14:11:10Z</time>
      </trkpt>
      <trkpt lat="45.88845" lon="3.68967">
        <ele>687.49</ele>
        <time>2013-07-14T14:11:21Z</time>
      </trkpt>
      <trkpt lat="45.88862" lon="3.68952">
        <ele>689.46</ele>
        <time>2013-07-14T14:11:36Z</time>
      </trkpt>
      <trkpt lat="45.88877" lon="3.68935">
        <ele>690.98</ele>
        <time>2013-07-14T14:11:45Z</time>
      </trkpt>
      <trkpt lat="45.88893" lon="3.68917">
        <ele>692.98</ele>
        <time>2013-07-14T14:11:56Z</time>
      </trkpt>
      <trkpt lat="45.88908" lon="3.68902">
        <ele>695.21</ele>
        <time>2013-07-14T14:12:07Z</time>
      </trkpt>
      <trkpt lat="45.88923" lon="3.68887">
        <ele>697.21</ele>
        <time>2013-07-14T14:12:17Z</time>
      </trkpt>
      <trkpt lat="45.8894" lon="3.68875">
        <ele>699.53</ele>
        <time>2013-07-14T14:12:29Z</time>
      </trkpt>
      <trkpt lat="45.88958" lon="3.68866">
        <ele>702.34</ele>
        <time>2013-07-14T14:12:41Z</time>
      </trkpt>
      <trkpt lat="45.88976" lon="3.68862">
        <ele>704.63</ele>
        <time>2013-07-14T14:12:53Z</time>
      </trkpt>
      <trkpt lat="45.88995" lon="3.68862">
        <ele>707.25</ele>
        <time>2013-07-14T14:13:06Z</time>
      </trkpt>
      <trkpt lat="45.89014" lon="3.68866">
        <ele>709.45</ele>
        <time>2013-07-14T14:13:20Z</time>
      </trkpt>
      <trkpt lat="45.89032" lon="3.68862">
        <ele>711.64</ele>
        <time>2013-07-14T14:13:33Z</time>
      </trkpt>
      <trkpt lat="45.89044" lon="3.6884">
        <ele>716.03</ele>
        <time>2013-07-14T14:13:50Z</time>
      </trkpt>
      <trkpt lat="45.89043" lon="3.68814">
        <ele>721.08</ele>
        <time>2013-07-14T14:14:07Z</time>
      </trkpt>
      <trkpt lat="45.89044" lon="3.68789">
        <ele>724.48</ele>
        <time>2013-07-14T14:14:20Z</time>
      </trkpt>
      <trkpt lat="45.8905" lon="3.68763">
        <ele>728.31</ele>
        <time>2013-07-14T14:14:34Z</time>
      </trkpt>
      <trkpt lat="45.89065" lon="3.68746">
        <ele>731.38</ele>
        <time>2013-07-14T14:14:47Z</time>
      </trkpt>
      <trkpt lat="45.89085" lon="3.68733">
        <ele>733.33</ele>
        <time>2013-07-14T14:14:55Z</time>
      </trkpt>
      <trkpt lat="45.89104" lon="3.68722">
        <ele>734.68</ele>
        <time>2013-07-14T14:15:02Z</time>
      </trkpt>
      <trkpt lat="45.89121" lon="3.68711">
        <ele>736.26</ele>
        <time>2013-07-14T14:15:10Z</time>
      </trkpt>
      <trkpt lat="45.89138" lon="3.68703">
        <ele>736.82</ele>
        <time>2013-07-14T14:15:16Z</time>
      </trkpt>
      <trkpt lat="45.89156" lon="3.68694">
        <ele>736.92</ele>
        <time>2013-07-14T14:15:22Z</time>
      </trkpt>
      <trkpt lat="45.89174" lon="3.6869">
        <ele>736.94</ele>
        <time>2013-07-14T14:15:32Z</time>
      </trkpt>
      <trkpt lat="45.89191" lon="3.68679">
        <ele>737.94</ele>
        <time>2013-07-14T14:16:45Z</time>
      </trkpt>
      <trkpt lat="45.89174" lon="3.6869">
        <ele>738.94</ele>
        <time>2013-07-14T14:17:21Z</time>
      </trkpt>
      <trkpt lat="45.89192" lon="3.68699">
        <ele>740.84</ele>
        <time>2013-07-14T14:20:23Z</time>
      </trkpt>
      <trkpt lat="45.8921" lon="3.68701">
        <ele>740.93</ele>
        <time>2013-07-14T14:20:30Z</time>
      </trkpt>
      <trkpt lat="45.89229" lon="3.68703">
        <ele>740.94</ele>
        <time>2013-07-14T14:20:35Z</time>
      </trkpt>
      <trkpt lat="45.8925" lon="3.68709">
        <ele>740.94</ele>
        <time>2013-07-14T14:20:41Z</time>
      </trkpt>
      <trkpt lat="45.89271" lon="3.68714">
        <ele>739.74</ele>
        <time>2013-07-14T14:20:46Z</time>
      </trkpt>
      <trkpt lat="45.89291" lon="3.6872">
        <ele>739.13</ele>
        <time>2013-07-14T14:20:51Z</time>
      </trkpt>
      <trkpt lat="45.89309" lon="3.68729">
        <ele>738.99</ele>
        <time>2013-07-14T14:20:56Z</time>
      </trkpt>
      <trkpt lat="45.89329" lon="3.68735">
        <ele>738.95</ele>
        <time>2013-07-14T14:21:01Z</time>
      </trkpt>
      <trkpt lat="45.8935" lon="3.68739">
        <ele>738.95</ele>
        <time>2013-07-14T14:21:05Z</time>
      </trkpt>
      <trkpt lat="45.89369" lon="3.68744">
        <ele>738.26</ele>
        <time>2013-07-14T14:21:09Z</time>
      </trkpt>
      <trkpt lat="45.89388" lon="3.6875">
        <ele>738.04</ele>
        <time>2013-07-14T14:21:13Z</time>
      </trkpt>
      <trkpt lat="45.89409" lon="3.68754">
        <ele>737.98</ele>
        <time>2013-07-14T14:21:17Z</time>
      </trkpt>
      <trkpt lat="45.89428" lon="3.68763">
        <ele>737.7</ele>
        <time>2013-07-14T14:21:21Z</time>
      </trkpt>
      <trkpt lat="45.8945" lon="3.68772">
        <ele>737.12</ele>
        <time>2013-07-14T14:21:26Z</time>
      </trkpt>
      <trkpt lat="45.89468" lon="3.6878">
        <ele>736.41</ele>
        <time>2013-07-14T14:21:31Z</time>
      </trkpt>
      <trkpt lat="45.89486" lon="3.68789">
        <ele>736.03</ele>
        <time>2013-07-14T14:21:37Z</time>
      </trkpt>
      <trkpt lat="45.89504" lon="3.68799">
        <ele>735.38</ele>
        <time>2013-07-14T14:21:43Z</time>
      </trkpt>
      <trkpt lat="45.89521" lon="3.6881">
        <ele>735.02</ele>
        <time>2013-07-14T14:21:49Z</time>
      </trkpt>
      <trkpt lat="45.89539" lon="3.68819">
        <ele>734.52</ele>
        <time>2013-07-14T14:21:55Z</time>
      </trkpt>
      <trkpt lat="45.89556" lon="3.68827">
        <ele>734.05</ele>
        <time>2013-07-14T14:22:01Z</time>
      </trkpt>
      <trkpt lat="45.89574" lon="3.68836">
        <ele>733.96</ele>
        <time>2013-07-14T14:22:08Z</time>
      </trkpt>
      <trkpt lat="45.89593" lon="3.68845">
        <ele>734.52</ele>
        <time>2013-07-14T14:22:15Z</time>
      </trkpt>
      <trkpt lat="45.89612" lon="3.68853">
        <ele>735.12</ele>
        <time>2013-07-14T14:22:21Z</time>
      </trkpt>
      <trkpt lat="45.89629" lon="3.68862">
        <ele>735.8</ele>
        <time>2013-07-14T14:22:27Z</time>
      </trkpt>
      <trkpt lat="45.89647" lon="3.68872">
        <ele>737.04</ele>
        <time>2013-07-14T14:22:34Z</time>
      </trkpt>
      <trkpt lat="45.89666" lon="3.68881">
        <ele>738.4</ele>
        <time>2013-07-14T14:22:41Z</time>
      </trkpt>
      <trkpt lat="45.89688" lon="3.68892">
        <ele>739.88</ele>
        <time>2013-07-14T14:22:48Z</time>
      </trkpt>
      <trkpt lat="45.89708" lon="3.68898">
        <ele>741.85</ele>
        <time>2013-07-14T14:22:56Z</time>
      </trkpt>
      <trkpt lat="45.89728" lon="3.689">
        <ele>743.36</ele>
        <time>2013-07-14T14:23:05Z</time>
      </trkpt>
      <trkpt lat="45.89749" lon="3.68902">
        <ele>745.1</ele>
        <time>2013-07-14T14:23:15Z</time>
      </trkpt>
      <trkpt lat="45.8977" lon="3.68894">
        <ele>746.97</ele>
        <time>2013-07-14T14:23:25Z</time>
      </trkpt>
      <trkpt lat="45.89787" lon="3.68885">
        <ele>748.1</ele>
        <time>2013-07-14T14:23:33Z</time>
      </trkpt>
      <trkpt lat="45.89806" lon="3.68872">
        <ele>749.04</ele>
        <time>2013-07-14T14:23:39Z</time>
      </trkpt>
      <trkpt lat="45.8982" lon="3.68855">
        <ele>749.66</ele>
        <time>2013-07-14T14:23:43Z</time>
      </trkpt>
      <trkpt lat="45.89835" lon="3.6884">
        <ele>749.85</ele>
        <time>2013-07-14T14:23:47Z</time>
      </trkpt>
      <trkpt lat="45.89854" lon="3.68823">
        <ele>749.92</ele>
        <time>2013-07-14T14:23:52Z</time>
      </trkpt>
      <trkpt lat="45.89873" lon="3.6881">
        <ele>749.94</ele>
        <time>2013-07-14T14:23:57Z</time>
      </trkpt>
      <trkpt lat="45.89893" lon="3.68795">
        <ele>749.94</ele>
        <time>2013-07-14T14:24:02Z</time>
      </trkpt>
      <trkpt lat="45.8991" lon="3.68782">
        <ele>749.94</ele>
        <time>2013-07-14T14:24:07Z</time>
      </trkpt>
      <trkpt lat="45.89934" lon="3.68767">
        <ele>749.94</ele>
        <time>2013-07-14T14:24:19Z</time>
      </trkpt>
      <trkpt lat="45.89953" lon="3.68759">
        <ele>750.84</ele>
        <time>2013-07-14T14:24:32Z</time>
      </trkpt>
      <trkpt lat="45.8997" lon="3.68744">
        <ele>752.99</ele>
        <time>2013-07-14T14:25:03Z</time>
      </trkpt>
      <trkpt lat="45.89989" lon="3.68746">
        <ele>755.92</ele>
        <time>2013-07-14T14:25:21Z</time>
      </trkpt>
      <trkpt lat="45.90004" lon="3.68729">
        <ele>758.94</ele>
        <time>2013-07-14T14:27:15Z</time>
      </trkpt>
      <trkpt lat="45.9002" lon="3.68716">
        <ele>758.94</ele>
        <time>2013-07-14T14:27:37Z</time>
      </trkpt>
      <trkpt lat="45.90039" lon="3.68722">
        <ele>758.94</ele>
        <time>2013-07-14T14:30:01Z</time>
      </trkpt>
      <trkpt lat="45.90051" lon="3.68694">
        <ele>750.06</ele>
        <time>2013-07-14T14:35:04Z</time>
      </trkpt>
      <trkpt lat="45.90041" lon="3.68718">
        <ele>749.39</ele>
        <time>2013-07-14T14:35:09Z</time>
      </trkpt>
      <trkpt lat="45.90041" lon="3.68688">
        <ele>752.48</ele>
        <time>2013-07-14T14:35:51Z</time>
      </trkpt>
      <trkpt lat="45.90039" lon="3.68662">
        <ele>756.49</ele>
        <time>2013-07-14T14:36:00Z</time>
      </trkpt>
      <trkpt lat="45.90041" lon="3.68636">
        <ele>762.49</ele>
        <time>2013-07-14T14:36:18Z</time>
      </trkpt>
      <trkpt lat="45.90049" lon="3.68613">
        <ele>764.09</ele>
        <time>2013-07-14T14:36:28Z</time>
      </trkpt>
      <trkpt lat="45.90064" lon="3.68591">
        <ele>764.83</ele>
        <time>2013-07-14T14:36:35Z</time>
      </trkpt>
      <trkpt lat="45.9008" lon="3.68574">
        <ele>764.92</ele>
        <time>2013-07-14T14:36:40Z</time>
      </trkpt>
      <trkpt lat="45.90095" lon="3.68559">
        <ele>764.94</ele>
        <time>2013-07-14T14:36:46Z</time>
      </trkpt>
      <trkpt lat="45.90109" lon="3.68542">
        <ele>764.94</ele>
        <time>2013-07-14T14:36:52Z</time>
      </trkpt>
      <trkpt lat="45.90125" lon="3.68523">
        <ele>765.63</ele>
        <time>2013-07-14T14:36:59Z</time>
      </trkpt>
      <trkpt lat="45.90143" lon="3.6851">
        <ele>765.89</ele>
        <time>2013-07-14T14:37:05Z</time>
      </trkpt>
      <trkpt lat="45.90159" lon="3.68497">
        <ele>766.61</ele>
        <time>2013-07-14T14:37:10Z</time>
      </trkpt>
      <trkpt lat="45.90175" lon="3.68482">
        <ele>767.57</ele>
        <time>2013-07-14T14:37:16Z</time>
      </trkpt>
      <trkpt lat="45.90187" lon="3.6846">
        <ele>769.38</ele>
        <time>2013-07-14T14:37:24Z</time>
      </trkpt>
      <trkpt lat="45.90196" lon="3.68437">
        <ele>771.47</ele>
        <time>2013-07-14T14:37:32Z</time>
      </trkpt>
      <trkpt lat="45.90206" lon="3.68411">
        <ele>773.68</ele>
        <time>2013-07-14T14:37:39Z</time>
      </trkpt>
      <trkpt lat="45.90217" lon="3.68385">
        <ele>776.12</ele>
        <time>2013-07-14T14:37:46Z</time>
      </trkpt>
      <trkpt lat="45.90227" lon="3.6836">
        <ele>778.9</ele>
        <time>2013-07-14T14:37:53Z</time>
      </trkpt>
      <trkpt lat="45.90242" lon="3.6834">
        <ele>782.05</ele>
        <time>2013-07-14T14:38:01Z</time>
      </trkpt>
      <trkpt lat="45.90257" lon="3.68323">
        <ele>785.34</ele>
        <time>2013-07-14T14:38:09Z</time>
      </trkpt>
      <trkpt lat="45.90273" lon="3.68308">
        <ele>788.32</ele>
        <time>2013-07-14T14:38:16Z</time>
      </trkpt>
      <trkpt lat="45.90287" lon="3.68291">
        <ele>791.18</ele>
        <time>2013-07-14T14:38:24Z</time>
      </trkpt>
      <trkpt lat="45.90304" lon="3.68276">
        <ele>793.39</ele>
        <time>2013-07-14T14:38:33Z</time>
      </trkpt>
      <trkpt lat="45.90319" lon="3.68259">
        <ele>795.29</ele>
        <time>2013-07-14T14:38:45Z</time>
      </trkpt>
      <trkpt lat="45.90335" lon="3.68246">
        <ele>798.3</ele>
        <time>2013-07-14T14:38:56Z</time>
      </trkpt>
      <trkpt lat="45.90351" lon="3.68233">
        <ele>800.3</ele>
        <time>2013-07-14T14:39:03Z</time>
      </trkpt>
      <trkpt lat="45.9037" lon="3.68227">
        <ele>801.83</ele>
        <time>2013-07-14T14:39:13Z</time>
      </trkpt>
      <trkpt lat="45.90387" lon="3.68214">
        <ele>802.51</ele>
        <time>2013-07-14T14:39:22Z</time>
      </trkpt>
      <trkpt lat="45.90404" lon="3.68203">
        <ele>804.5</ele>
        <time>2013-07-14T14:39:31Z</time>
      </trkpt>
      <trkpt lat="45.90422" lon="3.68192">
        <ele>805.36</ele>
        <time>2013-07-14T14:39:41Z</time>
      </trkpt>
      <trkpt lat="45.90441" lon="3.68184">
        <ele>806.3</ele>
        <time>2013-07-14T14:39:48Z</time>
      </trkpt>
      <trkpt lat="45.90459" lon="3.68171">
        <ele>807.44</ele>
        <time>2013-07-14T14:39:55Z</time>
      </trkpt>
      <trkpt lat="45.90476" lon="3.68158">
        <ele>808.56</ele>
        <time>2013-07-14T14:40:02Z</time>
      </trkpt>
      <trkpt lat="45.90492" lon="3.68143">
        <ele>809.56</ele>
        <time>2013-07-14T14:40:08Z</time>
      </trkpt>
      <trkpt lat="45.90507" lon="3.68126">
        <ele>811.15</ele>
        <time>2013-07-14T14:40:15Z</time>
      </trkpt>
      <trkpt lat="45.90521" lon="3.68106">
        <ele>813.24</ele>
        <time>2013-07-14T14:40:22Z</time>
      </trkpt>
      <trkpt lat="45.90534" lon="3.68087">
        <ele>815.22</ele>
        <time>2013-07-14T14:40:28Z</time>
      </trkpt>
      <trkpt lat="45.90547" lon="3.68066">
        <ele>817.07</ele>
        <time>2013-07-14T14:40:34Z</time>
      </trkpt>
      <trkpt lat="45.90558" lon="3.68042">
        <ele>818.23</ele>
        <time>2013-07-14T14:40:40Z</time>
      </trkpt>
      <trkpt lat="45.90567" lon="3.68018">
        <ele>819.35</ele>
        <time>2013-07-14T14:40:45Z</time>
      </trkpt>
      <trkpt lat="45.90581" lon="3.67997">
        <ele>820.57</ele>
        <time>2013-07-14T14:40:50Z</time>
      </trkpt>
      <trkpt lat="45.90595" lon="3.67975">
        <ele>821.62</ele>
        <time>2013-07-14T14:40:55Z</time>
      </trkpt>
      <trkpt lat="45.90611" lon="3.67956">
        <ele>822.71</ele>
        <time>2013-07-14T14:41:01Z</time>
      </trkpt>
      <trkpt lat="45.90628" lon="3.67941">
        <ele>822.89</ele>
        <time>2013-07-14T14:41:06Z</time>
      </trkpt>
      <trkpt lat="45.90646" lon="3.67926">
        <ele>823.62</ele>
        <time>2013-07-14T14:41:12Z</time>
      </trkpt>
      <trkpt lat="45.90664" lon="3.67911">
        <ele>823.9</ele>
        <time>2013-07-14T14:41:19Z</time>
      </trkpt>
      <trkpt lat="45.9068" lon="3.67894">
        <ele>823.94</ele>
        <time>2013-07-14T14:41:26Z</time>
      </trkpt>
      <trkpt lat="45.90697" lon="3.67881">
        <ele>824.52</ele>
        <time>2013-07-14T14:41:33Z</time>
      </trkpt>
      <trkpt lat="45.90713" lon="3.67868">
        <ele>825.45</ele>
        <time>2013-07-14T14:41:39Z</time>
      </trkpt>
      <trkpt lat="45.90733" lon="3.6786">
        <ele>825.86</ele>
        <time>2013-07-14T14:41:45Z</time>
      </trkpt>
      <trkpt lat="45.90752" lon="3.67853">
        <ele>825.93</ele>
        <time>2013-07-14T14:41:51Z</time>
      </trkpt>
      <trkpt lat="45.90769" lon="3.67845">
        <ele>825.94</ele>
        <time>2013-07-14T14:42:02Z</time>
      </trkpt>
      <trkpt lat="45.90787" lon="3.67832">
        <ele>827.02</ele>
        <time>2013-07-14T14:42:10Z</time>
      </trkpt>
      <trkpt lat="45.90805" lon="3.67821">
        <ele>828.46</ele>
        <time>2013-07-14T14:42:16Z</time>
      </trkpt>
      <trkpt lat="45.90824" lon="3.67808">
        <ele>829.44</ele>
        <time>2013-07-14T14:42:22Z</time>
      </trkpt>
      <trkpt lat="45.90844" lon="3.67795">
        <ele>830.43</ele>
        <time>2013-07-14T14:42:28Z</time>
      </trkpt>
      <trkpt lat="45.90864" lon="3.67787">
        <ele>831.43</ele>
        <time>2013-07-14T14:42:34Z</time>
      </trkpt>
      <trkpt lat="45.90882" lon="3.67776">
        <ele>832.43</ele>
        <time>2013-07-14T14:42:40Z</time>
      </trkpt>
      <trkpt lat="45.909" lon="3.67763">
        <ele>834.14</ele>
        <time>2013-07-14T14:42:47Z</time>
      </trkpt>
      <trkpt lat="45.90918" lon="3.67754">
        <ele>835.52</ele>
        <time>2013-07-14T14:42:54Z</time>
      </trkpt>
      <trkpt lat="45.90935" lon="3.67746">
        <ele>836.88</ele>
        <time>2013-07-14T14:43:00Z</time>
      </trkpt>
      <trkpt lat="45.90954" lon="3.67735">
        <ele>838.81</ele>
        <time>2013-07-14T14:43:07Z</time>
      </trkpt>
      <trkpt lat="45.90972" lon="3.67733">
        <ele>840.73</ele>
        <time>2013-07-14T14:43:19Z</time>
      </trkpt>
      <trkpt lat="45.90988" lon="3.67718">
        <ele>841.88</ele>
        <time>2013-07-14T14:43:30Z</time>
      </trkpt>
      <trkpt lat="45.90981" lon="3.67694">
        <ele>842.65</ele>
        <time>2013-07-14T14:43:45Z</time>
      </trkpt>
      <trkpt lat="45.90961" lon="3.67694">
        <ele>841.19</ele>
        <time>2013-07-14T14:44:00Z</time>
      </trkpt>
      <trkpt lat="45.90943" lon="3.67692">
        <ele>840.21</ele>
        <time>2013-07-14T14:44:08Z</time>
      </trkpt>
      <trkpt lat="45.90924" lon="3.67688">
        <ele>839.3</ele>
        <time>2013-07-14T14:44:15Z</time>
      </trkpt>
      <trkpt lat="45.90905" lon="3.67679">
        <ele>838.56</ele>
        <time>2013-07-14T14:44:19Z</time>
      </trkpt>
      <trkpt lat="45.90883" lon="3.67669">
        <ele>836.61</ele>
        <time>2013-07-14T14:44:22Z</time>
      </trkpt>
      <trkpt lat="45.90863" lon="3.67656">
        <ele>834.63</ele>
        <time>2013-07-14T14:44:25Z</time>
      </trkpt>
      <trkpt lat="45.90842" lon="3.67639">
        <ele>833.48</ele>
        <time>2013-07-14T14:44:29Z</time>
      </trkpt>
      <trkpt lat="45.90826" lon="3.67617">
        <ele>832.43</ele>
        <time>2013-07-14T14:44:33Z</time>
      </trkpt>
      <trkpt lat="45.90823" lon="3.67591">
        <ele>828.82</ele>
        <time>2013-07-14T14:44:36Z</time>
      </trkpt>
      <trkpt lat="45.90831" lon="3.67568">
        <ele>824.55</ele>
        <time>2013-07-14T14:44:40Z</time>
      </trkpt>
      <trkpt lat="45.90841" lon="3.67542">
        <ele>820.26</ele>
        <time>2013-07-14T14:44:44Z</time>
      </trkpt>
      <trkpt lat="45.90853" lon="3.67514">
        <ele>809.41</ele>
        <time>2013-07-14T14:44:48Z</time>
      </trkpt>
      <trkpt lat="45.9086" lon="3.67484">
        <ele>800.55</ele>
        <time>2013-07-14T14:44:52Z</time>
      </trkpt>
      <trkpt lat="45.90869" lon="3.67454">
        <ele>795.35</ele>
        <time>2013-07-14T14:44:56Z</time>
      </trkpt>
      <trkpt lat="45.90878" lon="3.67428">
        <ele>792.94</ele>
        <time>2013-07-14T14:44:59Z</time>
      </trkpt>
      <trkpt lat="45.90889" lon="3.67392">
        <ele>788.57</ele>
        <time>2013-07-14T14:45:06Z</time>
      </trkpt>
      <trkpt lat="45.90898" lon="3.67366">
        <ele>786.94</ele>
        <time>2013-07-14T14:45:37Z</time>
      </trkpt>
      <trkpt lat="45.90915" lon="3.67353">
        <ele>789.66</ele>
        <time>2013-07-14T14:46:31Z</time>
      </trkpt>
      <trkpt lat="45.9094" lon="3.67347">
        <ele>792.88</ele>
        <time>2013-07-14T14:46:44Z</time>
      </trkpt>
      <trkpt lat="45.9096" lon="3.6734">
        <ele>794.09</ele>
        <time>2013-07-14T14:46:52Z</time>
      </trkpt>
      <trkpt lat="45.90978" lon="3.67334">
        <ele>795.62</ele>
        <time>2013-07-14T14:47:00Z</time>
      </trkpt>
      <trkpt lat="45.90998" lon="3.67334">
        <ele>796.75</ele>
        <time>2013-07-14T14:47:10Z</time>
      </trkpt>
      <trkpt lat="45.91017" lon="3.67338">
        <ele>796.93</ele>
        <time>2013-07-14T14:47:20Z</time>
      </trkpt>
      <trkpt lat="45.91036" lon="3.67347">
        <ele>796.94</ele>
        <time>2013-07-14T14:47:28Z</time>
      </trkpt>
      <trkpt lat="45.91022" lon="3.67319">
        <ele>796.81</ele>
        <time>2013-07-14T14:47:50Z</time>
      </trkpt>
      <trkpt lat="45.91005" lon="3.6731">
        <ele>797.47</ele>
        <time>2013-07-14T14:47:53Z</time>
      </trkpt>
      <trkpt lat="45.91007" lon="3.67285">
        <ele>796.79</ele>
        <time>2013-07-14T14:48:13Z</time>
      </trkpt>
      <trkpt lat="45.91028" lon="3.6728">
        <ele>795.76</ele>
        <time>2013-07-14T14:48:22Z</time>
      </trkpt>
      <trkpt lat="45.91048" lon="3.67272">
        <ele>790.08</ele>
        <time>2013-07-14T14:48:26Z</time>
      </trkpt>
      <trkpt lat="45.91069" lon="3.67267">
        <ele>781.69</ele>
        <time>2013-07-14T14:48:29Z</time>
      </trkpt>
      <trkpt lat="45.9109" lon="3.67259">
        <ele>775.95</ele>
        <time>2013-07-14T14:48:32Z</time>
      </trkpt>
      <trkpt lat="45.9111" lon="3.67252">
        <ele>771.04</ele>
        <time>2013-07-14T14:48:35Z</time>
      </trkpt>
      <trkpt lat="45.91131" lon="3.67248">
        <ele>765.67</ele>
        <time>2013-07-14T14:48:38Z</time>
      </trkpt>
      <trkpt lat="45.9115" lon="3.67242">
        <ele>763.08</ele>
        <time>2013-07-14T14:48:41Z</time>
      </trkpt>
      <trkpt lat="45.91172" lon="3.67237">
        <ele>761.87</ele>
        <time>2013-07-14T14:48:45Z</time>
      </trkpt>
      <trkpt lat="45.91192" lon="3.67235">
        <ele>761.92</ele>
        <time>2013-07-14T14:48:49Z</time>
      </trkpt>
      <trkpt lat="45.91211" lon="3.67233">
        <ele>762.51</ele>
        <time>2013-07-14T14:48:53Z</time>
      </trkpt>
      <trkpt lat="45.91229" lon="3.67229">
        <ele>763.06</ele>
        <time>2013-07-14T14:48:57Z</time>
      </trkpt>
      <trkpt lat="45.91253" lon="3.67222">
        <ele>763.66</ele>
        <time>2013-07-14T14:49:01Z</time>
      </trkpt>
      <trkpt lat="45.91276" lon="3.67222">
        <ele>763.83</ele>
        <time>2013-07-14T14:49:04Z</time>
      </trkpt>
      <trkpt lat="45.91299" lon="3.6722">
        <ele>762.88</ele>
        <time>2013-07-14T14:49:07Z</time>
      </trkpt>
      <trkpt lat="45.91324" lon="3.6722">
        <ele>761.32</ele>
        <time>2013-07-14T14:49:10Z</time>
      </trkpt>
      <trkpt lat="45.91352" lon="3.67231">
        <ele>757.82</ele>
        <time>2013-07-14T14:49:13Z</time>
      </trkpt>
      <trkpt lat="45.91371" lon="3.67231">
        <ele>754.42</ele>
        <time>2013-07-14T14:49:16Z</time>
      </trkpt>
      <trkpt lat="45.91389" lon="3.67218">
        <ele>751.36</ele>
        <time>2013-07-14T14:49:20Z</time>
      </trkpt>
      <trkpt lat="45.91362" lon="3.67212">
        <ele>744.86</ele>
        <time>2013-07-14T14:49:38Z</time>
      </trkpt>
      <trkpt lat="45.91344" lon="3.67203">
        <ele>742.02</ele>
        <time>2013-07-14T14:49:47Z</time>
      </trkpt>
      <trkpt lat="45.91324" lon="3.67192">
        <ele>739.93</ele>
        <time>2013-07-14T14:49:57Z</time>
      </trkpt>
      <trkpt lat="45.91308" lon="3.67175">
        <ele>737.87</ele>
        <time>2013-07-14T14:50:08Z</time>
      </trkpt>
      <trkpt lat="45.91293" lon="3.67156">
        <ele>735.82</ele>
        <time>2013-07-14T14:50:21Z</time>
      </trkpt>
      <trkpt lat="45.91292" lon="3.67126">
        <ele>734.41</ele>
        <time>2013-07-14T14:50:32Z</time>
      </trkpt>
      <trkpt lat="45.91309" lon="3.67104">
        <ele>738.68</ele>
        <time>2013-07-14T14:52:23Z</time>
      </trkpt>
      <trkpt lat="45.91329" lon="3.67076">
        <ele>741</ele>
        <time>2013-07-14T14:52:26Z</time>
      </trkpt>
      <trkpt lat="45.91344" lon="3.67059">
        <ele>742.54</ele>
        <time>2013-07-14T14:52:28Z</time>
      </trkpt>
      <trkpt lat="45.91358" lon="3.67042">
        <ele>744.03</ele>
        <time>2013-07-14T14:52:30Z</time>
      </trkpt>
      <trkpt lat="45.91376" lon="3.67021">
        <ele>746.4</ele>
        <time>2013-07-14T14:52:33Z</time>
      </trkpt>
      <trkpt lat="45.91394" lon="3.67003">
        <ele>749.16</ele>
        <time>2013-07-14T14:52:37Z</time>
      </trkpt>
      <trkpt lat="45.91411" lon="3.66988">
        <ele>750.38</ele>
        <time>2013-07-14T14:52:41Z</time>
      </trkpt>
      <trkpt lat="45.91427" lon="3.66973">
        <ele>751.49</ele>
        <time>2013-07-14T14:52:46Z</time>
      </trkpt>
      <trkpt lat="45.91443" lon="3.66956">
        <ele>751.88</ele>
        <time>2013-07-14T14:52:53Z</time>
      </trkpt>
      <trkpt lat="45.91458" lon="3.66939">
        <ele>755.03</ele>
        <time>2013-07-14T14:53:00Z</time>
      </trkpt>
      <trkpt lat="45.91472" lon="3.6692">
        <ele>759.89</ele>
        <time>2013-07-14T14:53:07Z</time>
      </trkpt>
      <trkpt lat="45.91487" lon="3.669">
        <ele>764.31</ele>
        <time>2013-07-14T14:53:14Z</time>
      </trkpt>
      <trkpt lat="45.91503" lon="3.66883">
        <ele>768.62</ele>
        <time>2013-07-14T14:53:22Z</time>
      </trkpt>
      <trkpt lat="45.91519" lon="3.66868">
        <ele>771.88</ele>
        <time>2013-07-14T14:53:30Z</time>
      </trkpt>
      <trkpt lat="45.91536" lon="3.66858">
        <ele>774.94</ele>
        <time>2013-07-14T14:53:38Z</time>
      </trkpt>
      <trkpt lat="45.91553" lon="3.66845">
        <ele>775.63</ele>
        <time>2013-07-14T14:53:42Z</time>
      </trkpt>
      <trkpt lat="45.91571" lon="3.6683">
        <ele>775.81</ele>
        <time>2013-07-14T14:53:45Z</time>
      </trkpt>
      <trkpt lat="45.91588" lon="3.66815">
        <ele>775.89</ele>
        <time>2013-07-14T14:53:48Z</time>
      </trkpt>
      <trkpt lat="45.91603" lon="3.66797">
        <ele>775.92</ele>
        <time>2013-07-14T14:53:51Z</time>
      </trkpt>
      <trkpt lat="45.9162" lon="3.66778">
        <ele>776.37</ele>
        <time>2013-07-14T14:53:55Z</time>
      </trkpt>
      <trkpt lat="45.91637" lon="3.66761">
        <ele>778.03</ele>
        <time>2013-07-14T14:53:59Z</time>
      </trkpt>
      <trkpt lat="45.91655" lon="3.66742">
        <ele>779.69</ele>
        <time>2013-07-14T14:54:06Z</time>
      </trkpt>
      <trkpt lat="45.91673" lon="3.66724">
        <ele>779.92</ele>
        <time>2013-07-14T14:54:15Z</time>
      </trkpt>
      <trkpt lat="45.91689" lon="3.66709">
        <ele>780.19</ele>
        <time>2013-07-14T14:54:25Z</time>
      </trkpt>
      <trkpt lat="45.91709" lon="3.66701">
        <ele>781.16</ele>
        <time>2013-07-14T14:54:36Z</time>
      </trkpt>
      <trkpt lat="45.91727" lon="3.66699">
        <ele>781.9</ele>
        <time>2013-07-14T14:54:46Z</time>
      </trkpt>
      <trkpt lat="45.91748" lon="3.66701">
        <ele>783.19</ele>
        <time>2013-07-14T14:55:10Z</time>
      </trkpt>
      <trkpt lat="45.91767" lon="3.66692">
        <ele>784.34</ele>
        <time>2013-07-14T14:55:15Z</time>
      </trkpt>
      <trkpt lat="45.91787" lon="3.66679">
        <ele>785.49</ele>
        <time>2013-07-14T14:55:20Z</time>
      </trkpt>
      <trkpt lat="45.91806" lon="3.66664">
        <ele>785.88</ele>
        <time>2013-07-14T14:55:27Z</time>
      </trkpt>
      <trkpt lat="45.91827" lon="3.66654">
        <ele>786.7</ele>
        <time>2013-07-14T14:55:35Z</time>
      </trkpt>
      <trkpt lat="45.91847" lon="3.66647">
        <ele>787.93</ele>
        <time>2013-07-14T14:55:43Z</time>
      </trkpt>
      <trkpt lat="45.91867" lon="3.66641">
        <ele>789.78</ele>
        <time>2013-07-14T14:55:51Z</time>
      </trkpt>
      <trkpt lat="45.91888" lon="3.66634">
        <ele>790.74</ele>
        <time>2013-07-14T14:55:57Z</time>
      </trkpt>
      <trkpt lat="45.91904" lon="3.66619">
        <ele>790.91</ele>
        <time>2013-07-14T14:56:03Z</time>
      </trkpt>
      <trkpt lat="45.91921" lon="3.66606">
        <ele>791.62</ele>
        <time>2013-07-14T14:56:08Z</time>
      </trkpt>
      <trkpt lat="45.9194" lon="3.66594">
        <ele>791.84</ele>
        <time>2013-07-14T14:56:12Z</time>
      </trkpt>
      <trkpt lat="45.91959" lon="3.66585">
        <ele>792.35</ele>
        <time>2013-07-14T14:56:16Z</time>
      </trkpt>
      <trkpt lat="45.91977" lon="3.66576">
        <ele>792.76</ele>
        <time>2013-07-14T14:56:20Z</time>
      </trkpt>
      <trkpt lat="45.91998" lon="3.66568">
        <ele>792.9</ele>
        <time>2013-07-14T14:56:25Z</time>
      </trkpt>
      <trkpt lat="45.92018" lon="3.66566">
        <ele>792.93</ele>
        <time>2013-07-14T14:56:30Z</time>
      </trkpt>
      <trkpt lat="45.92038" lon="3.66561">
        <ele>792.94</ele>
        <time>2013-07-14T14:56:36Z</time>
      </trkpt>
      <trkpt lat="45.92058" lon="3.66555">
        <ele>793.19</ele>
        <time>2013-07-14T14:56:42Z</time>
      </trkpt>
      <trkpt lat="45.9208" lon="3.66544">
        <ele>794.42</ele>
        <time>2013-07-14T14:56:54Z</time>
      </trkpt>
      <trkpt lat="45.92098" lon="3.66536">
        <ele>798.94</ele>
        <time>2013-07-14T14:57:08Z</time>
      </trkpt>
      <trkpt lat="45.92118" lon="3.66529">
        <ele>803.87</ele>
        <time>2013-07-14T14:57:20Z</time>
      </trkpt>
      <trkpt lat="45.92135" lon="3.66516">
        <ele>808.53</ele>
        <time>2013-07-14T14:57:33Z</time>
      </trkpt>
      <trkpt lat="45.92152" lon="3.66503">
        <ele>811.24</ele>
        <time>2013-07-14T14:57:42Z</time>
      </trkpt>
      <trkpt lat="45.9217" lon="3.66493">
        <ele>812.67</ele>
        <time>2013-07-14T14:57:52Z</time>
      </trkpt>
      <trkpt lat="45.92183" lon="3.66471">
        <ele>814.44</ele>
        <time>2013-07-14T14:58:04Z</time>
      </trkpt>
      <trkpt lat="45.92197" lon="3.6645">
        <ele>816.4</ele>
        <time>2013-07-14T14:58:15Z</time>
      </trkpt>
      <trkpt lat="45.92211" lon="3.66433">
        <ele>818.35</ele>
        <time>2013-07-14T14:58:24Z</time>
      </trkpt>
      <trkpt lat="45.92225" lon="3.66416">
        <ele>821.43</ele>
        <time>2013-07-14T14:58:35Z</time>
      </trkpt>
      <trkpt lat="45.92238" lon="3.66394">
        <ele>824.2</ele>
        <time>2013-07-14T14:58:47Z</time>
      </trkpt>
      <trkpt lat="45.92251" lon="3.66375">
        <ele>826.38</ele>
        <time>2013-07-14T14:58:57Z</time>
      </trkpt>
      <trkpt lat="45.92264" lon="3.66355">
        <ele>828.53</ele>
        <time>2013-07-14T14:59:08Z</time>
      </trkpt>
      <trkpt lat="45.92274" lon="3.66332">
        <ele>830.86</ele>
        <time>2013-07-14T14:59:18Z</time>
      </trkpt>
      <trkpt lat="45.92289" lon="3.66317">
        <ele>833.14</ele>
        <time>2013-07-14T14:59:28Z</time>
      </trkpt>
      <trkpt lat="45.923" lon="3.6634">
        <ele>835.2</ele>
        <time>2013-07-14T14:59:38Z</time>
      </trkpt>
      <trkpt lat="45.92303" lon="3.66366">
        <ele>836.25</ele>
        <time>2013-07-14T14:59:44Z</time>
      </trkpt>
      <trkpt lat="45.92306" lon="3.66394">
        <ele>837.4</ele>
        <time>2013-07-14T14:59:50Z</time>
      </trkpt>
      <trkpt lat="45.92304" lon="3.66422">
        <ele>838.61</ele>
        <time>2013-07-14T14:59:56Z</time>
      </trkpt>
      <trkpt lat="45.92302" lon="3.66448">
        <ele>839.46</ele>
        <time>2013-07-14T15:00:02Z</time>
      </trkpt>
      <trkpt lat="45.923" lon="3.66476">
        <ele>839.86</ele>
        <time>2013-07-14T15:00:08Z</time>
      </trkpt>
      <trkpt lat="45.92303" lon="3.66501">
        <ele>839.94</ele>
        <time>2013-07-14T15:00:19Z</time>
      </trkpt>
      <trkpt lat="45.92321" lon="3.66514">
        <ele>846.81</ele>
        <time>2013-07-14T15:02:17Z</time>
      </trkpt>
      <trkpt lat="45.9234" lon="3.66523">
        <ele>848.32</ele>
        <time>2013-07-14T15:02:23Z</time>
      </trkpt>
      <trkpt lat="45.92357" lon="3.66534">
        <ele>849.48</ele>
        <time>2013-07-14T15:02:28Z</time>
      </trkpt>
      <trkpt lat="45.92371" lon="3.66557">
        <ele>853.04</ele>
        <time>2013-07-14T15:02:33Z</time>
      </trkpt>
      <trkpt lat="45.92377" lon="3.66587">
        <ele>855.35</ele>
        <time>2013-07-14T15:02:37Z</time>
      </trkpt>
      <trkpt lat="45.9237" lon="3.66619">
        <ele>856.05</ele>
        <time>2013-07-14T15:02:39Z</time>
      </trkpt>
      <trkpt lat="45.92362" lon="3.66652">
        <ele>856.88</ele>
        <time>2013-07-14T15:02:41Z</time>
      </trkpt>
      <trkpt lat="45.92358" lon="3.66679">
        <ele>857.09</ele>
        <time>2013-07-14T15:02:43Z</time>
      </trkpt>
      <trkpt lat="45.92357" lon="3.66714">
        <ele>856.32</ele>
        <time>2013-07-14T15:02:46Z</time>
      </trkpt>
      <trkpt lat="45.92365" lon="3.6674">
        <ele>854.7</ele>
        <time>2013-07-14T15:02:49Z</time>
      </trkpt>
      <trkpt lat="45.92384" lon="3.66742">
        <ele>852.81</ele>
        <time>2013-07-14T15:02:53Z</time>
      </trkpt>
      <trkpt lat="45.92402" lon="3.6674">
        <ele>851.56</ele>
        <time>2013-07-14T15:02:55Z</time>
      </trkpt>
      <trkpt lat="45.92421" lon="3.6674">
        <ele>850.6</ele>
        <time>2013-07-14T15:02:57Z</time>
      </trkpt>
      <trkpt lat="45.92441" lon="3.66744">
        <ele>849.19</ele>
        <time>2013-07-14T15:02:59Z</time>
      </trkpt>
      <trkpt lat="45.92459" lon="3.66746">
        <ele>847.96</ele>
        <time>2013-07-14T15:03:01Z</time>
      </trkpt>
      <trkpt lat="45.92476" lon="3.66735">
        <ele>845.78</ele>
        <time>2013-07-14T15:03:04Z</time>
      </trkpt>
      <trkpt lat="45.9249" lon="3.66714">
        <ele>843.59</ele>
        <time>2013-07-14T15:03:08Z</time>
      </trkpt>
      <trkpt lat="45.92498" lon="3.6669">
        <ele>841.81</ele>
        <time>2013-07-14T15:03:11Z</time>
      </trkpt>
      <trkpt lat="45.92507" lon="3.66662">
        <ele>839.71</ele>
        <time>2013-07-14T15:03:15Z</time>
      </trkpt>
      <trkpt lat="45.92516" lon="3.66634">
        <ele>836.99</ele>
        <time>2013-07-14T15:03:19Z</time>
      </trkpt>
      <trkpt lat="45.92522" lon="3.66606">
        <ele>834.76</ele>
        <time>2013-07-14T15:03:23Z</time>
      </trkpt>
      <trkpt lat="45.92525" lon="3.66579">
        <ele>832.15</ele>
        <time>2013-07-14T15:03:27Z</time>
      </trkpt>
      <trkpt lat="45.9253" lon="3.66549">
        <ele>830.06</ele>
        <time>2013-07-14T15:03:31Z</time>
      </trkpt>
      <trkpt lat="45.92534" lon="3.66521">
        <ele>828.18</ele>
        <time>2013-07-14T15:03:35Z</time>
      </trkpt>
      <trkpt lat="45.92541" lon="3.66493">
        <ele>826.76</ele>
        <time>2013-07-14T15:03:39Z</time>
      </trkpt>
      <trkpt lat="45.92549" lon="3.66467">
        <ele>826.2</ele>
        <time>2013-07-14T15:03:43Z</time>
      </trkpt>
      <trkpt lat="45.92558" lon="3.66441">
        <ele>824.63</ele>
        <time>2013-07-14T15:03:48Z</time>
      </trkpt>
      <trkpt lat="45.92569" lon="3.66416">
        <ele>822.33</ele>
        <time>2013-07-14T15:03:53Z</time>
      </trkpt>
      <trkpt lat="45.92589" lon="3.6639">
        <ele>820.15</ele>
        <time>2013-07-14T15:04:07Z</time>
      </trkpt>
      <trkpt lat="45.92592" lon="3.6636">
        <ele>820.21</ele>
        <time>2013-07-14T15:04:15Z</time>
      </trkpt>
      <trkpt lat="45.92598" lon="3.66332">
        <ele>821.1</ele>
        <time>2013-07-14T15:04:22Z</time>
      </trkpt>
      <trkpt lat="45.9261" lon="3.66297">
        <ele>822.64</ele>
        <time>2013-07-14T15:04:31Z</time>
      </trkpt>
      <trkpt lat="45.92621" lon="3.66276">
        <ele>824</ele>
        <time>2013-07-14T15:04:41Z</time>
      </trkpt>
      <trkpt lat="45.92632" lon="3.6625">
        <ele>825.86</ele>
        <time>2013-07-14T15:04:49Z</time>
      </trkpt>
      <trkpt lat="45.92636" lon="3.6622">
        <ele>827.68</ele>
        <time>2013-07-14T15:04:58Z</time>
      </trkpt>
      <trkpt lat="45.92639" lon="3.66194">
        <ele>827.91</ele>
        <time>2013-07-14T15:05:05Z</time>
      </trkpt>
      <trkpt lat="45.92651" lon="3.6616">
        <ele>827.94</ele>
        <time>2013-07-14T15:05:17Z</time>
      </trkpt>
      <trkpt lat="45.92663" lon="3.66137">
        <ele>827.94</ele>
        <time>2013-07-14T15:05:24Z</time>
      </trkpt>
      <trkpt lat="45.9267" lon="3.66113">
        <ele>827.69</ele>
        <time>2013-07-14T15:05:29Z</time>
      </trkpt>
      <trkpt lat="45.92671" lon="3.66087">
        <ele>827.12</ele>
        <time>2013-07-14T15:05:34Z</time>
      </trkpt>
      <trkpt lat="45.92657" lon="3.66066">
        <ele>826.42</ele>
        <time>2013-07-14T15:05:38Z</time>
      </trkpt>
      <trkpt lat="45.92642" lon="3.66046">
        <ele>825.81</ele>
        <time>2013-07-14T15:05:43Z</time>
      </trkpt>
      <trkpt lat="45.92624" lon="3.66031">
        <ele>824.78</ele>
        <time>2013-07-14T15:05:51Z</time>
      </trkpt>
      <trkpt lat="45.92609" lon="3.66012">
        <ele>824.01</ele>
        <time>2013-07-14T15:06:00Z</time>
      </trkpt>
      <trkpt lat="45.92592" lon="3.66004">
        <ele>822.8</ele>
        <time>2013-07-14T15:06:13Z</time>
      </trkpt>
      <trkpt lat="45.92573" lon="3.65999">
        <ele>821.02</ele>
        <time>2013-07-14T15:06:21Z</time>
      </trkpt>
      <trkpt lat="45.92553" lon="3.65995">
        <ele>818.93</ele>
        <time>2013-07-14T15:06:31Z</time>
      </trkpt>
      <trkpt lat="45.92557" lon="3.65969">
        <ele>816.55</ele>
        <time>2013-07-14T15:07:09Z</time>
      </trkpt>
      <trkpt lat="45.92559" lon="3.65943">
        <ele>815.31</ele>
        <time>2013-07-14T15:07:13Z</time>
      </trkpt>
      <trkpt lat="45.92562" lon="3.65911">
        <ele>811.8</ele>
        <time>2013-07-14T15:07:17Z</time>
      </trkpt>
      <trkpt lat="45.92571" lon="3.65885">
        <ele>801.62</ele>
        <time>2013-07-14T15:07:20Z</time>
      </trkpt>
      <trkpt lat="45.92588" lon="3.65873">
        <ele>790.28</ele>
        <time>2013-07-14T15:07:24Z</time>
      </trkpt>
      <trkpt lat="45.92608" lon="3.65868">
        <ele>783.42</ele>
        <time>2013-07-14T15:07:29Z</time>
      </trkpt>
      <trkpt lat="45.92628" lon="3.65868">
        <ele>779.74</ele>
        <time>2013-07-14T15:07:35Z</time>
      </trkpt>
      <trkpt lat="45.92648" lon="3.65864">
        <ele>776.43</ele>
        <time>2013-07-14T15:07:42Z</time>
      </trkpt>
      <trkpt lat="45.92669" lon="3.65862">
        <ele>772.81</ele>
        <time>2013-07-14T15:07:51Z</time>
      </trkpt>
      <trkpt lat="45.92687" lon="3.65875">
        <ele>769.31</ele>
        <time>2013-07-14T15:08:00Z</time>
      </trkpt>
      <trkpt lat="45.92701" lon="3.65896">
        <ele>768.02</ele>
        <time>2013-07-14T15:08:10Z</time>
      </trkpt>
      <trkpt lat="45.9272" lon="3.65896">
        <ele>768.2</ele>
        <time>2013-07-14T15:08:19Z</time>
      </trkpt>
      <trkpt lat="45.92735" lon="3.65877">
        <ele>768.84</ele>
        <time>2013-07-14T15:08:26Z</time>
      </trkpt>
      <trkpt lat="45.92746" lon="3.65855">
        <ele>769.61</ele>
        <time>2013-07-14T15:08:32Z</time>
      </trkpt>
      <trkpt lat="45.92758" lon="3.65832">
        <ele>770.67</ele>
        <time>2013-07-14T15:08:40Z</time>
      </trkpt>
      <trkpt lat="45.92767" lon="3.65804">
        <ele>771.93</ele>
        <time>2013-07-14T15:08:48Z</time>
      </trkpt>
      <trkpt lat="45.92768" lon="3.65774">
        <ele>773.86</ele>
        <time>2013-07-14T15:08:56Z</time>
      </trkpt>
      <trkpt lat="45.92765" lon="3.6574">
        <ele>775.43</ele>
        <time>2013-07-14T15:09:02Z</time>
      </trkpt>
      <trkpt lat="45.92767" lon="3.6571">
        <ele>778.3</ele>
        <time>2013-07-14T15:09:11Z</time>
      </trkpt>
      <trkpt lat="45.92762" lon="3.6568">
        <ele>782.01</ele>
        <time>2013-07-14T15:09:15Z</time>
      </trkpt>
      <trkpt lat="45.92751" lon="3.65652">
        <ele>786.61</ele>
        <time>2013-07-14T15:09:19Z</time>
      </trkpt>
      <trkpt lat="45.92734" lon="3.65626">
        <ele>792.94</ele>
        <time>2013-07-14T15:09:24Z</time>
      </trkpt>
      <trkpt lat="45.92716" lon="3.65607">
        <ele>798.11</ele>
        <time>2013-07-14T15:09:29Z</time>
      </trkpt>
      <trkpt lat="45.927" lon="3.65574">
        <ele>805.15</ele>
        <time>2013-07-14T15:09:36Z</time>
      </trkpt>
      <trkpt lat="45.92689" lon="3.65549">
        <ele>809.89</ele>
        <time>2013-07-14T15:09:42Z</time>
      </trkpt>
      <trkpt lat="45.9268" lon="3.65521">
        <ele>813.76</ele>
        <time>2013-07-14T15:09:50Z</time>
      </trkpt>
      <trkpt lat="45.92672" lon="3.65495">
        <ele>815.99</ele>
        <time>2013-07-14T15:09:56Z</time>
      </trkpt>
      <trkpt lat="45.92662" lon="3.65469">
        <ele>816.07</ele>
        <time>2013-07-14T15:10:00Z</time>
      </trkpt>
      <trkpt lat="45.92648" lon="3.65448">
        <ele>815.56</ele>
        <time>2013-07-14T15:10:03Z</time>
      </trkpt>
      <trkpt lat="45.92633" lon="3.65433">
        <ele>814.19</ele>
        <time>2013-07-14T15:10:06Z</time>
      </trkpt>
      <trkpt lat="45.92618" lon="3.65413">
        <ele>812.22</ele>
        <time>2013-07-14T15:10:10Z</time>
      </trkpt>
      <trkpt lat="45.92607" lon="3.65392">
        <ele>810.23</ele>
        <time>2013-07-14T15:10:14Z</time>
      </trkpt>
      <trkpt lat="45.92603" lon="3.65362">
        <ele>807.79</ele>
        <time>2013-07-14T15:10:21Z</time>
      </trkpt>
      <trkpt lat="45.92603" lon="3.65334">
        <ele>802.65</ele>
        <time>2013-07-14T15:10:28Z</time>
      </trkpt>
      <trkpt lat="45.92602" lon="3.65306">
        <ele>789.91</ele>
        <time>2013-07-14T15:10:39Z</time>
      </trkpt>
      <trkpt lat="45.92597" lon="3.6528">
        <ele>784.28</ele>
        <time>2013-07-14T15:10:48Z</time>
      </trkpt>
      <trkpt lat="45.92587" lon="3.65259">
        <ele>781.17</ele>
        <time>2013-07-14T15:10:56Z</time>
      </trkpt>
      <trkpt lat="45.92576" lon="3.65235">
        <ele>779</ele>
        <time>2013-07-14T15:11:06Z</time>
      </trkpt>
      <trkpt lat="45.92566" lon="3.65212">
        <ele>776.74</ele>
        <time>2013-07-14T15:11:13Z</time>
      </trkpt>
      <trkpt lat="45.92562" lon="3.65186">
        <ele>776.09</ele>
        <time>2013-07-14T15:11:19Z</time>
      </trkpt>
      <trkpt lat="45.92563" lon="3.6516">
        <ele>775.96</ele>
        <time>2013-07-14T15:11:26Z</time>
      </trkpt>
      <trkpt lat="45.92567" lon="3.65128">
        <ele>774.68</ele>
        <time>2013-07-14T15:11:30Z</time>
      </trkpt>
      <trkpt lat="45.92571" lon="3.65102">
        <ele>772.16</ele>
        <time>2013-07-14T15:11:33Z</time>
      </trkpt>
      <trkpt lat="45.92573" lon="3.65077">
        <ele>768.26</ele>
        <time>2013-07-14T15:11:38Z</time>
      </trkpt>
      <trkpt lat="45.9258" lon="3.65049">
        <ele>765.59</ele>
        <time>2013-07-14T15:11:44Z</time>
      </trkpt>
      <trkpt lat="45.92595" lon="3.65025">
        <ele>763.21</ele>
        <time>2013-07-14T15:11:49Z</time>
      </trkpt>
      <trkpt lat="45.92609" lon="3.65008">
        <ele>761.41</ele>
        <time>2013-07-14T15:11:53Z</time>
      </trkpt>
      <trkpt lat="45.92623" lon="3.64984">
        <ele>759.71</ele>
        <time>2013-07-14T15:11:58Z</time>
      </trkpt>
      <trkpt lat="45.92625" lon="3.64959">
        <ele>758.61</ele>
        <time>2013-07-14T15:12:05Z</time>
      </trkpt>
      <trkpt lat="45.92612" lon="3.64931">
        <ele>758.9</ele>
        <time>2013-07-14T15:12:12Z</time>
      </trkpt>
      <trkpt lat="45.9262" lon="3.64907">
        <ele>758.94</ele>
        <time>2013-07-14T15:12:20Z</time>
      </trkpt>
      <trkpt lat="45.92638" lon="3.64905">
        <ele>758.94</ele>
        <time>2013-07-14T15:12:32Z</time>
      </trkpt>
      <trkpt lat="45.92656" lon="3.64892">
        <ele>758.37</ele>
        <time>2013-07-14T15:12:44Z</time>
      </trkpt>
      <trkpt lat="45.92672" lon="3.64879">
        <ele>759.19</ele>
        <time>2013-07-14T15:13:06Z</time>
      </trkpt>
      <trkpt lat="45.92689" lon="3.64864">
        <ele>759.06</ele>
        <time>2013-07-14T15:13:19Z</time>
      </trkpt>
      <trkpt lat="45.92704" lon="3.64847">
        <ele>758.13</ele>
        <time>2013-07-14T15:13:29Z</time>
      </trkpt>
      <trkpt lat="45.92721" lon="3.64832">
        <ele>757.95</ele>
        <time>2013-07-14T15:13:40Z</time>
      </trkpt>
      <trkpt lat="45.92739" lon="3.64821">
        <ele>758.19</ele>
        <time>2013-07-14T15:13:49Z</time>
      </trkpt>
      <trkpt lat="45.92755" lon="3.64808">
        <ele>760.13</ele>
        <time>2013-07-14T15:13:57Z</time>
      </trkpt>
      <trkpt lat="45.92779" lon="3.64798">
        <ele>764.61</ele>
        <time>2013-07-14T15:14:09Z</time>
      </trkpt>
      <trkpt lat="45.92796" lon="3.64783">
        <ele>767.38</ele>
        <time>2013-07-14T15:14:16Z</time>
      </trkpt>
      <trkpt lat="45.92814" lon="3.6477">
        <ele>770.14</ele>
        <time>2013-07-14T15:14:23Z</time>
      </trkpt>
      <trkpt lat="45.92833" lon="3.64759">
        <ele>772.45</ele>
        <time>2013-07-14T15:14:29Z</time>
      </trkpt>
      <trkpt lat="45.92853" lon="3.64748">
        <ele>774.36</ele>
        <time>2013-07-14T15:14:35Z</time>
      </trkpt>
      <trkpt lat="45.92868" lon="3.64731">
        <ele>776.24</ele>
        <time>2013-07-14T15:14:41Z</time>
      </trkpt>
      <trkpt lat="45.92884" lon="3.64714">
        <ele>778.29</ele>
        <time>2013-07-14T15:14:48Z</time>
      </trkpt>
      <trkpt lat="45.92901" lon="3.64703">
        <ele>780.32</ele>
        <time>2013-07-14T15:14:56Z</time>
      </trkpt>
      <trkpt lat="45.92919" lon="3.64695">
        <ele>782.41</ele>
        <time>2013-07-14T15:15:06Z</time>
      </trkpt>
      <trkpt lat="45.92937" lon="3.64692">
        <ele>784.39</ele>
        <time>2013-07-14T15:15:16Z</time>
      </trkpt>
      <trkpt lat="45.92957" lon="3.64686">
        <ele>784.91</ele>
        <time>2013-07-14T15:15:26Z</time>
      </trkpt>
      <trkpt lat="45.92976" lon="3.6468">
        <ele>785.84</ele>
        <time>2013-07-14T15:15:36Z</time>
      </trkpt>
      <trkpt lat="45.92994" lon="3.64675">
        <ele>785.94</ele>
        <time>2013-07-14T15:15:48Z</time>
      </trkpt>
      <trkpt lat="45.93013" lon="3.64677">
        <ele>785.02</ele>
        <time>2013-07-14T15:15:59Z</time>
      </trkpt>
      <trkpt lat="45.93032" lon="3.6468">
        <ele>785.14</ele>
        <time>2013-07-14T15:16:11Z</time>
      </trkpt>
      <trkpt lat="45.9305" lon="3.64677">
        <ele>787.04</ele>
        <time>2013-07-14T15:16:18Z</time>
      </trkpt>
      <trkpt lat="45.93069" lon="3.64677">
        <ele>789.4</ele>
        <time>2013-07-14T15:16:26Z</time>
      </trkpt>
      <trkpt lat="45.93088" lon="3.64677">
        <ele>791.87</ele>
        <time>2013-07-14T15:16:36Z</time>
      </trkpt>
      <trkpt lat="45.93106" lon="3.64682">
        <ele>793.84</ele>
        <time>2013-07-14T15:16:53Z</time>
      </trkpt>
      <trkpt lat="45.93123" lon="3.64692">
        <ele>795.42</ele>
        <time>2013-07-14T15:17:06Z</time>
      </trkpt>
      <trkpt lat="45.9314" lon="3.64703">
        <ele>796.68</ele>
        <time>2013-07-14T15:17:16Z</time>
      </trkpt>
      <trkpt lat="45.93157" lon="3.64714">
        <ele>799.82</ele>
        <time>2013-07-14T15:17:29Z</time>
      </trkpt>
      <trkpt lat="45.93175" lon="3.64725">
        <ele>802.74</ele>
        <time>2013-07-14T15:17:40Z</time>
      </trkpt>
      <trkpt lat="45.93191" lon="3.64738">
        <ele>804.76</ele>
        <time>2013-07-14T15:17:49Z</time>
      </trkpt>
      <trkpt lat="45.93207" lon="3.6475">
        <ele>808.84</ele>
        <time>2013-07-14T15:18:04Z</time>
      </trkpt>
      <trkpt lat="45.93225" lon="3.64759">
        <ele>811.49</ele>
        <time>2013-07-14T15:18:16Z</time>
      </trkpt>
      <trkpt lat="45.93243" lon="3.64765">
        <ele>814.45</ele>
        <time>2013-07-14T15:18:32Z</time>
      </trkpt>
      <trkpt lat="45.9326" lon="3.64776">
        <ele>816.71</ele>
        <time>2013-07-14T15:18:58Z</time>
      </trkpt>
      <trkpt lat="45.93279" lon="3.64772">
        <ele>819.3</ele>
        <time>2013-07-14T15:19:12Z</time>
      </trkpt>
      <trkpt lat="45.93298" lon="3.64774">
        <ele>822.51</ele>
        <time>2013-07-14T15:19:25Z</time>
      </trkpt>
      <trkpt lat="45.93316" lon="3.6478">
        <ele>824.97</ele>
        <time>2013-07-14T15:19:38Z</time>
      </trkpt>
      <trkpt lat="45.93334" lon="3.64785">
        <ele>826.93</ele>
        <time>2013-07-14T15:19:58Z</time>
      </trkpt>
      <trkpt lat="45.93352" lon="3.6477">
        <ele>828.86</ele>
        <time>2013-07-14T15:20:13Z</time>
      </trkpt>
      <trkpt lat="45.93368" lon="3.64757">
        <ele>833.24</ele>
        <time>2013-07-14T15:20:22Z</time>
      </trkpt>
      <trkpt lat="45.93387" lon="3.64748">
        <ele>837.95</ele>
        <time>2013-07-14T15:20:34Z</time>
      </trkpt>
      <trkpt lat="45.93405" lon="3.64742">
        <ele>840.72</ele>
        <time>2013-07-14T15:20:46Z</time>
      </trkpt>
      <trkpt lat="45.93425" lon="3.64738">
        <ele>840.93</ele>
        <time>2013-07-14T15:20:55Z</time>
      </trkpt>
      <trkpt lat="45.93443" lon="3.64727">
        <ele>842.39</ele>
        <time>2013-07-14T15:21:02Z</time>
      </trkpt>
      <trkpt lat="45.93461" lon="3.64722">
        <ele>844.16</ele>
        <time>2013-07-14T15:21:11Z</time>
      </trkpt>
      <trkpt lat="45.9348" lon="3.6472">
        <ele>845.77</ele>
        <time>2013-07-14T15:21:21Z</time>
      </trkpt>
      <trkpt lat="45.93499" lon="3.64718">
        <ele>845.94</ele>
        <time>2013-07-14T15:21:33Z</time>
      </trkpt>
      <trkpt lat="45.93517" lon="3.64714">
        <ele>845.51</ele>
        <time>2013-07-14T15:21:45Z</time>
      </trkpt>
      <trkpt lat="45.93535" lon="3.64707">
        <ele>844.81</ele>
        <time>2013-07-14T15:22:01Z</time>
      </trkpt>
      <trkpt lat="45.93553" lon="3.64712">
        <ele>845.77</ele>
        <time>2013-07-14T15:22:29Z</time>
      </trkpt>
      <trkpt lat="45.93567" lon="3.64731">
        <ele>848.65</ele>
        <time>2013-07-14T15:22:50Z</time>
      </trkpt>
      <trkpt lat="45.93572" lon="3.64757">
        <ele>850.75</ele>
        <time>2013-07-14T15:23:08Z</time>
      </trkpt>
      <trkpt lat="45.93574" lon="3.64783">
        <ele>853.43</ele>
        <time>2013-07-14T15:23:20Z</time>
      </trkpt>
      <trkpt lat="45.93576" lon="3.64808">
        <ele>857.11</ele>
        <time>2013-07-14T15:23:33Z</time>
      </trkpt>
      <trkpt lat="45.93575" lon="3.64836">
        <ele>861.62</ele>
        <time>2013-07-14T15:23:52Z</time>
      </trkpt>
      <trkpt lat="45.93593" lon="3.64841">
        <ele>872.55</ele>
        <time>2013-07-14T15:29:16Z</time>
      </trkpt>
      <trkpt lat="45.93609" lon="3.64828">
        <ele>876.52</ele>
        <time>2013-07-14T15:29:33Z</time>
      </trkpt>
      <trkpt lat="45.93625" lon="3.64815">
        <ele>879.49</ele>
        <time>2013-07-14T15:29:46Z</time>
      </trkpt>
      <trkpt lat="45.9364" lon="3.648">
        <ele>882.13</ele>
        <time>2013-07-14T15:29:57Z</time>
      </trkpt>
      <trkpt lat="45.93655" lon="3.64785">
        <ele>884.85</ele>
        <time>2013-07-14T15:30:08Z</time>
      </trkpt>
      <trkpt lat="45.93666" lon="3.64763">
        <ele>887.14</ele>
        <time>2013-07-14T15:30:18Z</time>
      </trkpt>
      <trkpt lat="45.93679" lon="3.64744">
        <ele>889.48</ele>
        <time>2013-07-14T15:30:28Z</time>
      </trkpt>
      <trkpt lat="45.93692" lon="3.64725">
        <ele>891.55</ele>
        <time>2013-07-14T15:30:39Z</time>
      </trkpt>
      <trkpt lat="45.93708" lon="3.6471">
        <ele>893.58</ele>
        <time>2013-07-14T15:30:52Z</time>
      </trkpt>
      <trkpt lat="45.93723" lon="3.64695">
        <ele>894.76</ele>
        <time>2013-07-14T15:31:05Z</time>
      </trkpt>
      <trkpt lat="45.9374" lon="3.64705">
        <ele>895.9</ele>
        <time>2013-07-14T15:31:22Z</time>
      </trkpt>
      <trkpt lat="45.93744" lon="3.64731">
        <ele>895.5</ele>
        <time>2013-07-14T15:31:33Z</time>
      </trkpt>
      <trkpt lat="45.93755" lon="3.64753">
        <ele>895.72</ele>
        <time>2013-07-14T15:31:47Z</time>
      </trkpt>
      <trkpt lat="45.93769" lon="3.64774">
        <ele>897.51</ele>
        <time>2013-07-14T15:31:56Z</time>
      </trkpt>
      <trkpt lat="45.93774" lon="3.648">
        <ele>898.52</ele>
        <time>2013-07-14T15:32:01Z</time>
      </trkpt>
      <trkpt lat="45.93779" lon="3.64828">
        <ele>899.28</ele>
        <time>2013-07-14T15:32:06Z</time>
      </trkpt>
      <trkpt lat="45.93775" lon="3.64858">
        <ele>899.73</ele>
        <time>2013-07-14T15:32:10Z</time>
      </trkpt>
      <trkpt lat="45.93771" lon="3.64886">
        <ele>899.88</ele>
        <time>2013-07-14T15:32:14Z</time>
      </trkpt>
      <trkpt lat="45.93769" lon="3.64911">
        <ele>900.62</ele>
        <time>2013-07-14T15:32:20Z</time>
      </trkpt>
      <trkpt lat="45.93763" lon="3.64937">
        <ele>900.91</ele>
        <time>2013-07-14T15:32:28Z</time>
      </trkpt>
      <trkpt lat="45.93751" lon="3.64959">
        <ele>900.94</ele>
        <time>2013-07-14T15:32:35Z</time>
      </trkpt>
      <trkpt lat="45.93741" lon="3.64982">
        <ele>900.37</ele>
        <time>2013-07-14T15:32:42Z</time>
      </trkpt>
      <trkpt lat="45.93734" lon="3.65006">
        <ele>899.3</ele>
        <time>2013-07-14T15:32:50Z</time>
      </trkpt>
      <trkpt lat="45.93735" lon="3.65031">
        <ele>899.94</ele>
        <time>2013-07-14T15:33:09Z</time>
      </trkpt>
      <trkpt lat="45.93749" lon="3.65051">
        <ele>902.77</ele>
        <time>2013-07-14T15:35:06Z</time>
      </trkpt>
      <trkpt lat="45.93763" lon="3.65074">
        <ele>902.91</ele>
        <time>2013-07-14T15:35:12Z</time>
      </trkpt>
      <trkpt lat="45.93775" lon="3.65094">
        <ele>902.94</ele>
        <time>2013-07-14T15:35:17Z</time>
      </trkpt>
      <trkpt lat="45.93791" lon="3.65109">
        <ele>902.94</ele>
        <time>2013-07-14T15:35:22Z</time>
      </trkpt>
      <trkpt lat="45.9381" lon="3.65124">
        <ele>903.38</ele>
        <time>2013-07-14T15:35:27Z</time>
      </trkpt>
      <trkpt lat="45.93826" lon="3.65137">
        <ele>903.81</ele>
        <time>2013-07-14T15:35:32Z</time>
      </trkpt>
      <trkpt lat="45.93843" lon="3.65145">
        <ele>904.36</ele>
        <time>2013-07-14T15:35:38Z</time>
      </trkpt>
      <trkpt lat="45.93863" lon="3.65152">
        <ele>904.89</ele>
        <time>2013-07-14T15:35:46Z</time>
      </trkpt>
      <trkpt lat="45.93883" lon="3.6516">
        <ele>904.94</ele>
        <time>2013-07-14T15:35:53Z</time>
      </trkpt>
      <trkpt lat="45.93903" lon="3.65165">
        <ele>904.94</ele>
        <time>2013-07-14T15:35:59Z</time>
      </trkpt>
      <trkpt lat="45.93922" lon="3.65162">
        <ele>904.69</ele>
        <time>2013-07-14T15:36:06Z</time>
      </trkpt>
      <trkpt lat="45.93942" lon="3.65165">
        <ele>904.48</ele>
        <time>2013-07-14T15:36:13Z</time>
      </trkpt>
      <trkpt lat="45.93963" lon="3.65167">
        <ele>905.27</ele>
        <time>2013-07-14T15:36:18Z</time>
      </trkpt>
      <trkpt lat="45.93984" lon="3.65171">
        <ele>906.1</ele>
        <time>2013-07-14T15:36:22Z</time>
      </trkpt>
      <trkpt lat="45.94004" lon="3.65167">
        <ele>907.76</ele>
        <time>2013-07-14T15:36:27Z</time>
      </trkpt>
      <trkpt lat="45.94022" lon="3.65162">
        <ele>909.24</ele>
        <time>2013-07-14T15:36:32Z</time>
      </trkpt>
      <trkpt lat="45.94044" lon="3.65158">
        <ele>910.83</ele>
        <time>2013-07-14T15:36:38Z</time>
      </trkpt>
      <trkpt lat="45.94063" lon="3.65154">
        <ele>912.12</ele>
        <time>2013-07-14T15:36:43Z</time>
      </trkpt>
      <trkpt lat="45.94081" lon="3.65145">
        <ele>913.44</ele>
        <time>2013-07-14T15:36:51Z</time>
      </trkpt>
      <trkpt lat="45.94103" lon="3.6513">
        <ele>914.83</ele>
        <time>2013-07-14T15:36:57Z</time>
      </trkpt>
      <trkpt lat="45.94119" lon="3.65117">
        <ele>916.01</ele>
        <time>2013-07-14T15:37:01Z</time>
      </trkpt>
      <trkpt lat="45.94136" lon="3.65104">
        <ele>916.81</ele>
        <time>2013-07-14T15:37:05Z</time>
      </trkpt>
      <trkpt lat="45.94157" lon="3.65083">
        <ele>916.57</ele>
        <time>2013-07-14T15:37:14Z</time>
      </trkpt>
      <trkpt lat="45.94175" lon="3.65074">
        <ele>916.3</ele>
        <time>2013-07-14T15:38:53Z</time>
      </trkpt>
      <trkpt lat="45.94193" lon="3.65068">
        <ele>915.58</ele>
        <time>2013-07-14T15:39:04Z</time>
      </trkpt>
      <trkpt lat="45.94212" lon="3.65066">
        <ele>915.56</ele>
        <time>2013-07-14T15:39:11Z</time>
      </trkpt>
      <trkpt lat="45.94231" lon="3.65068">
        <ele>914.35</ele>
        <time>2013-07-14T15:39:16Z</time>
      </trkpt>
      <trkpt lat="45.94253" lon="3.65066">
        <ele>913.23</ele>
        <time>2013-07-14T15:39:20Z</time>
      </trkpt>
      <trkpt lat="45.94274" lon="3.65068">
        <ele>911.95</ele>
        <time>2013-07-14T15:39:25Z</time>
      </trkpt>
      <trkpt lat="45.94299" lon="3.65068">
        <ele>909.05</ele>
        <time>2013-07-14T15:39:29Z</time>
      </trkpt>
      <trkpt lat="45.94321" lon="3.65064">
        <ele>907.03</ele>
        <time>2013-07-14T15:39:32Z</time>
      </trkpt>
      <trkpt lat="45.94347" lon="3.65051">
        <ele>906.42</ele>
        <time>2013-07-14T15:39:35Z</time>
      </trkpt>
      <trkpt lat="45.94363" lon="3.65038">
        <ele>906.92</ele>
        <time>2013-07-14T15:39:37Z</time>
      </trkpt>
      <trkpt lat="45.94385" lon="3.65019">
        <ele>907.86</ele>
        <time>2013-07-14T15:39:40Z</time>
      </trkpt>
      <trkpt lat="45.94397" lon="3.64997">
        <ele>908.84</ele>
        <time>2013-07-14T15:39:43Z</time>
      </trkpt>
      <trkpt lat="45.94407" lon="3.64976">
        <ele>909</ele>
        <time>2013-07-14T15:39:46Z</time>
      </trkpt>
      <trkpt lat="45.94419" lon="3.64954">
        <ele>908.49</ele>
        <time>2013-07-14T15:39:49Z</time>
      </trkpt>
      <trkpt lat="45.94434" lon="3.64939">
        <ele>905.9</ele>
        <time>2013-07-14T15:39:53Z</time>
      </trkpt>
      <trkpt lat="45.94453" lon="3.6492">
        <ele>902.8</ele>
        <time>2013-07-14T15:40:02Z</time>
      </trkpt>
      <trkpt lat="45.94473" lon="3.64911">
        <ele>900.84</ele>
        <time>2013-07-14T15:40:08Z</time>
      </trkpt>
      <trkpt lat="45.94492" lon="3.64909">
        <ele>898.33</ele>
        <time>2013-07-14T15:40:17Z</time>
      </trkpt>
      <trkpt lat="45.94512" lon="3.64918">
        <ele>895.55</ele>
        <time>2013-07-14T15:40:36Z</time>
      </trkpt>
      <trkpt lat="45.94534" lon="3.64922">
        <ele>894.44</ele>
        <time>2013-07-14T15:40:43Z</time>
      </trkpt>
      <trkpt lat="45.94553" lon="3.64926">
        <ele>893.35</ele>
        <time>2013-07-14T15:40:53Z</time>
      </trkpt>
      <trkpt lat="45.94571" lon="3.64935">
        <ele>892.33</ele>
        <time>2013-07-14T15:41:05Z</time>
      </trkpt>
      <trkpt lat="45.94592" lon="3.64939">
        <ele>890.7</ele>
        <time>2013-07-14T15:41:19Z</time>
      </trkpt>
      <trkpt lat="45.94614" lon="3.64948">
        <ele>889.9</ele>
        <time>2013-07-14T15:41:25Z</time>
      </trkpt>
      <trkpt lat="45.94636" lon="3.64959">
        <ele>888.68</ele>
        <time>2013-07-14T15:41:31Z</time>
      </trkpt>
      <trkpt lat="45.94658" lon="3.64965">
        <ele>886.16</ele>
        <time>2013-07-14T15:41:36Z</time>
      </trkpt>
      <trkpt lat="45.9468" lon="3.64967">
        <ele>881.67</ele>
        <time>2013-07-14T15:41:44Z</time>
      </trkpt>
      <trkpt lat="45.94696" lon="3.64948">
        <ele>866.82</ele>
        <time>2013-07-14T15:42:28Z</time>
      </trkpt>
      <trkpt lat="45.94688" lon="3.6492">
        <ele>864.53</ele>
        <time>2013-07-14T15:42:36Z</time>
      </trkpt>
      <trkpt lat="45.94685" lon="3.6489">
        <ele>862.26</ele>
        <time>2013-07-14T15:42:45Z</time>
      </trkpt>
      <trkpt lat="45.94679" lon="3.6486">
        <ele>861.65</ele>
        <time>2013-07-14T15:42:52Z</time>
      </trkpt>
      <trkpt lat="45.94676" lon="3.64834">
        <ele>862</ele>
        <time>2013-07-14T15:43:00Z</time>
      </trkpt>
      <trkpt lat="45.9468" lon="3.64808">
        <ele>860.8</ele>
        <time>2013-07-14T15:43:13Z</time>
      </trkpt>
      <trkpt lat="45.94682" lon="3.6478">
        <ele>859.02</ele>
        <time>2013-07-14T15:43:25Z</time>
      </trkpt>
      <trkpt lat="45.94683" lon="3.64753">
        <ele>857.42</ele>
        <time>2013-07-14T15:43:36Z</time>
      </trkpt>
      <trkpt lat="45.94684" lon="3.64727">
        <ele>856.51</ele>
        <time>2013-07-14T15:43:41Z</time>
      </trkpt>
      <trkpt lat="45.94684" lon="3.64699">
        <ele>855.78</ele>
        <time>2013-07-14T15:43:46Z</time>
      </trkpt>
      <trkpt lat="45.94679" lon="3.64673">
        <ele>856.42</ele>
        <time>2013-07-14T15:43:52Z</time>
      </trkpt>
      <trkpt lat="45.94671" lon="3.64647">
        <ele>857.76</ele>
        <time>2013-07-14T15:43:55Z</time>
      </trkpt>
      <trkpt lat="45.94664" lon="3.64619">
        <ele>859.63</ele>
        <time>2013-07-14T15:43:58Z</time>
      </trkpt>
      <trkpt lat="45.94653" lon="3.64594">
        <ele>862.03</ele>
        <time>2013-07-14T15:44:03Z</time>
      </trkpt>
      <trkpt lat="45.94649" lon="3.64566">
        <ele>864.22</ele>
        <time>2013-07-14T15:44:09Z</time>
      </trkpt>
      <trkpt lat="45.94648" lon="3.64532">
        <ele>865.71</ele>
        <time>2013-07-14T15:44:13Z</time>
      </trkpt>
      <trkpt lat="45.94655" lon="3.64497">
        <ele>865.26</ele>
        <time>2013-07-14T15:44:16Z</time>
      </trkpt>
      <trkpt lat="45.94663" lon="3.64474">
        <ele>863.39</ele>
        <time>2013-07-14T15:44:18Z</time>
      </trkpt>
      <trkpt lat="45.94677" lon="3.64446">
        <ele>860.48</ele>
        <time>2013-07-14T15:44:21Z</time>
      </trkpt>
      <trkpt lat="45.94688" lon="3.64422">
        <ele>857.77</ele>
        <time>2013-07-14T15:44:24Z</time>
      </trkpt>
      <trkpt lat="45.94699" lon="3.64398">
        <ele>855.91</ele>
        <time>2013-07-14T15:44:27Z</time>
      </trkpt>
      <trkpt lat="45.94712" lon="3.64379">
        <ele>854.4</ele>
        <time>2013-07-14T15:44:31Z</time>
      </trkpt>
      <trkpt lat="45.9473" lon="3.64375">
        <ele>852.12</ele>
        <time>2013-07-14T15:44:35Z</time>
      </trkpt>
      <trkpt lat="45.94747" lon="3.64386">
        <ele>848.67</ele>
        <time>2013-07-14T15:44:39Z</time>
      </trkpt>
      <trkpt lat="45.94767" lon="3.64411">
        <ele>845.45</ele>
        <time>2013-07-14T15:44:50Z</time>
      </trkpt>
      <trkpt lat="45.9478" lon="3.64433">
        <ele>843.88</ele>
        <time>2013-07-14T15:44:58Z</time>
      </trkpt>
      <trkpt lat="45.94794" lon="3.64454">
        <ele>844.6</ele>
        <time>2013-07-14T15:45:06Z</time>
      </trkpt>
      <trkpt lat="45.94805" lon="3.64476">
        <ele>845.79</ele>
        <time>2013-07-14T15:45:20Z</time>
      </trkpt>
      <trkpt lat="45.94818" lon="3.64497">
        <ele>846.78</ele>
        <time>2013-07-14T15:45:32Z</time>
      </trkpt>
      <trkpt lat="45.94832" lon="3.64519">
        <ele>848.65</ele>
        <time>2013-07-14T15:45:44Z</time>
      </trkpt>
      <trkpt lat="45.94846" lon="3.64538">
        <ele>850.48</ele>
        <time>2013-07-14T15:46:02Z</time>
      </trkpt>
      <trkpt lat="45.94865" lon="3.64557">
        <ele>852.13</ele>
        <time>2013-07-14T15:46:07Z</time>
      </trkpt>
      <trkpt lat="45.94882" lon="3.64572">
        <ele>853.35</ele>
        <time>2013-07-14T15:46:11Z</time>
      </trkpt>
      <trkpt lat="45.94902" lon="3.64589">
        <ele>855.41</ele>
        <time>2013-07-14T15:46:18Z</time>
      </trkpt>
      <trkpt lat="45.94921" lon="3.64602">
        <ele>856.65</ele>
        <time>2013-07-14T15:46:25Z</time>
      </trkpt>
      <trkpt lat="45.94939" lon="3.64613">
        <ele>858.63</ele>
        <time>2013-07-14T15:46:36Z</time>
      </trkpt>
      <trkpt lat="45.94958" lon="3.64624">
        <ele>859.5</ele>
        <time>2013-07-14T15:46:46Z</time>
      </trkpt>
      <trkpt lat="45.94975" lon="3.64637">
        <ele>859.55</ele>
        <time>2013-07-14T15:46:58Z</time>
      </trkpt>
      <trkpt lat="45.95001" lon="3.64643">
        <ele>860.74</ele>
        <time>2013-07-14T15:47:05Z</time>
      </trkpt>
      <trkpt lat="45.9502" lon="3.64643">
        <ele>862.23</ele>
        <time>2013-07-14T15:47:09Z</time>
      </trkpt>
      <trkpt lat="45.95042" lon="3.64637">
        <ele>864.25</ele>
        <time>2013-07-14T15:47:14Z</time>
      </trkpt>
      <trkpt lat="45.95065" lon="3.64639">
        <ele>865.58</ele>
        <time>2013-07-14T15:47:18Z</time>
      </trkpt>
      <trkpt lat="45.95084" lon="3.64639">
        <ele>867.01</ele>
        <time>2013-07-14T15:47:23Z</time>
      </trkpt>
      <trkpt lat="45.95104" lon="3.64641">
        <ele>868.06</ele>
        <time>2013-07-14T15:47:27Z</time>
      </trkpt>
      <trkpt lat="45.95125" lon="3.64643">
        <ele>869.12</ele>
        <time>2013-07-14T15:47:32Z</time>
      </trkpt>
      <trkpt lat="45.95145" lon="3.64643">
        <ele>871.84</ele>
        <time>2013-07-14T15:47:36Z</time>
      </trkpt>
      <trkpt lat="45.95168" lon="3.64643">
        <ele>875.39</ele>
        <time>2013-07-14T15:47:40Z</time>
      </trkpt>
      <trkpt lat="45.95189" lon="3.64645">
        <ele>877.55</ele>
        <time>2013-07-14T15:47:44Z</time>
      </trkpt>
      <trkpt lat="45.95209" lon="3.64652">
        <ele>878.24</ele>
        <time>2013-07-14T15:47:48Z</time>
      </trkpt>
      <trkpt lat="45.95226" lon="3.6466">
        <ele>878.92</ele>
        <time>2013-07-14T15:47:53Z</time>
      </trkpt>
      <trkpt lat="45.95245" lon="3.64669">
        <ele>879.79</ele>
        <time>2013-07-14T15:48:06Z</time>
      </trkpt>
      <trkpt lat="45.95267" lon="3.64665">
        <ele>880.76</ele>
        <time>2013-07-14T15:48:16Z</time>
      </trkpt>
      <trkpt lat="45.95284" lon="3.64675">
        <ele>882.55</ele>
        <time>2013-07-14T15:51:23Z</time>
      </trkpt>
      <trkpt lat="45.953" lon="3.64662">
        <ele>882.97</ele>
        <time>2013-07-14T16:23:44Z</time>
      </trkpt>
      <trkpt lat="45.95318" lon="3.6466">
        <ele>882.6</ele>
        <time>2013-07-14T16:23:52Z</time>
      </trkpt>
      <trkpt lat="45.95338" lon="3.64654">
        <ele>881.69</ele>
        <time>2013-07-14T16:24:00Z</time>
      </trkpt>
      <trkpt lat="45.95355" lon="3.64641">
        <ele>880.64</ele>
        <time>2013-07-14T16:24:07Z</time>
      </trkpt>
      <trkpt lat="45.95372" lon="3.6463">
        <ele>879.37</ele>
        <time>2013-07-14T16:24:12Z</time>
      </trkpt>
      <trkpt lat="45.95391" lon="3.64624">
        <ele>878.31</ele>
        <time>2013-07-14T16:24:17Z</time>
      </trkpt>
      <trkpt lat="45.95412" lon="3.64626">
        <ele>877</ele>
        <time>2013-07-14T16:24:23Z</time>
      </trkpt>
      <trkpt lat="45.95431" lon="3.64637">
        <ele>876.08</ele>
        <time>2013-07-14T16:24:28Z</time>
      </trkpt>
      <trkpt lat="45.9545" lon="3.64641">
        <ele>875.72</ele>
        <time>2013-07-14T16:24:32Z</time>
      </trkpt>
      <trkpt lat="45.95469" lon="3.64645">
        <ele>875.61</ele>
        <time>2013-07-14T16:24:36Z</time>
      </trkpt>
      <trkpt lat="45.95489" lon="3.64645">
        <ele>875.56</ele>
        <time>2013-07-14T16:24:42Z</time>
      </trkpt>
      <trkpt lat="45.95507" lon="3.64643">
        <ele>875.12</ele>
        <time>2013-07-14T16:24:48Z</time>
      </trkpt>
      <trkpt lat="45.95525" lon="3.64641">
        <ele>873.62</ele>
        <time>2013-07-14T16:24:55Z</time>
      </trkpt>
      <trkpt lat="45.95544" lon="3.64639">
        <ele>871.37</ele>
        <time>2013-07-14T16:25:04Z</time>
      </trkpt>
      <trkpt lat="45.95562" lon="3.64628">
        <ele>869.84</ele>
        <time>2013-07-14T16:25:14Z</time>
      </trkpt>
      <trkpt lat="45.9558" lon="3.64624">
        <ele>869.33</ele>
        <time>2013-07-14T16:25:22Z</time>
      </trkpt>
      <trkpt lat="45.95599" lon="3.64622">
        <ele>869.7</ele>
        <time>2013-07-14T16:25:30Z</time>
      </trkpt>
      <trkpt lat="45.95618" lon="3.64624">
        <ele>872.09</ele>
        <time>2013-07-14T16:25:37Z</time>
      </trkpt>
      <trkpt lat="45.95638" lon="3.64624">
        <ele>875.39</ele>
        <time>2013-07-14T16:25:45Z</time>
      </trkpt>
      <trkpt lat="45.95656" lon="3.64626">
        <ele>877.75</ele>
        <time>2013-07-14T16:25:51Z</time>
      </trkpt>
      <trkpt lat="45.95675" lon="3.64622">
        <ele>879.23</ele>
        <time>2013-07-14T16:25:57Z</time>
      </trkpt>
      <trkpt lat="45.95698" lon="3.64615">
        <ele>879.2</ele>
        <time>2013-07-14T16:26:01Z</time>
      </trkpt>
      <trkpt lat="45.95716" lon="3.64609">
        <ele>878.76</ele>
        <time>2013-07-14T16:26:05Z</time>
      </trkpt>
      <trkpt lat="45.95733" lon="3.64598">
        <ele>878.15</ele>
        <time>2013-07-14T16:26:11Z</time>
      </trkpt>
      <trkpt lat="45.95751" lon="3.64585">
        <ele>877.7</ele>
        <time>2013-07-14T16:26:16Z</time>
      </trkpt>
      <trkpt lat="45.95767" lon="3.64572">
        <ele>877.6</ele>
        <time>2013-07-14T16:26:20Z</time>
      </trkpt>
      <trkpt lat="45.95785" lon="3.64555">
        <ele>877.13</ele>
        <time>2013-07-14T16:26:25Z</time>
      </trkpt>
      <trkpt lat="45.95797" lon="3.64532">
        <ele>877.42</ele>
        <time>2013-07-14T16:26:31Z</time>
      </trkpt>
      <trkpt lat="45.95812" lon="3.64512">
        <ele>877.54</ele>
        <time>2013-07-14T16:26:39Z</time>
      </trkpt>
      <trkpt lat="45.95824" lon="3.64491">
        <ele>877.55</ele>
        <time>2013-07-14T16:26:48Z</time>
      </trkpt>
      <trkpt lat="45.95826" lon="3.64465">
        <ele>876.79</ele>
        <time>2013-07-14T16:26:58Z</time>
      </trkpt>
      <trkpt lat="45.95829" lon="3.64439">
        <ele>875.45</ele>
        <time>2013-07-14T16:27:07Z</time>
      </trkpt>
      <trkpt lat="45.95832" lon="3.64413">
        <ele>873.78</ele>
        <time>2013-07-14T16:27:17Z</time>
      </trkpt>
      <trkpt lat="45.95833" lon="3.64386">
        <ele>872.04</ele>
        <time>2013-07-14T16:27:28Z</time>
      </trkpt>
      <trkpt lat="45.95832" lon="3.64358">
        <ele>871.82</ele>
        <time>2013-07-14T16:27:40Z</time>
      </trkpt>
      <trkpt lat="45.95831" lon="3.6433">
        <ele>873.28</ele>
        <time>2013-07-14T16:27:51Z</time>
      </trkpt>
      <trkpt lat="45.95829" lon="3.64304">
        <ele>875.8</ele>
        <time>2013-07-14T16:28:02Z</time>
      </trkpt>
      <trkpt lat="45.95827" lon="3.64278">
        <ele>880.02</ele>
        <time>2013-07-14T16:28:14Z</time>
      </trkpt>
      <trkpt lat="45.95832" lon="3.64253">
        <ele>886.61</ele>
        <time>2013-07-14T16:28:32Z</time>
      </trkpt>
      <trkpt lat="45.9584" lon="3.64229">
        <ele>889.14</ele>
        <time>2013-07-14T16:28:41Z</time>
      </trkpt>
      <trkpt lat="45.95849" lon="3.64205">
        <ele>891.13</ele>
        <time>2013-07-14T16:28:50Z</time>
      </trkpt>
      <trkpt lat="45.95863" lon="3.64184">
        <ele>891.48</ele>
        <time>2013-07-14T16:28:56Z</time>
      </trkpt>
      <trkpt lat="45.95878" lon="3.6416">
        <ele>891.53</ele>
        <time>2013-07-14T16:29:00Z</time>
      </trkpt>
      <trkpt lat="45.95894" lon="3.64143">
        <ele>890.71</ele>
        <time>2013-07-14T16:29:03Z</time>
      </trkpt>
      <trkpt lat="45.95909" lon="3.64126">
        <ele>890.04</ele>
        <time>2013-07-14T16:29:06Z</time>
      </trkpt>
      <trkpt lat="45.95924" lon="3.64109">
        <ele>889.51</ele>
        <time>2013-07-14T16:29:09Z</time>
      </trkpt>
      <trkpt lat="45.95943" lon="3.64092">
        <ele>888.42</ele>
        <time>2013-07-14T16:29:13Z</time>
      </trkpt>
      <trkpt lat="45.95961" lon="3.64074">
        <ele>887.25</ele>
        <time>2013-07-14T16:29:17Z</time>
      </trkpt>
      <trkpt lat="45.95977" lon="3.64059">
        <ele>885.84</ele>
        <time>2013-07-14T16:29:21Z</time>
      </trkpt>
      <trkpt lat="45.95995" lon="3.64042">
        <ele>883.92</ele>
        <time>2013-07-14T16:29:26Z</time>
      </trkpt>
      <trkpt lat="45.96014" lon="3.64029">
        <ele>882.55</ele>
        <time>2013-07-14T16:29:30Z</time>
      </trkpt>
      <trkpt lat="45.96035" lon="3.64017">
        <ele>881.29</ele>
        <time>2013-07-14T16:29:34Z</time>
      </trkpt>
      <trkpt lat="45.96052" lon="3.64008">
        <ele>880.29</ele>
        <time>2013-07-14T16:29:37Z</time>
      </trkpt>
      <trkpt lat="45.96072" lon="3.63997">
        <ele>878.85</ele>
        <time>2013-07-14T16:29:41Z</time>
      </trkpt>
      <trkpt lat="45.96091" lon="3.63993">
        <ele>877.53</ele>
        <time>2013-07-14T16:29:45Z</time>
      </trkpt>
      <trkpt lat="45.96109" lon="3.63991">
        <ele>876.28</ele>
        <time>2013-07-14T16:29:49Z</time>
      </trkpt>
      <trkpt lat="45.96128" lon="3.63986">
        <ele>874.61</ele>
        <time>2013-07-14T16:29:54Z</time>
      </trkpt>
      <trkpt lat="45.96146" lon="3.63984">
        <ele>873.12</ele>
        <time>2013-07-14T16:29:59Z</time>
      </trkpt>
      <trkpt lat="45.96164" lon="3.63976">
        <ele>871.89</ele>
        <time>2013-07-14T16:30:05Z</time>
      </trkpt>
      <trkpt lat="45.96182" lon="3.63963">
        <ele>871.59</ele>
        <time>2013-07-14T16:30:13Z</time>
      </trkpt>
      <trkpt lat="45.96197" lon="3.63948">
        <ele>871.56</ele>
        <time>2013-07-14T16:30:19Z</time>
      </trkpt>
      <trkpt lat="45.96214" lon="3.63937">
        <ele>871.55</ele>
        <time>2013-07-14T16:30:25Z</time>
      </trkpt>
      <trkpt lat="45.96232" lon="3.63924">
        <ele>872.13</ele>
        <time>2013-07-14T16:30:32Z</time>
      </trkpt>
      <trkpt lat="45.96252" lon="3.63916">
        <ele>872.48</ele>
        <time>2013-07-14T16:30:38Z</time>
      </trkpt>
      <trkpt lat="45.96271" lon="3.63909">
        <ele>872.54</ele>
        <time>2013-07-14T16:30:44Z</time>
      </trkpt>
      <trkpt lat="45.96291" lon="3.63901">
        <ele>872.99</ele>
        <time>2013-07-14T16:30:50Z</time>
      </trkpt>
      <trkpt lat="45.96306" lon="3.63886">
        <ele>873.86</ele>
        <time>2013-07-14T16:30:55Z</time>
      </trkpt>
      <trkpt lat="45.96321" lon="3.63866">
        <ele>875.59</ele>
        <time>2013-07-14T16:31:00Z</time>
      </trkpt>
      <trkpt lat="45.96336" lon="3.63843">
        <ele>879.16</ele>
        <time>2013-07-14T16:31:05Z</time>
      </trkpt>
      <trkpt lat="45.96347" lon="3.63817">
        <ele>884.27</ele>
        <time>2013-07-14T16:31:07Z</time>
      </trkpt>
      <trkpt lat="45.96357" lon="3.63787">
        <ele>892.17</ele>
        <time>2013-07-14T16:31:10Z</time>
      </trkpt>
      <trkpt lat="45.96362" lon="3.63757">
        <ele>898.72</ele>
        <time>2013-07-14T16:31:13Z</time>
      </trkpt>
      <trkpt lat="45.96361" lon="3.63727">
        <ele>903.93</ele>
        <time>2013-07-14T16:31:18Z</time>
      </trkpt>
      <trkpt lat="45.96344" lon="3.63703">
        <ele>905.3</ele>
        <time>2013-07-14T16:32:25Z</time>
      </trkpt>
      <trkpt lat="45.96332" lon="3.63682">
        <ele>900.49</ele>
        <time>2013-07-14T16:32:28Z</time>
      </trkpt>
      <trkpt lat="45.96319" lon="3.63658">
        <ele>893.26</ele>
        <time>2013-07-14T16:32:31Z</time>
      </trkpt>
      <trkpt lat="45.96305" lon="3.63635">
        <ele>882.39</ele>
        <time>2013-07-14T16:32:35Z</time>
      </trkpt>
      <trkpt lat="45.96291" lon="3.63611">
        <ele>872.7</ele>
        <time>2013-07-14T16:32:39Z</time>
      </trkpt>
      <trkpt lat="45.96278" lon="3.63587">
        <ele>863.67</ele>
        <time>2013-07-14T16:32:43Z</time>
      </trkpt>
      <trkpt lat="45.96266" lon="3.63566">
        <ele>857.11</ele>
        <time>2013-07-14T16:32:47Z</time>
      </trkpt>
      <trkpt lat="45.96252" lon="3.63547">
        <ele>853.6</ele>
        <time>2013-07-14T16:32:51Z</time>
      </trkpt>
      <trkpt lat="45.96237" lon="3.63521">
        <ele>850.11</ele>
        <time>2013-07-14T16:32:55Z</time>
      </trkpt>
      <trkpt lat="45.96227" lon="3.63497">
        <ele>848.38</ele>
        <time>2013-07-14T16:32:58Z</time>
      </trkpt>
      <trkpt lat="45.96215" lon="3.63469">
        <ele>846.88</ele>
        <time>2013-07-14T16:33:02Z</time>
      </trkpt>
      <trkpt lat="45.96204" lon="3.63441">
        <ele>845.79</ele>
        <time>2013-07-14T16:33:06Z</time>
      </trkpt>
      <trkpt lat="45.96194" lon="3.63414">
        <ele>846.48</ele>
        <time>2013-07-14T16:33:09Z</time>
      </trkpt>
      <trkpt lat="45.96184" lon="3.63384">
        <ele>847.1</ele>
        <time>2013-07-14T16:33:12Z</time>
      </trkpt>
      <trkpt lat="45.96174" lon="3.63356">
        <ele>847.94</ele>
        <time>2013-07-14T16:33:15Z</time>
      </trkpt>
      <trkpt lat="45.96161" lon="3.63328">
        <ele>848.66</ele>
        <time>2013-07-14T16:33:20Z</time>
      </trkpt>
      <trkpt lat="45.96154" lon="3.63304">
        <ele>856.8</ele>
        <time>2013-07-14T16:35:57Z</time>
      </trkpt>
      <trkpt lat="45.96146" lon="3.63281">
        <ele>862.54</ele>
        <time>2013-07-14T16:36:20Z</time>
      </trkpt>
      <trkpt lat="45.9613" lon="3.63293">
        <ele>866.55</ele>
        <time>2013-07-14T16:38:52Z</time>
      </trkpt>
      <trkpt lat="45.96138" lon="3.6327">
        <ele>870.55</ele>
        <time>2013-07-14T16:41:44Z</time>
      </trkpt>
      <trkpt lat="45.96136" lon="3.63244">
        <ele>879.55</ele>
        <time>2013-07-14T17:07:37Z</time>
      </trkpt>
      <trkpt lat="45.96117" lon="3.63231">
        <ele>868.88</ele>
        <time>2013-07-14T17:35:11Z</time>
      </trkpt>
      <trkpt lat="45.96105" lon="3.63208">
        <ele>868.69</ele>
        <time>2013-07-14T17:35:14Z</time>
      </trkpt>
      <trkpt lat="45.96082" lon="3.63188">
        <ele>869.05</ele>
        <time>2013-07-14T17:35:17Z</time>
      </trkpt>
      <trkpt lat="45.96057" lon="3.6318">
        <ele>869.34</ele>
        <time>2013-07-14T17:35:20Z</time>
      </trkpt>
      <trkpt lat="45.96034" lon="3.63182">
        <ele>869.43</ele>
        <time>2013-07-14T17:35:22Z</time>
      </trkpt>
      <trkpt lat="45.96009" lon="3.63178">
        <ele>869.49</ele>
        <time>2013-07-14T17:35:24Z</time>
      </trkpt>
      <trkpt lat="45.95984" lon="3.63169">
        <ele>869.52</ele>
        <time>2013-07-14T17:35:26Z</time>
      </trkpt>
      <trkpt lat="45.95963" lon="3.63156">
        <ele>869.78</ele>
        <time>2013-07-14T17:35:28Z</time>
      </trkpt>
      <trkpt lat="45.95948" lon="3.63126">
        <ele>870.67</ele>
        <time>2013-07-14T17:35:31Z</time>
      </trkpt>
      <trkpt lat="45.95954" lon="3.63098">
        <ele>872.21</ele>
        <time>2013-07-14T17:35:35Z</time>
      </trkpt>
      <trkpt lat="45.95969" lon="3.6307">
        <ele>873.23</ele>
        <time>2013-07-14T17:35:38Z</time>
      </trkpt>
      <trkpt lat="45.95979" lon="3.63045">
        <ele>873.81</ele>
        <time>2013-07-14T17:35:40Z</time>
      </trkpt>
      <trkpt lat="45.95989" lon="3.63021">
        <ele>874.57</ele>
        <time>2013-07-14T17:35:42Z</time>
      </trkpt>
      <trkpt lat="45.96002" lon="3.63002">
        <ele>875.58</ele>
        <time>2013-07-14T17:35:45Z</time>
      </trkpt>
      <trkpt lat="45.95981" lon="3.6301">
        <ele>892.55</ele>
        <time>2013-07-14T17:48:09Z</time>
      </trkpt>
      <trkpt lat="45.95972" lon="3.6304">
        <ele>892.55</ele>
        <time>2013-07-14T17:48:12Z</time>
      </trkpt>
      <trkpt lat="45.95962" lon="3.63072">
        <ele>892.3</ele>
        <time>2013-07-14T17:48:15Z</time>
      </trkpt>
      <trkpt lat="45.9595" lon="3.63096">
        <ele>891.87</ele>
        <time>2013-07-14T17:48:18Z</time>
      </trkpt>
      <trkpt lat="45.9594" lon="3.6312">
        <ele>890.94</ele>
        <time>2013-07-14T17:48:23Z</time>
      </trkpt>
      <trkpt lat="45.95949" lon="3.63145">
        <ele>890.72</ele>
        <time>2013-07-14T17:48:26Z</time>
      </trkpt>
      <trkpt lat="45.95968" lon="3.63167">
        <ele>890.19</ele>
        <time>2013-07-14T17:48:29Z</time>
      </trkpt>
      <trkpt lat="45.95989" lon="3.6318">
        <ele>889.91</ele>
        <time>2013-07-14T17:48:31Z</time>
      </trkpt>
      <trkpt lat="45.96011" lon="3.63188">
        <ele>889.32</ele>
        <time>2013-07-14T17:48:33Z</time>
      </trkpt>
      <trkpt lat="45.96034" lon="3.63193">
        <ele>888.98</ele>
        <time>2013-07-14T17:48:35Z</time>
      </trkpt>
      <trkpt lat="45.96056" lon="3.63197">
        <ele>888.73</ele>
        <time>2013-07-14T17:48:38Z</time>
      </trkpt>
      <trkpt lat="45.96077" lon="3.63197">
        <ele>888.12</ele>
        <time>2013-07-14T17:49:03Z</time>
      </trkpt>
      <trkpt lat="45.96096" lon="3.63208">
        <ele>887.21</ele>
        <time>2013-07-14T17:49:06Z</time>
      </trkpt>
      <trkpt lat="45.9611" lon="3.63229">
        <ele>886.83</ele>
        <time>2013-07-14T17:49:09Z</time>
      </trkpt>
      <trkpt lat="45.96122" lon="3.63253">
        <ele>886.32</ele>
        <time>2013-07-14T17:49:18Z</time>
      </trkpt>
    </trkseg>
  </trk>
</gpx>